Wetterdaten: Montag, 22.05.2017
Datum Zeit Temp. A. Pool Temp. Feuchte A. Luftdruck Regen Wind Richtung Richtung Sonnenschein ET UV Solar Taupunkt Windchill Windben Empfang
22.05.2017 00:00 10,8 C 20,6 C 85 % 1021,8 hPa 0,0 l/m 0,0 km/h (0 Bft) O-SO 123 0 min 0,000 mm 0,0 UV-I 0 W/m 8,4 C 10,8 C 1,6 km/h (1 Bft) 94,44 %
22.05.2017 00:02 10,8 C 20,6 C 85 % 1021,8 hPa 0,0 l/m 0,0 km/h (0 Bft) O-SO 123 0 min 0,000 mm 0,0 UV-I 0 W/m 8,4 C 10,8 C 1,6 km/h (1 Bft) 96,30 %
22.05.2017 00:04 10,8 C 20,6 C 85 % 1021,8 hPa 0,0 l/m 0,2 km/h (0 Bft) O-SO 123 0 min 0,000 mm 0,0 UV-I 0 W/m 8,4 C 10,8 C 1,6 km/h (1 Bft) 95,16 %
22.05.2017 00:06 10,7 C 20,6 C 85 % 1021,8 hPa 0,0 l/m 0,0 km/h (0 Bft) O-SO 123 0 min 0,000 mm 0,0 UV-I 0 W/m 8,3 C 10,7 C 0,0 km/h (0 Bft) 95,74 %
22.05.2017 00:08 10,7 C 20,6 C 86 % 1021,7 hPa 0,0 l/m 0,0 km/h (0 Bft) O-SO 123 0 min 0,000 mm 0,0 UV-I 0 W/m 8,5 C 10,7 C 0,0 km/h (0 Bft) 93,62 %
22.05.2017 00:10 10,6 C 20,6 C 85 % 1021,7 hPa 0,0 l/m 0,0 km/h (0 Bft) O-SO 123 0 min 0,000 mm 0,0 UV-I 0 W/m 8,2 C 10,6 C 1,6 km/h (1 Bft) 95,12 %
22.05.2017 00:12 10,4 C 20,6 C 86 % 1021,7 hPa 0,0 l/m 0,0 km/h (0 Bft) O-SO 123 0 min 0,000 mm 0,0 UV-I 0 W/m 8,2 C 10,4 C 0,0 km/h (0 Bft) 88,68 %
22.05.2017 00:14 10,3 C 20,6 C 87 % 1021,7 hPa 0,0 l/m 0,0 km/h (0 Bft) O-SO 123 0 min 0,000 mm 0,0 UV-I 0 W/m 8,2 C 10,3 C 0,0 km/h (0 Bft) 89,36 %
22.05.2017 00:16 10,3 C 20,6 C 87 % 1021,7 hPa 0,0 l/m 0,0 km/h (0 Bft) O-SO 123 0 min 0,000 mm 0,0 UV-I 0 W/m 8,2 C 10,3 C 0,0 km/h (0 Bft) 94,00 %
22.05.2017 00:18 10,4 C 20,6 C 87 % 1021,7 hPa 0,0 l/m 0,0 km/h (0 Bft) O-SO 123 0 min 0,000 mm 0,0 UV-I 0 W/m 8,3 C 10,4 C 0,0 km/h (0 Bft) 92,11 %
22.05.2017 00:20 10,4 C 20,6 C 87 % 1021,7 hPa 0,0 l/m 0,9 km/h (0 Bft) O-SO 123 0 min 0,000 mm 0,0 UV-I 0 W/m 8,3 C 10,4 C 1,6 km/h (1 Bft) 94,29 %
22.05.2017 00:22 10,3 C 20,6 C 87 % 1021,7 hPa 0,0 l/m 0,0 km/h (0 Bft) O-SO 123 0 min 0,000 mm 0,0 UV-I 0 W/m 8,2 C 10,3 C 0,0 km/h (0 Bft) 93,55 %
22.05.2017 00:24 10,2 C 20,6 C 87 % 1021,8 hPa 0,0 l/m 0,0 km/h (0 Bft) O-SO 123 0 min 0,000 mm 0,0 UV-I 0 W/m 8,1 C 10,2 C 0,0 km/h (0 Bft) 94,74 %
22.05.2017 00:26 10,2 C 20,6 C 88 % 1021,7 hPa 0,0 l/m 0,0 km/h (0 Bft) O-SO 123 0 min 0,000 mm 0,0 UV-I 0 W/m 8,3 C 10,2 C 0,0 km/h (0 Bft) 96,23 %
22.05.2017 00:28 10,1 C 20,6 C 88 % 1021,7 hPa 0,0 l/m 0,0 km/h (0 Bft) O-SO 123 0 min 0,000 mm 0,0 UV-I 0 W/m 8,2 C 10,1 C 0,0 km/h (0 Bft) 92,00 %
22.05.2017 00:30 10,1 C 20,6 C 88 % 1021,7 hPa 0,0 l/m 0,0 km/h (0 Bft) O-SO 123 0 min 0,000 mm 0,0 UV-I 0 W/m 8,2 C 10,1 C 0,0 km/h (0 Bft) 100,00 %
22.05.2017 00:32 10,1 C 20,6 C 88 % 1021,6 hPa 0,0 l/m 0,0 km/h (0 Bft) O-SO 123 0 min 0,000 mm 0,0 UV-I 0 W/m 8,2 C 10,1 C 0,0 km/h (0 Bft) 94,00 %
22.05.2017 00:34 10,1 C 20,6 C 88 % 1021,7 hPa 0,0 l/m 0,0 km/h (0 Bft) O-SO 123 0 min 0,000 mm 0,0 UV-I 0 W/m 8,2 C 10,1 C 0,0 km/h (0 Bft) 97,87 %
22.05.2017 00:36 10,1 C 20,6 C 88 % 1021,7 hPa 0,0 l/m 0,0 km/h (0 Bft) O-SO 123 0 min 0,000 mm 0,0 UV-I 0 W/m 8,2 C 10,1 C 0,0 km/h (0 Bft) 95,74 %
22.05.2017 00:38 10,1 C 20,6 C 88 % 1021,7 hPa 0,0 l/m 0,0 km/h (0 Bft) O-SO 123 0 min 0,000 mm 0,0 UV-I 0 W/m 8,2 C 10,1 C 0,0 km/h (0 Bft) 96,23 %
22.05.2017 00:40 10,0 C 20,6 C 88 % 1021,6 hPa 0,0 l/m 0,0 km/h (0 Bft) O-SO 123 0 min 0,000 mm 0,0 UV-I 0 W/m 8,1 C 10,0 C 0,0 km/h (0 Bft) 95,74 %
22.05.2017 00:42 9,9 C 20,6 C 88 % 1021,7 hPa 0,0 l/m 0,0 km/h (0 Bft) O-SO 123 0 min 0,000 mm 0,0 UV-I 0 W/m 8,0 C 9,9 C 0,0 km/h (0 Bft) 95,74 %
22.05.2017 00:44 9,9 C 20,6 C 88 % 1021,6 hPa 0,0 l/m 0,0 km/h (0 Bft) O-SO 123 0 min 0,000 mm 0,0 UV-I 0 W/m 8,0 C 9,9 C 0,0 km/h (0 Bft) 97,87 %
22.05.2017 00:46 9,9 C 20,6 C 89 % 1021,5 hPa 0,0 l/m 0,0 km/h (0 Bft) O-SO 123 0 min 0,000 mm 0,0 UV-I 0 W/m 8,2 C 9,9 C 0,0 km/h (0 Bft) 95,74 %
22.05.2017 00:48 9,9 C 20,6 C 89 % 1021,5 hPa 0,0 l/m 0,0 km/h (0 Bft) O-SO 123 0 min 0,000 mm 0,0 UV-I 0 W/m 8,2 C 9,9 C 0,0 km/h (0 Bft) 97,92 %
22.05.2017 00:50 9,9 C 20,6 C 89 % 1021,5 hPa 0,0 l/m 0,0 km/h (0 Bft) O-SO 123 0 min 0,000 mm 0,0 UV-I 0 W/m 8,2 C 9,9 C 0,0 km/h (0 Bft) 97,87 %
22.05.2017 00:52 9,8 C 20,6 C 89 % 1021,5 hPa 0,0 l/m 0,3 km/h (0 Bft) O-SO 123 0 min 0,000 mm 0,0 UV-I 0 W/m 8,1 C 9,8 C 1,6 km/h (1 Bft) 97,87 %
22.05.2017 00:54 9,8 C 20,6 C 89 % 1021,4 hPa 0,0 l/m 0,9 km/h (0 Bft) O-SO 123 0 min 0,000 mm 0,0 UV-I 0 W/m 8,1 C 9,8 C 1,6 km/h (1 Bft) 94,29 %
22.05.2017 00:56 9,8 C 20,6 C 89 % 1021,4 hPa 0,0 l/m 1,7 km/h (1 Bft) O-SO 123 0 min 0,000 mm 0,0 UV-I 0 W/m 8,1 C 9,8 C 3,2 km/h (1 Bft) 98,00 %
22.05.2017 00:58 9,9 C 20,6 C 89 % 1021,4 hPa 0,0 l/m 2,6 km/h (1 Bft) O-SO 123 0 min 0,000 mm 0,0 UV-I 0 W/m 8,2 C 9,9 C 3,2 km/h (1 Bft) 97,87 %
22.05.2017 01:00 9,9 C 20,6 C 88 % 1021,4 hPa 0,0 l/m 2,4 km/h (1 Bft) O-SO 123 0 min 0,000 mm 0,0 UV-I 0 W/m 8,0 C 9,9 C 3,2 km/h (1 Bft) 98,00 %
22.05.2017 01:02 9,9 C 20,6 C 88 % 1021,3 hPa 0,0 l/m 0,9 km/h (0 Bft) O-SO 123 0 min 0,000 mm 0,0 UV-I 0 W/m 8,0 C 9,9 C 3,2 km/h (1 Bft) 98,00 %
22.05.2017 01:04 9,8 C 20,6 C 88 % 1021,3 hPa 0,0 l/m 0,0 km/h (0 Bft) O-SO 123 0 min 0,000 mm 0,0 UV-I 0 W/m 7,9 C 9,8 C 0,0 km/h (0 Bft) 94,74 %
22.05.2017 01:06 9,8 C 20,6 C 88 % 1021,3 hPa 0,0 l/m 1,0 km/h (0 Bft) O-SO 123 0 min 0,000 mm 0,0 UV-I 0 W/m 7,9 C 9,8 C 1,6 km/h (1 Bft) 100,00 %
22.05.2017 01:08 9,8 C 20,6 C 88 % 1021,3 hPa 0,0 l/m 1,4 km/h (1 Bft) O-SO 123 0 min 0,000 mm 0,0 UV-I 0 W/m 7,9 C 9,8 C 3,2 km/h (1 Bft) 95,74 %
22.05.2017 01:10 9,8 C 20,6 C 88 % 1021,2 hPa 0,0 l/m 1,4 km/h (1 Bft) O-SO 123 0 min 0,000 mm 0,0 UV-I 0 W/m 7,9 C 9,8 C 3,2 km/h (1 Bft) 98,00 %
22.05.2017 01:12 9,9 C 20,6 C 88 % 1021,2 hPa 0,0 l/m 3,2 km/h (1 Bft) O-SO 123 0 min 0,000 mm 0,0 UV-I 0 W/m 8,0 C 9,9 C 4,8 km/h (1 Bft) 100,00 %
22.05.2017 01:14 9,9 C 20,6 C 88 % 1021,2 hPa 0,0 l/m 3,4 km/h (1 Bft) O-SO 122 0 min 0,000 mm 0,0 UV-I 0 W/m 8,0 C 9,9 C 4,8 km/h (1 Bft) 97,56 %
22.05.2017 01:16 9,8 C 20,6 C 88 % 1021,2 hPa 0,0 l/m 2,3 km/h (1 Bft) O-SO 122 0 min 0,000 mm 0,0 UV-I 0 W/m 7,9 C 9,8 C 3,2 km/h (1 Bft) 100,00 %
22.05.2017 01:18 9,8 C 20,6 C 88 % 1021,2 hPa 0,0 l/m 0,1 km/h (0 Bft) O-SO 122 0 min 0,000 mm 0,0 UV-I 0 W/m 7,9 C 9,8 C 1,6 km/h (1 Bft) 96,23 %
22.05.2017 01:20 9,7 C 20,6 C 88 % 1021,1 hPa 0,0 l/m 0,1 km/h (0 Bft) O-SO 122 0 min 0,000 mm 0,0 UV-I 0 W/m 7,8 C 9,7 C 1,6 km/h (1 Bft) 100,00 %
22.05.2017 01:22 9,6 C 20,6 C 88 % 1021,1 hPa 0,0 l/m 3,2 km/h (1 Bft) O-SO 122 0 min 0,000 mm 0,0 UV-I 0 W/m 7,7 C 9,6 C 4,8 km/h (1 Bft) 97,73 %
22.05.2017 01:24 9,4 C 20,6 C 89 % 1021,1 hPa 0,0 l/m 3,0 km/h (1 Bft) O-SO 122 0 min 0,000 mm 0,0 UV-I 0 W/m 7,7 C 9,4 C 4,8 km/h (1 Bft) 97,87 %
22.05.2017 01:26 9,4 C 20,6 C 89 % 1021,1 hPa 0,0 l/m 2,8 km/h (1 Bft) O-SO 122 0 min 0,000 mm 0,0 UV-I 0 W/m 7,7 C 9,4 C 4,8 km/h (1 Bft) 100,00 %
22.05.2017 01:28 9,5 C 20,0 C 89 % 1021,0 hPa 0,0 l/m 3,5 km/h (1 Bft) O-SO 122 0 min 0,000 mm 0,0 UV-I 0 W/m 7,8 C 9,5 C 4,8 km/h (1 Bft) 98,00 %
22.05.2017 01:30 9,5 C 20,6 C 89 % 1021,0 hPa 0,0 l/m 3,4 km/h (1 Bft) O-SO 122 0 min 0,000 mm 0,0 UV-I 0 W/m 7,8 C 9,5 C 4,8 km/h (1 Bft) 98,00 %
22.05.2017 01:32 9,4 C 20,0 C 89 % 1021,0 hPa 0,0 l/m 3,7 km/h (1 Bft) O-SO 122 0 min 0,000 mm 0,0 UV-I 0 W/m 7,7 C 9,4 C 4,8 km/h (1 Bft) 98,00 %
22.05.2017 01:34 9,5 C 20,0 C 89 % 1021,0 hPa 0,0 l/m 2,7 km/h (1 Bft) O-SO 122 0 min 0,000 mm 0,0 UV-I 0 W/m 7,8 C 9,5 C 4,8 km/h (1 Bft) 95,74 %
22.05.2017 01:36 9,5 C 20,0 C 89 % 1021,0 hPa 0,0 l/m 2,4 km/h (1 Bft) O-SO 122 0 min 0,000 mm 0,0 UV-I 0 W/m 7,8 C 9,5 C 3,2 km/h (1 Bft) 97,73 %
22.05.2017 01:38 9,6 C 20,0 C 89 % 1021,0 hPa 0,0 l/m 2,2 km/h (1 Bft) O-SO 122 0 min 0,000 mm 0,0 UV-I 0 W/m 7,9 C 9,6 C 3,2 km/h (1 Bft) 98,00 %
22.05.2017 01:40 9,6 C 20,0 C 89 % 1020,9 hPa 0,0 l/m 0,1 km/h (0 Bft) O-SO 122 0 min 0,000 mm 0,0 UV-I 0 W/m 7,9 C 9,6 C 1,6 km/h (1 Bft) 97,14 %
22.05.2017 01:42 9,5 C 20,0 C 89 % 1021,0 hPa 0,0 l/m 0,9 km/h (0 Bft) O-SO 122 0 min 0,000 mm 0,0 UV-I 0 W/m 7,8 C 9,5 C 1,6 km/h (1 Bft) 98,11 %
22.05.2017 01:44 9,4 C 20,0 C 89 % 1021,0 hPa 0,0 l/m 0,1 km/h (0 Bft) O-SO 122 0 min 0,000 mm 0,0 UV-I 0 W/m 7,7 C 9,4 C 1,6 km/h (1 Bft) 97,87 %
22.05.2017 01:46 9,3 C 20,0 C 89 % 1020,9 hPa 0,0 l/m 0,6 km/h (0 Bft) O-SO 122 0 min 0,000 mm 0,0 UV-I 0 W/m 7,6 C 9,3 C 1,6 km/h (1 Bft) 96,43 %
22.05.2017 01:48 9,2 C 20,0 C 90 % 1020,9 hPa 0,0 l/m 0,0 km/h (0 Bft) O-SO 122 0 min 0,000 mm 0,0 UV-I 0 W/m 7,6 C 9,2 C 0,0 km/h (0 Bft) 97,37 %
22.05.2017 01:50 9,1 C 20,0 C 90 % 1020,9 hPa 0,0 l/m 0,8 km/h (0 Bft) O-SO 122 0 min 0,000 mm 0,0 UV-I 0 W/m 7,5 C 9,1 C 3,2 km/h (1 Bft) 98,00 %
22.05.2017 01:52 9,1 C 20,0 C 90 % 1020,9 hPa 0,0 l/m 1,8 km/h (1 Bft) O-SO 122 0 min 0,000 mm 0,0 UV-I 0 W/m 7,5 C 9,1 C 3,2 km/h (1 Bft) 95,12 %
22.05.2017 01:54 8,9 C 20,0 C 90 % 1020,8 hPa 0,0 l/m 2,7 km/h (1 Bft) O-SO 122 0 min 0,000 mm 0,0 UV-I 0 W/m 7,4 C 8,9 C 3,2 km/h (1 Bft) 96,43 %
22.05.2017 01:56 8,9 C 20,0 C 90 % 1020,8 hPa 0,0 l/m 3,4 km/h (1 Bft) O-SO 122 0 min 0,000 mm 0,0 UV-I 0 W/m 7,4 C 8,9 C 4,8 km/h (1 Bft) 97,87 %
22.05.2017 01:58 8,9 C 20,0 C 91 % 1020,8 hPa 0,0 l/m 3,9 km/h (1 Bft) O-SO 122 0 min 0,000 mm 0,0 UV-I 0 W/m 7,5 C 8,9 C 6,4 km/h (2 Bft) 93,62 %
22.05.2017 02:00 9,0 C 20,0 C 91 % 1020,7 hPa 0,0 l/m 4,1 km/h (1 Bft) O-SO 122 0 min 0,000 mm 0,0 UV-I 0 W/m 7,6 C 9,0 C 6,4 km/h (2 Bft) 97,44 %
22.05.2017 02:02 8,9 C 20,0 C 90 % 1020,7 hPa 0,0 l/m 6,4 km/h (2 Bft) O-NO 61 0 min 0,000 mm 0,0 UV-I 0 W/m 7,4 C 8,9 C 8,0 km/h (2 Bft) 100,00 %
22.05.2017 02:04 8,8 C 20,0 C 91 % 1020,7 hPa 0,0 l/m 5,6 km/h (1 Bft) O-NO 60 0 min 0,000 mm 0,0 UV-I 0 W/m 7,4 C 8,8 C 8,0 km/h (2 Bft) 98,00 %
22.05.2017 02:06 8,8 C 20,0 C 91 % 1020,7 hPa 0,0 l/m 4,7 km/h (1 Bft) O-NO 60 0 min 0,000 mm 0,0 UV-I 0 W/m 7,4 C 8,8 C 6,4 km/h (2 Bft) 100,00 %
22.05.2017 02:08 8,8 C 20,0 C 91 % 1020,7 hPa 0,0 l/m 4,4 km/h (1 Bft) O-NO 60 0 min 0,000 mm 0,0 UV-I 0 W/m 7,4 C 8,8 C 6,4 km/h (2 Bft) 97,73 %
22.05.2017 02:10 8,8 C 20,0 C 91 % 1020,7 hPa 0,0 l/m 6,1 km/h (2 Bft) O-NO 57 0 min 0,000 mm 0,0 UV-I 0 W/m 7,4 C 8,8 C 6,4 km/h (2 Bft) 100,00 %
22.05.2017 02:12 8,8 C 20,0 C 92 % 1020,7 hPa 0,0 l/m 4,8 km/h (1 Bft) O-NO 57 0 min 0,000 mm 0,0 UV-I 0 W/m 7,6 C 8,8 C 6,4 km/h (2 Bft) 98,00 %
22.05.2017 02:14 8,8 C 20,0 C 92 % 1020,7 hPa 0,0 l/m 4,0 km/h (1 Bft) O-NO 57 0 min 0,000 mm 0,0 UV-I 0 W/m 7,6 C 8,8 C 4,8 km/h (1 Bft) 97,56 %
22.05.2017 02:16 8,9 C 20,0 C 92 % 1020,6 hPa 0,0 l/m 4,4 km/h (1 Bft) O-NO 57 0 min 0,000 mm 0,0 UV-I 0 W/m 7,7 C 8,9 C 6,4 km/h (2 Bft) 98,00 %
22.05.2017 02:18 9,0 C 20,0 C 92 % 1020,6 hPa 0,0 l/m 5,9 km/h (2 Bft) O-NO 57 0 min 0,000 mm 0,0 UV-I 0 W/m 7,8 C 9,0 C 8,0 km/h (2 Bft) 95,74 %
22.05.2017 02:20 8,9 C 20,0 C 92 % 1020,6 hPa 0,0 l/m 4,7 km/h (1 Bft) O-NO 57 0 min 0,000 mm 0,0 UV-I 0 W/m 7,7 C 8,9 C 6,4 km/h (2 Bft) 95,45 %
22.05.2017 02:22 8,9 C 20,0 C 92 % 1020,6 hPa 0,0 l/m 5,0 km/h (1 Bft) O-NO 57 0 min 0,000 mm 0,0 UV-I 0 W/m 7,7 C 8,9 C 6,4 km/h (2 Bft) 94,00 %
22.05.2017 02:24 8,8 C 20,0 C 92 % 1020,6 hPa 0,0 l/m 4,5 km/h (1 Bft) O-NO 57 0 min 0,000 mm 0,0 UV-I 0 W/m 7,6 C 8,8 C 6,4 km/h (2 Bft) 94,00 %
22.05.2017 02:26 8,8 C 20,0 C 92 % 1020,6 hPa 0,0 l/m 3,7 km/h (1 Bft) O-NO 57 0 min 0,000 mm 0,0 UV-I 0 W/m 7,6 C 8,8 C 4,8 km/h (1 Bft) 96,00 %
22.05.2017 02:28 8,8 C 20,0 C 92 % 1020,5 hPa 0,0 l/m 2,9 km/h (1 Bft) O-NO 57 0 min 0,000 mm 0,0 UV-I 0 W/m 7,6 C 8,8 C 4,8 km/h (1 Bft) 94,74 %
22.05.2017 02:30 8,8 C 20,0 C 92 % 1020,6 hPa 0,0 l/m 1,8 km/h (1 Bft) O-NO 57 0 min 0,000 mm 0,0 UV-I 0 W/m 7,6 C 8,8 C 3,2 km/h (1 Bft) 95,74 %
22.05.2017 02:32 8,8 C 20,0 C 92 % 1020,6 hPa 0,0 l/m 0,5 km/h (0 Bft) O-NO 57 0 min 0,000 mm 0,0 UV-I 0 W/m 7,6 C 8,8 C 1,6 km/h (1 Bft) 89,36 %
22.05.2017 02:34 8,8 C 20,0 C 92 % 1020,6 hPa 0,0 l/m 0,0 km/h (0 Bft) O-NO 57 0 min 0,000 mm 0,0 UV-I 0 W/m 7,6 C 8,8 C 0,0 km/h (0 Bft) 94,00 %
22.05.2017 02:36 8,8 C 20,0 C 92 % 1020,6 hPa 0,0 l/m 0,0 km/h (0 Bft) O-NO 57 0 min 0,000 mm 0,0 UV-I 0 W/m 7,6 C 8,8 C 0,0 km/h (0 Bft) 91,49 %
22.05.2017 02:38 8,7 C 20,0 C 92 % 1020,5 hPa 0,0 l/m 0,0 km/h (0 Bft) O-NO 57 0 min 0,000 mm 0,0 UV-I 0 W/m 7,5 C 8,7 C 0,0 km/h (0 Bft) 93,62 %
22.05.2017 02:40 8,7 C 20,0 C 92 % 1020,5 hPa 0,0 l/m 0,3 km/h (0 Bft) O-NO 57 0 min 0,000 mm 0,0 UV-I 0 W/m 7,5 C 8,7 C 1,6 km/h (1 Bft) 93,62 %
22.05.2017 02:42 8,7 C 20,0 C 92 % 1020,5 hPa 0,0 l/m 0,7 km/h (0 Bft) O-NO 57 0 min 0,000 mm 0,0 UV-I 0 W/m 7,5 C 8,7 C 3,2 km/h (1 Bft) 91,67 %
22.05.2017 02:44 8,6 C 20,0 C 92 % 1020,5 hPa 0,0 l/m 0,6 km/h (0 Bft) O-NO 57 0 min 0,000 mm 0,0 UV-I 0 W/m 7,4 C 8,6 C 1,6 km/h (1 Bft) 92,00 %
22.05.2017 02:46 8,7 C 20,0 C 92 % 1020,5 hPa 0,0 l/m 0,2 km/h (0 Bft) O-NO 57 0 min 0,000 mm 0,0 UV-I 0 W/m 7,5 C 8,7 C 1,6 km/h (1 Bft) 94,74 %
22.05.2017 02:48 8,7 C 20,0 C 92 % 1020,5 hPa 0,0 l/m 0,0 km/h (0 Bft) O-NO 57 0 min 0,000 mm 0,0 UV-I 0 W/m 7,5 C 8,7 C 0,0 km/h (0 Bft) 88,00 %
22.05.2017 02:50 8,7 C 20,0 C 92 % 1020,5 hPa 0,0 l/m 0,8 km/h (0 Bft) O-NO 57 0 min 0,000 mm 0,0 UV-I 0 W/m 7,5 C 8,7 C 3,2 km/h (1 Bft) 92,45 %
22.05.2017 02:52 8,7 C 20,0 C 92 % 1020,4 hPa 0,0 l/m 2,6 km/h (1 Bft) O-NO 57 0 min 0,000 mm 0,0 UV-I 0 W/m 7,5 C 8,7 C 3,2 km/h (1 Bft) 94,29 %
22.05.2017 02:54 8,7 C 20,0 C 92 % 1020,4 hPa 0,0 l/m 2,7 km/h (1 Bft) O-NO 57 0 min 0,000 mm 0,0 UV-I 0 W/m 7,5 C 8,7 C 3,2 km/h (1 Bft) 96,00 %
22.05.2017 02:56 8,8 C 20,0 C 92 % 1020,4 hPa 0,0 l/m 3,1 km/h (1 Bft) O-NO 57 0 min 0,000 mm 0,0 UV-I 0 W/m 7,6 C 8,8 C 4,8 km/h (1 Bft) 94,00 %
22.05.2017 02:58 8,8 C 20,0 C 92 % 1020,3 hPa 0,0 l/m 3,7 km/h (1 Bft) O-NO 57 0 min 0,000 mm 0,0 UV-I 0 W/m 7,6 C 8,8 C 4,8 km/h (1 Bft) 95,74 %
22.05.2017 03:00 8,8 C 20,0 C 92 % 1020,3 hPa 0,0 l/m 3,7 km/h (1 Bft) O-NO 57 0 min 0,000 mm 0,0 UV-I 0 W/m 7,6 C 8,8 C 4,8 km/h (1 Bft) 93,10 %
22.05.2017 03:02 8,8 C 20,0 C 92 % 1020,3 hPa 0,0 l/m 3,8 km/h (1 Bft) O-NO 57 0 min 0,000 mm 0,0 UV-I 0 W/m 7,6 C 8,8 C 4,8 km/h (1 Bft) 97,30 %
22.05.2017 03:04 8,8 C 20,0 C 92 % 1020,3 hPa 0,0 l/m 4,2 km/h (1 Bft) O-NO 57 0 min 0,000 mm 0,0 UV-I 0 W/m 7,6 C 8,8 C 4,8 km/h (1 Bft) 92,11 %
22.05.2017 03:06 8,8 C 20,0 C 92 % 1020,2 hPa 0,0 l/m 3,7 km/h (1 Bft) O-NO 57 0 min 0,000 mm 0,0 UV-I 0 W/m 7,6 C 8,8 C 4,8 km/h (1 Bft) 97,87 %
22.05.2017 03:08 8,8 C 20,0 C 92 % 1020,1 hPa 0,0 l/m 3,4 km/h (1 Bft) O-NO 57 0 min 0,000 mm 0,0 UV-I 0 W/m 7,6 C 8,8 C 4,8 km/h (1 Bft) 90,00 %
22.05.2017 03:10 8,8 C 20,0 C 92 % 1020,1 hPa 0,0 l/m 3,9 km/h (1 Bft) O-NO 57 0 min 0,000 mm 0,0 UV-I 0 W/m 7,6 C 8,8 C 4,8 km/h (1 Bft) 95,74 %
22.05.2017 03:12 8,8 C 20,0 C 92 % 1020,1 hPa 0,0 l/m 3,5 km/h (1 Bft) O-NO 57 0 min 0,000 mm 0,0 UV-I 0 W/m 7,6 C 8,8 C 4,8 km/h (1 Bft) 95,74 %
22.05.2017 03:14 8,8 C 20,0 C 92 % 1020,1 hPa 0,0 l/m 3,3 km/h (1 Bft) O-NO 57 0 min 0,000 mm 0,0 UV-I 0 W/m 7,6 C 8,8 C 4,8 km/h (1 Bft) 92,11 %
22.05.2017 03:16 8,8 C 20,0 C 92 % 1020,1 hPa 0,0 l/m 2,5 km/h (1 Bft) O-NO 57 0 min 0,000 mm 0,0 UV-I 0 W/m 7,6 C 8,8 C 4,8 km/h (1 Bft) 96,00 %
22.05.2017 03:18 8,8 C 20,0 C 92 % 1020,0 hPa 0,0 l/m 3,1 km/h (1 Bft) O-NO 57 0 min 0,000 mm 0,0 UV-I 0 W/m 7,6 C 8,8 C 4,8 km/h (1 Bft) 96,00 %
22.05.2017 03:20 8,9 C 20,0 C 92 % 1020,1 hPa 0,0 l/m 4,1 km/h (1 Bft) O-NO 57 0 min 0,000 mm 0,0 UV-I 0 W/m 7,7 C 8,9 C 4,8 km/h (1 Bft) 95,24 %
22.05.2017 03:22 9,0 C 20,0 C 92 % 1020,0 hPa 0,0 l/m 4,3 km/h (1 Bft) O-NO 57 0 min 0,000 mm 0,0 UV-I 0 W/m 7,8 C 9,0 C 6,4 km/h (2 Bft) 94,34 %
22.05.2017 03:24 9,1 C 20,0 C 92 % 1020,0 hPa 0,0 l/m 3,9 km/h (1 Bft) O-NO 57 0 min 0,000 mm 0,0 UV-I 0 W/m 7,9 C 9,1 C 4,8 km/h (1 Bft) 95,74 %
22.05.2017 03:26 9,2 C 20,0 C 92 % 1020,0 hPa 0,0 l/m 3,9 km/h (1 Bft) O-NO 57 0 min 0,000 mm 0,0 UV-I 0 W/m 8,0 C 9,2 C 4,8 km/h (1 Bft) 95,74 %
22.05.2017 03:28 9,3 C 20,0 C 91 % 1020,0 hPa 0,0 l/m 3,0 km/h (1 Bft) O-NO 57 0 min 0,000 mm 0,0 UV-I 0 W/m 7,9 C 9,3 C 4,8 km/h (1 Bft) 95,74 %
22.05.2017 03:30 9,3 C 20,0 C 91 % 1019,9 hPa 0,0 l/m 3,1 km/h (1 Bft) O-NO 57 0 min 0,000 mm 0,0 UV-I 0 W/m 7,9 C 9,3 C 4,8 km/h (1 Bft) 100,00 %
22.05.2017 03:32 9,3 C 20,0 C 90 % 1019,9 hPa 0,0 l/m 2,9 km/h (1 Bft) O-NO 57 0 min 0,000 mm 0,0 UV-I 0 W/m 7,7 C 9,3 C 4,8 km/h (1 Bft) 98,15 %
22.05.2017 03:34 9,3 C 20,0 C 90 % 1019,9 hPa 0,0 l/m 2,5 km/h (1 Bft) O-NO 57 0 min 0,000 mm 0,0 UV-I 0 W/m 7,7 C 9,3 C 4,8 km/h (1 Bft) 98,11 %
22.05.2017 03:36 9,3 C 20,0 C 90 % 1019,9 hPa 0,0 l/m 2,9 km/h (1 Bft) O-NO 57 0 min 0,000 mm 0,0 UV-I 0 W/m 7,7 C 9,3 C 3,2 km/h (1 Bft) 100,00 %
22.05.2017 03:38 9,2 C 20,0 C 90 % 1019,9 hPa 0,0 l/m 2,7 km/h (1 Bft) O-NO 57 0 min 0,000 mm 0,0 UV-I 0 W/m 7,6 C 9,2 C 3,2 km/h (1 Bft) 98,11 %
22.05.2017 03:40 9,2 C 20,0 C 90 % 1019,9 hPa 0,0 l/m 3,0 km/h (1 Bft) O-NO 57 0 min 0,000 mm 0,0 UV-I 0 W/m 7,6 C 9,2 C 4,8 km/h (1 Bft) 97,87 %
22.05.2017 03:42 9,2 C 20,0 C 90 % 1019,8 hPa 0,0 l/m 3,1 km/h (1 Bft) O-NO 57 0 min 0,000 mm 0,0 UV-I 0 W/m 7,6 C 9,2 C 4,8 km/h (1 Bft) 98,00 %
22.05.2017 03:44 9,2 C 20,0 C 91 % 1019,9 hPa 0,0 l/m 3,3 km/h (1 Bft) O-NO 57 0 min 0,000 mm 0,0 UV-I 0 W/m 7,8 C 9,2 C 4,8 km/h (1 Bft) 97,87 %
22.05.2017 03:46 9,2 C 20,0 C 91 % 1019,9 hPa 0,0 l/m 2,8 km/h (1 Bft) O-NO 57 0 min 0,000 mm 0,0 UV-I 0 W/m 7,8 C 9,2 C 4,8 km/h (1 Bft) 100,00 %
22.05.2017 03:48 9,2 C 20,0 C 91 % 1019,8 hPa 0,0 l/m 4,0 km/h (1 Bft) O-NO 57 0 min 0,000 mm 0,0 UV-I 0 W/m 7,8 C 9,2 C 6,4 km/h (2 Bft) 96,43 %
22.05.2017 03:50 9,3 C 20,0 C 91 % 1019,8 hPa 0,0 l/m 4,1 km/h (1 Bft) O-NO 57 0 min 0,000 mm 0,0 UV-I 0 W/m 7,9 C 9,3 C 4,8 km/h (1 Bft) 97,87 %
22.05.2017 03:52 9,3 C 20,0 C 91 % 1019,8 hPa 0,0 l/m 4,4 km/h (1 Bft) O-NO 57 0 min 0,000 mm 0,0 UV-I 0 W/m 7,9 C 9,3 C 6,4 km/h (2 Bft) 96,23 %
22.05.2017 03:54 9,2 C 20,0 C 90 % 1019,8 hPa 0,0 l/m 4,6 km/h (1 Bft) O-NO 57 0 min 0,000 mm 0,0 UV-I 0 W/m 7,6 C 9,2 C 4,8 km/h (1 Bft) 97,37 %
22.05.2017 03:56 9,2 C 20,0 C 91 % 1019,8 hPa 0,0 l/m 4,6 km/h (1 Bft) O-NO 57 0 min 0,000 mm 0,0 UV-I 0 W/m 7,8 C 9,2 C 6,4 km/h (2 Bft) 100,00 %
22.05.2017 03:58 9,2 C 20,0 C 91 % 1019,7 hPa 0,0 l/m 4,2 km/h (1 Bft) O-NO 57 0 min 0,000 mm 0,0 UV-I 0 W/m 7,8 C 9,2 C 4,8 km/h (1 Bft) 96,00 %
22.05.2017 04:00 9,2 C 20,0 C 91 % 1019,7 hPa 0,0 l/m 4,3 km/h (1 Bft) O-NO 57 0 min 0,000 mm 0,0 UV-I 0 W/m 7,8 C 9,2 C 6,4 km/h (2 Bft) 100,00 %
22.05.2017 04:02 9,2 C 20,0 C 91 % 1019,7 hPa 0,0 l/m 4,8 km/h (1 Bft) O-NO 57 0 min 0,000 mm 0,0 UV-I 0 W/m 7,8 C 9,2 C 6,4 km/h (2 Bft) 96,43 %
22.05.2017 04:04 9,2 C 20,0 C 91 % 1019,7 hPa 0,0 l/m 4,0 km/h (1 Bft) O-NO 57 0 min 0,000 mm 0,0 UV-I 0 W/m 7,8 C 9,2 C 4,8 km/h (1 Bft) 95,74 %
22.05.2017 04:06 9,2 C 20,0 C 91 % 1019,6 hPa 0,0 l/m 4,4 km/h (1 Bft) O-NO 57 0 min 0,000 mm 0,0 UV-I 0 W/m 7,8 C 9,2 C 6,4 km/h (2 Bft) 97,73 %
22.05.2017 04:08 9,2 C 20,0 C 91 % 1019,6 hPa 0,0 l/m 3,7 km/h (1 Bft) O-NO 57 0 min 0,000 mm 0,0 UV-I 0 W/m 7,8 C 9,2 C 6,4 km/h (2 Bft) 96,23 %
22.05.2017 04:10 9,2 C 20,0 C 91 % 1019,6 hPa 0,0 l/m 5,1 km/h (1 Bft) O-NO 57 0 min 0,000 mm 0,0 UV-I 0 W/m 7,8 C 9,2 C 8,0 km/h (2 Bft) 97,37 %
22.05.2017 04:12 9,2 C 20,0 C 91 % 1019,6 hPa 0,0 l/m 4,1 km/h (1 Bft) O-NO 57 0 min 0,000 mm 0,0 UV-I 0 W/m 7,8 C 9,2 C 4,8 km/h (1 Bft) 98,00 %
22.05.2017 04:14 9,2 C 20,0 C 91 % 1019,6 hPa 0,0 l/m 5,4 km/h (1 Bft) O-NO 57 0 min 0,000 mm 0,0 UV-I 0 W/m 7,8 C 9,2 C 6,4 km/h (2 Bft) 97,73 %
22.05.2017 04:16 9,2 C 20,0 C 91 % 1019,5 hPa 0,0 l/m 4,4 km/h (1 Bft) O-NO 57 0 min 0,000 mm 0,0 UV-I 0 W/m 7,8 C 9,2 C 6,4 km/h (2 Bft) 100,00 %
22.05.2017 04:18 9,1 C 20,0 C 91 % 1019,5 hPa 0,0 l/m 3,4 km/h (1 Bft) O-NO 57 0 min 0,000 mm 0,0 UV-I 0 W/m 7,7 C 9,1 C 4,8 km/h (1 Bft) 98,00 %
22.05.2017 04:20 9,1 C 20,0 C 91 % 1019,5 hPa 0,0 l/m 3,6 km/h (1 Bft) O-NO 57 0 min 0,000 mm 0,0 UV-I 0 W/m 7,7 C 9,1 C 4,8 km/h (1 Bft) 97,14 %
22.05.2017 04:22 9,1 C 20,0 C 92 % 1019,5 hPa 0,0 l/m 3,5 km/h (1 Bft) O-NO 57 0 min 0,000 mm 0,0 UV-I 0 W/m 7,9 C 9,1 C 4,8 km/h (1 Bft) 93,62 %
22.05.2017 04:24 9,1 C 20,0 C 92 % 1019,4 hPa 0,0 l/m 3,5 km/h (1 Bft) O-NO 57 0 min 0,000 mm 0,0 UV-I 0 W/m 7,9 C 9,1 C 4,8 km/h (1 Bft) 98,00 %
22.05.2017 04:26 9,1 C 20,0 C 92 % 1019,4 hPa 0,0 l/m 3,7 km/h (1 Bft) O-NO 57 0 min 0,000 mm 0,0 UV-I 0 W/m 7,9 C 9,1 C 4,8 km/h (1 Bft) 100,00 %
22.05.2017 04:28 8,9 C 20,0 C 91 % 1019,4 hPa 0,0 l/m 3,5 km/h (1 Bft) O-NO 57 0 min 0,000 mm 0,0 UV-I 0 W/m 7,5 C 8,9 C 4,8 km/h (1 Bft) 94,00 %
22.05.2017 04:30 8,8 C 20,0 C 91 % 1019,4 hPa 0,0 l/m 2,3 km/h (1 Bft) O-NO 57 0 min 0,000 mm 0,0 UV-I 0 W/m 7,4 C 8,8 C 3,2 km/h (1 Bft) 96,30 %
22.05.2017 04:32 8,7 C 20,0 C 92 % 1019,4 hPa 0,0 l/m 3,5 km/h (1 Bft) O-NO 57 0 min 0,000 mm 0,0 UV-I 0 W/m 7,5 C 8,7 C 4,8 km/h (1 Bft) 95,08 %
22.05.2017 04:34 8,6 C 20,0 C 92 % 1019,4 hPa 0,0 l/m 2,9 km/h (1 Bft) O-NO 57 0 min 0,000 mm 0,0 UV-I 0 W/m 7,4 C 8,6 C 4,8 km/h (1 Bft) 91,49 %
22.05.2017 04:36 8,6 C 20,0 C 92 % 1019,4 hPa 0,0 l/m 2,5 km/h (1 Bft) O-NO 57 0 min 0,000 mm 0,0 UV-I 0 W/m 7,4 C 8,6 C 3,2 km/h (1 Bft) 95,74 %
22.05.2017 04:38 8,6 C 20,0 C 92 % 1019,4 hPa 0,0 l/m 1,7 km/h (1 Bft) O-NO 57 0 min 0,000 mm 0,0 UV-I 0 W/m 7,4 C 8,6 C 3,2 km/h (1 Bft) 93,75 %
22.05.2017 04:40 8,6 C 20,0 C 92 % 1019,4 hPa 0,0 l/m 1,7 km/h (1 Bft) O-NO 57 0 min 0,000 mm 0,0 UV-I 0 W/m 7,4 C 8,6 C 3,2 km/h (1 Bft) 93,62 %
22.05.2017 04:42 8,7 C 20,0 C 93 % 1019,3 hPa 0,0 l/m 1,8 km/h (1 Bft) O-NO 57 0 min 0,000 mm 0,0 UV-I 0 W/m 7,6 C 8,7 C 4,8 km/h (1 Bft) 96,00 %
22.05.2017 04:44 8,7 C 20,0 C 93 % 1019,3 hPa 0,0 l/m 2,6 km/h (1 Bft) NO 56 0 min 0,000 mm 0,0 UV-I 0 W/m 7,6 C 8,7 C 4,8 km/h (1 Bft) 95,74 %
22.05.2017 04:46 8,7 C 20,0 C 92 % 1019,4 hPa 0,0 l/m 0,7 km/h (0 Bft) NO 56 0 min 0,000 mm 0,0 UV-I 0 W/m 7,5 C 8,7 C 1,6 km/h (1 Bft) 96,00 %
22.05.2017 04:48 8,7 C 20,0 C 92 % 1019,4 hPa 0,0 l/m 1,1 km/h (1 Bft) NO 56 0 min 0,000 mm 0,0 UV-I 0 W/m 7,5 C 8,7 C 1,6 km/h (1 Bft) 97,14 %
22.05.2017 04:50 8,7 C 20,0 C 92 % 1019,4 hPa 0,0 l/m 1,4 km/h (1 Bft) NO 56 0 min 0,000 mm 0,0 UV-I 0 W/m 7,5 C 8,7 C 3,2 km/h (1 Bft) 96,00 %
22.05.2017 04:52 8,7 C 20,0 C 92 % 1019,4 hPa 0,0 l/m 2,3 km/h (1 Bft) NO 56 0 min 0,000 mm 0,0 UV-I 0 W/m 7,5 C 8,7 C 3,2 km/h (1 Bft) 95,74 %
22.05.2017 04:54 8,7 C 20,0 C 92 % 1019,3 hPa 0,0 l/m 3,1 km/h (1 Bft) NO 56 0 min 0,000 mm 0,0 UV-I 0 W/m 7,5 C 8,7 C 4,8 km/h (1 Bft) 98,00 %
22.05.2017 04:56 8,7 C 20,0 C 92 % 1019,3 hPa 0,0 l/m 2,9 km/h (1 Bft) NO 56 0 min 0,000 mm 0,0 UV-I 0 W/m 7,5 C 8,7 C 3,2 km/h (1 Bft) 95,74 %
22.05.2017 04:58 8,7 C 20,0 C 93 % 1019,3 hPa 0,0 l/m 4,0 km/h (1 Bft) NO 56 0 min 0,000 mm 0,0 UV-I 0 W/m 7,6 C 8,7 C 6,4 km/h (2 Bft) 96,00 %
22.05.2017 05:00 8,8 C 20,0 C 93 % 1019,2 hPa 0,0 l/m 4,0 km/h (1 Bft) NO 56 0 min 0,000 mm 0,0 UV-I 0 W/m 7,7 C 8,8 C 4,8 km/h (1 Bft) 93,62 %
22.05.2017 05:02 8,8 C 20,0 C 92 % 1019,2 hPa 0,0 l/m 3,7 km/h (1 Bft) NO 56 0 min 0,000 mm 0,0 UV-I 2 W/m 7,6 C 8,8 C 4,8 km/h (1 Bft) 97,14 %
22.05.2017 05:04 8,6 C 20,0 C 92 % 1019,2 hPa 0,0 l/m 3,1 km/h (1 Bft) NO 56 0 min 0,000 mm 0,0 UV-I 5 W/m 7,4 C 8,6 C 4,8 km/h (1 Bft) 98,11 %
22.05.2017 05:06 8,5 C 20,0 C 92 % 1019,2 hPa 0,0 l/m 1,9 km/h (1 Bft) NO 56 0 min 0,000 mm 0,0 UV-I 5 W/m 7,3 C 8,5 C 3,2 km/h (1 Bft) 100,00 %
22.05.2017 05:08 8,4 C 20,0 C 92 % 1019,3 hPa 0,0 l/m 2,2 km/h (1 Bft) NO 56 0 min 0,000 mm 0,0 UV-I 5 W/m 7,2 C 8,4 C 3,2 km/h (1 Bft) 97,87 %
22.05.2017 05:10 8,4 C 20,0 C 92 % 1019,2 hPa 0,0 l/m 2,4 km/h (1 Bft) NO 56 0 min 0,000 mm 0,0 UV-I 6 W/m 7,2 C 8,4 C 4,8 km/h (1 Bft) 97,56 %
22.05.2017 05:12 8,4 C 20,0 C 93 % 1019,2 hPa 0,0 l/m 0,5 km/h (0 Bft) NO 56 0 min 0,000 mm 0,0 UV-I 7 W/m 7,3 C 8,4 C 1,6 km/h (1 Bft) 98,00 %
22.05.2017 05:14 8,4 C 20,0 C 93 % 1019,2 hPa 0,0 l/m 0,8 km/h (0 Bft) NO 56 0 min 0,000 mm 0,0 UV-I 7 W/m 7,3 C 8,4 C 3,2 km/h (1 Bft) 100,00 %
22.05.2017 05:16 8,4 C 20,0 C 93 % 1019,2 hPa 0,0 l/m 1,6 km/h (1 Bft) NO 56 0 min 0,000 mm 0,0 UV-I 9 W/m 7,3 C 8,4 C 3,2 km/h (1 Bft) 98,00 %
22.05.2017 05:18 8,4 C 20,0 C 93 % 1019,2 hPa 0,0 l/m 2,1 km/h (1 Bft) NO 56 0 min 0,000 mm 0,0 UV-I 9 W/m 7,3 C 8,4 C 3,2 km/h (1 Bft) 100,00 %
22.05.2017 05:20 8,2 C 20,0 C 93 % 1019,2 hPa 0,0 l/m 3,6 km/h (1 Bft) NO 56 0 min 0,000 mm 0,0 UV-I 11 W/m 7,1 C 8,2 C 4,8 km/h (1 Bft) 95,74 %
22.05.2017 05:22 8,2 C 20,0 C 93 % 1019,2 hPa 0,0 l/m 3,1 km/h (1 Bft) NO 56 0 min 0,000 mm 0,0 UV-I 11 W/m 7,1 C 8,2 C 4,8 km/h (1 Bft) 100,00 %
22.05.2017 05:24 8,2 C 20,0 C 93 % 1019,3 hPa 0,0 l/m 4,1 km/h (1 Bft) NO 56 0 min 0,000 mm 0,0 UV-I 12 W/m 7,1 C 8,2 C 6,4 km/h (2 Bft) 97,87 %
22.05.2017 05:26 8,2 C 20,0 C 94 % 1019,2 hPa 0,0 l/m 3,8 km/h (1 Bft) NO 56 0 min 0,000 mm 0,0 UV-I 12 W/m 7,3 C 8,2 C 4,8 km/h (1 Bft) 98,00 %
22.05.2017 05:28 8,3 C 20,0 C 94 % 1019,3 hPa 0,0 l/m 3,5 km/h (1 Bft) NO 56 0 min 0,000 mm 0,0 UV-I 14 W/m 7,4 C 8,3 C 4,8 km/h (1 Bft) 100,00 %
22.05.2017 05:30 8,5 C 20,0 C 94 % 1019,2 hPa 0,0 l/m 4,9 km/h (1 Bft) NO 56 2 min 0,000 mm 0,0 UV-I 15 W/m 7,6 C 8,5 C 6,4 km/h (2 Bft) 98,00 %
22.05.2017 05:32 8,6 C 20,0 C 94 % 1019,2 hPa 0,0 l/m 4,9 km/h (1 Bft) O-NO 57 2 min 0,000 mm 0,0 UV-I 17 W/m 7,7 C 8,6 C 8,0 km/h (2 Bft) 98,00 %
22.05.2017 05:34 8,6 C 20,0 C 94 % 1019,2 hPa 0,0 l/m 4,8 km/h (1 Bft) O-NO 59 2 min 0,000 mm 0,0 UV-I 20 W/m 7,7 C 8,6 C 6,4 km/h (2 Bft) 97,37 %
22.05.2017 05:36 8,6 C 20,0 C 94 % 1019,2 hPa 0,0 l/m 4,7 km/h (1 Bft) O-NO 59 2 min 0,000 mm 0,0 UV-I 23 W/m 7,7 C 8,6 C 6,4 km/h (2 Bft) 98,00 %
22.05.2017 05:38 8,7 C 20,0 C 94 % 1019,2 hPa 0,0 l/m 4,8 km/h (1 Bft) O-NO 63 2 min 0,000 mm 0,0 UV-I 27 W/m 7,8 C 8,7 C 6,4 km/h (2 Bft) 98,11 %
22.05.2017 05:40 8,7 C 20,0 C 94 % 1019,2 hPa 0,0 l/m 4,4 km/h (1 Bft) O 80 2 min 0,000 mm 0,0 UV-I 31 W/m 7,8 C 8,7 C 8,0 km/h (2 Bft) 97,56 %
22.05.2017 05:42 8,7 C 20,0 C 94 % 1019,2 hPa 0,0 l/m 6,0 km/h (2 Bft) O-NO 61 2 min 0,000 mm 0,0 UV-I 34 W/m 7,8 C 8,7 C 9,7 km/h (2 Bft) 100,00 %
22.05.2017 05:44 8,8 C 19,4 C 94 % 1019,1 hPa 0,0 l/m 5,0 km/h (1 Bft) O-NO 76 2 min 0,000 mm 0,0 UV-I 36 W/m 7,9 C 8,8 C 8,0 km/h (2 Bft) 97,56 %
22.05.2017 05:46 8,9 C 19,4 C 94 % 1019,1 hPa 0,0 l/m 4,7 km/h (1 Bft) O-NO 69 2 min 0,000 mm 0,0 UV-I 40 W/m 8,0 C 8,9 C 6,4 km/h (2 Bft) 97,87 %
22.05.2017 05:48 8,9 C 19,4 C 94 % 1019,2 hPa 0,0 l/m 4,5 km/h (1 Bft) O-NO 77 2 min 0,000 mm 0,0 UV-I 41 W/m 8,0 C 8,9 C 6,4 km/h (2 Bft) 96,00 %
22.05.2017 05:50 8,9 C 19,4 C 94 % 1019,2 hPa 0,0 l/m 3,5 km/h (1 Bft) O-NO 77 2 min 0,000 mm 0,0 UV-I 43 W/m 8,0 C 8,9 C 6,4 km/h (2 Bft) 97,87 %
22.05.2017 05:52 9,0 C 19,4 C 94 % 1019,2 hPa 0,0 l/m 4,0 km/h (1 Bft) O-NO 78 2 min 0,000 mm 0,0 UV-I 49 W/m 8,1 C 9,0 C 6,4 km/h (2 Bft) 91,67 %
22.05.2017 05:54 9,0 C 19,4 C 94 % 1019,1 hPa 0,0 l/m 4,9 km/h (1 Bft) O 89 2 min 0,000 mm 0,0 UV-I 52 W/m 8,1 C 9,0 C 8,0 km/h (2 Bft) 98,44 %
22.05.2017 05:56 9,1 C 19,4 C 94 % 1019,2 hPa 0,0 l/m 4,8 km/h (1 Bft) O-NO 68 0 min 0,000 mm 0,0 UV-I 41 W/m 8,2 C 9,1 C 8,0 km/h (2 Bft) 94,44 %
22.05.2017 05:58 9,1 C 19,4 C 94 % 1019,1 hPa 0,0 l/m 5,0 km/h (1 Bft) O-SO 104 0 min 0,000 mm 0,0 UV-I 35 W/m 8,2 C 9,1 C 8,0 km/h (2 Bft) 97,37 %
22.05.2017 06:00 9,1 C 19,4 C 94 % 1019,2 hPa 0,0 l/m 6,8 km/h (2 Bft) O-NO 71 0 min 0,025 mm 0,0 UV-I 49 W/m 8,2 C 8,8 C 12,9 km/h (3 Bft) 94,64 %
22.05.2017 06:02 9,1 C 19,4 C 94 % 1019,1 hPa 0,0 l/m 4,7 km/h (1 Bft) O-NO 78 2 min 0,000 mm 0,0 UV-I 63 W/m 8,2 C 9,1 C 8,0 km/h (2 Bft) 94,74 %
22.05.2017 06:04 9,2 C 19,4 C 94 % 1019,2 hPa 0,0 l/m 5,4 km/h (1 Bft) O-NO 71 2 min 0,000 mm 0,0 UV-I 64 W/m 8,3 C 9,2 C 8,0 km/h (2 Bft) 96,43 %
22.05.2017 06:06 9,1 C 19,4 C 94 % 1019,1 hPa 0,0 l/m 6,4 km/h (2 Bft) O-NO 63 2 min 0,000 mm 0,0 UV-I 69 W/m 8,2 C 9,1 C 8,0 km/h (2 Bft) 94,74 %
22.05.2017 06:08 9,2 C 19,4 C 94 % 1019,2 hPa 0,0 l/m 3,0 km/h (1 Bft) O-NO 72 2 min 0,000 mm 0,0 UV-I 67 W/m 8,3 C 9,2 C 4,8 km/h (1 Bft) 96,23 %
22.05.2017 06:10 9,2 C 19,4 C 94 % 1019,1 hPa 0,0 l/m 2,3 km/h (1 Bft) O-NO 72 0 min 0,000 mm 0,0 UV-I 55 W/m 8,3 C 9,2 C 4,8 km/h (1 Bft) 97,87 %
22.05.2017 06:12 9,2 C 19,4 C 94 % 1019,1 hPa 0,0 l/m 2,0 km/h (1 Bft) O-NO 72 0 min 0,000 mm 0,0 UV-I 41 W/m 8,3 C 9,2 C 6,4 km/h (2 Bft) 96,00 %
22.05.2017 06:14 9,2 C 19,4 C 94 % 1019,2 hPa 0,0 l/m 5,6 km/h (1 Bft) O-NO 59 0 min 0,000 mm 0,0 UV-I 40 W/m 8,3 C 9,2 C 9,7 km/h (2 Bft) 95,74 %
22.05.2017 06:16 9,2 C 19,4 C 94 % 1019,1 hPa 0,0 l/m 6,9 km/h (2 Bft) NO 56 0 min 0,000 mm 0,0 UV-I 44 W/m 8,3 C 8,8 C 9,7 km/h (2 Bft) 97,56 %
22.05.2017 06:19 9,2 C 19,4 C 94 % 1019,1 hPa 0,0 l/m 7,9 km/h (2 Bft) O-NO 63 0 min 0,000 mm 0,0 UV-I 77 W/m 8,3 C 8,1 C 12,9 km/h (3 Bft) 97,06 %
22.05.2017 06:20 9,3 C 19,4 C 94 % 1019,1 hPa 0,0 l/m 6,6 km/h (2 Bft) O-NO 70 1 min 0,000 mm 0,0 UV-I 97 W/m 8,4 C 9,2 C 12,9 km/h (3 Bft) 96,15 %
22.05.2017 06:22 9,3 C 19,4 C 94 % 1019,0 hPa 0,0 l/m 6,4 km/h (2 Bft) O-NO 65 2 min 0,000 mm 0,0 UV-I 92 W/m 8,4 C 9,3 C 12,9 km/h (3 Bft) 93,62 %
22.05.2017 06:24 9,3 C 19,4 C 94 % 1019,0 hPa 0,0 l/m 6,0 km/h (2 Bft) O 88 2 min 0,000 mm 0,0 UV-I 89 W/m 8,4 C 9,3 C 12,9 km/h (3 Bft) 96,00 %
22.05.2017 06:26 9,3 C 19,4 C 94 % 1019,0 hPa 0,0 l/m 7,2 km/h (2 Bft) O-NO 71 2 min 0,000 mm 0,0 UV-I 98 W/m 8,4 C 8,7 C 9,7 km/h (2 Bft) 92,11 %
22.05.2017 06:28 9,4 C 19,4 C 94 % 1019,1 hPa 0,0 l/m 7,4 km/h (2 Bft) NO 49 0 min 0,000 mm 0,0 UV-I 91 W/m 8,5 C 8,7 C 9,7 km/h (2 Bft) 94,92 %
22.05.2017 06:30 9,4 C 19,4 C 94 % 1019,0 hPa 0,0 l/m 7,3 km/h (2 Bft) O-NO 74 2 min 0,000 mm 0,0 UV-I 108 W/m 8,5 C 8,7 C 11,3 km/h (2 Bft) 97,73 %
22.05.2017 06:32 9,5 C 19,4 C 94 % 1019,0 hPa 0,0 l/m 7,5 km/h (2 Bft) O-NO 62 2 min 0,000 mm 0,0 UV-I 124 W/m 8,6 C 8,7 C 12,9 km/h (3 Bft) 97,44 %
22.05.2017 06:34 9,6 C 19,4 C 94 % 1019,0 hPa 0,0 l/m 9,4 km/h (2 Bft) O-NO 71 2 min 0,000 mm 0,0 UV-I 124 W/m 8,7 C 7,5 C 14,5 km/h (3 Bft) 87,27 %
22.05.2017 06:36 9,6 C 19,4 C 94 % 1019,0 hPa 0,0 l/m 10,2 km/h (2 Bft) O-NO 64 2 min 0,000 mm 0,0 UV-I 133 W/m 8,7 C 7,0 C 16,1 km/h (3 Bft) 97,87 %
22.05.2017 06:39 9,7 C 19,4 C 94 % 1019,0 hPa 0,0 l/m 8,0 km/h (2 Bft) O-NO 63 3 min 0,000 mm 0,0 UV-I 138 W/m 8,8 C 8,5 C 14,5 km/h (3 Bft) 95,38 %
22.05.2017 06:40 9,7 C 19,4 C 94 % 1019,0 hPa 0,0 l/m 7,4 km/h (2 Bft) O 82 1 min 0,000 mm 0,0 UV-I 138 W/m 8,8 C 9,0 C 11,3 km/h (2 Bft) 95,83 %
22.05.2017 06:42 9,8 C 19,4 C 94 % 1019,0 hPa 0,0 l/m 8,7 km/h (2 Bft) O-NO 64 2 min 0,000 mm 0,0 UV-I 134 W/m 8,9 C 8,2 C 12,9 km/h (3 Bft) 93,18 %
22.05.2017 06:44 9,8 C 19,4 C 94 % 1019,1 hPa 0,0 l/m 8,4 km/h (2 Bft) O-NO 78 2 min 0,000 mm 0,0 UV-I 141 W/m 8,9 C 8,4 C 16,1 km/h (3 Bft) 96,23 %
22.05.2017 06:46 9,9 C 19,4 C 93 % 1019,1 hPa 0,0 l/m 9,0 km/h (2 Bft) O-NO 70 2 min 0,000 mm 0,0 UV-I 148 W/m 8,8 C 8,1 C 14,5 km/h (3 Bft) 95,12 %
22.05.2017 06:48 9,9 C 19,4 C 93 % 1019,0 hPa 0,0 l/m 9,5 km/h (2 Bft) O-NO 75 2 min 0,000 mm 0,0 UV-I 150 W/m 8,8 C 7,8 C 14,5 km/h (3 Bft) 98,00 %
22.05.2017 06:50 10,0 C 19,4 C 93 % 1019,0 hPa 0,0 l/m 8,4 km/h (2 Bft) O-NO 67 2 min 0,000 mm 0,0 UV-I 160 W/m 8,9 C 8,6 C 12,9 km/h (3 Bft) 89,36 %
22.05.2017 06:52 10,0 C 19,4 C 93 % 1019,0 hPa 0,0 l/m 10,4 km/h (2 Bft) O-NO 69 2 min 0,000 mm 0,0 UV-I 165 W/m 8,9 C 7,4 C 14,5 km/h (3 Bft) 94,34 %
22.05.2017 06:54 10,1 C 19,4 C 93 % 1019,0 hPa 0,0 l/m 9,9 km/h (2 Bft) O-NO 67 2 min 0,000 mm 0,0 UV-I 165 W/m 9,0 C 7,8 C 14,5 km/h (3 Bft) 93,62 %
22.05.2017 06:56 10,1 C 19,4 C 93 % 1019,0 hPa 0,0 l/m 9,1 km/h (2 Bft) O-NO 66 2 min 0,000 mm 0,0 UV-I 174 W/m 9,0 C 8,2 C 12,9 km/h (3 Bft) 97,37 %
22.05.2017 06:58 10,1 C 19,4 C 93 % 1019,0 hPa 0,0 l/m 8,6 km/h (2 Bft) O-NO 74 2 min 0,000 mm 0,0 UV-I 180 W/m 9,0 C 8,6 C 12,9 km/h (3 Bft) 91,43 %
22.05.2017 07:00 10,2 C 19,4 C 92 % 1019,0 hPa 0,0 l/m 7,2 km/h (2 Bft) NO 53 2 min 0,051 mm 0,0 UV-I 183 W/m 9,0 C 9,6 C 11,3 km/h (2 Bft) 94,64 %
22.05.2017 07:02 10,2 C 19,4 C 93 % 1019,0 hPa 0,0 l/m 8,5 km/h (2 Bft) O-NO 59 2 min 0,000 mm 0,0 UV-I 189 W/m 9,1 C 8,7 C 11,3 km/h (2 Bft) 98,11 %
22.05.2017 07:04 10,3 C 19,4 C 92 % 1019,0 hPa 0,0 l/m 7,7 km/h (2 Bft) O-NO 65 2 min 0,000 mm 0,0 UV-I 197 W/m 9,1 C 9,4 C 11,3 km/h (2 Bft) 93,62 %
22.05.2017 07:06 10,4 C 19,4 C 92 % 1019,0 hPa 0,0 l/m 6,3 km/h (2 Bft) O-NO 67 2 min 0,000 mm 0,0 UV-I 203 W/m 9,2 C 10,4 C 9,7 km/h (2 Bft) 92,11 %
22.05.2017 07:08 10,4 C 19,4 C 92 % 1019,0 hPa 0,0 l/m 8,0 km/h (2 Bft) O-NO 70 2 min 0,000 mm 0,0 UV-I 212 W/m 9,2 C 9,3 C 12,9 km/h (3 Bft) 96,43 %
22.05.2017 07:10 10,5 C 19,4 C 92 % 1019,0 hPa 0,0 l/m 7,4 km/h (2 Bft) O-NO 59 2 min 0,000 mm 0,0 UV-I 218 W/m 9,3 C 9,8 C 11,3 km/h (2 Bft) 96,00 %
22.05.2017 07:12 10,6 C 19,4 C 92 % 1018,9 hPa 0,0 l/m 6,4 km/h (2 Bft) NO 51 2 min 0,000 mm 0,0 UV-I 225 W/m 9,4 C 10,6 C 8,0 km/h (2 Bft) 97,73 %
22.05.2017 07:14 10,6 C 19,4 C 92 % 1018,9 hPa 0,0 l/m 5,5 km/h (1 Bft) NO 38 2 min 0,000 mm 0,0 UV-I 232 W/m 9,4 C 10,6 C 9,7 km/h (2 Bft) 94,00 %
22.05.2017 07:16 10,7 C 19,4 C 92 % 1018,9 hPa 0,0 l/m 8,5 km/h (2 Bft) NO 40 2 min 0,000 mm 0,0 UV-I 237 W/m 9,5 C 9,3 C 11,3 km/h (2 Bft) 97,62 %
22.05.2017 07:19 10,8 C 19,4 C 92 % 1018,9 hPa 0,0 l/m 6,0 km/h (2 Bft) NO 56 3 min 0,000 mm 0,0 UV-I 241 W/m 9,6 C 10,8 C 11,3 km/h (2 Bft) 100,00 %
22.05.2017 07:20 10,8 C 19,4 C 92 % 1018,9 hPa 0,0 l/m 5,7 km/h (1 Bft) NO 42 1 min 0,000 mm 0,0 UV-I 250 W/m 9,6 C 10,8 C 8,0 km/h (2 Bft) 100,00 %
22.05.2017 07:22 10,8 C 19,4 C 92 % 1018,9 hPa 0,0 l/m 5,4 km/h (1 Bft) O-NO 58 2 min 0,000 mm 0,0 UV-I 254 W/m 9,6 C 10,8 C 8,0 km/h (2 Bft) 97,37 %
22.05.2017 07:24 10,9 C 19,4 C 91 % 1018,9 hPa 0,0 l/m 5,3 km/h (1 Bft) NO 36 2 min 0,000 mm 0,2 UV-I 259 W/m 9,5 C 10,9 C 8,0 km/h (2 Bft) 96,08 %
22.05.2017 07:26 10,9 C 19,4 C 91 % 1018,9 hPa 0,0 l/m 7,0 km/h (2 Bft) NO 55 2 min 0,000 mm 0,5 UV-I 262 W/m 9,5 C 10,5 C 9,7 km/h (2 Bft) 97,56 %
22.05.2017 07:29 11,0 C 19,4 C 90 % 1018,9 hPa 0,0 l/m 8,0 km/h (2 Bft) NO 37 3 min 0,000 mm 0,5 UV-I 272 W/m 9,4 C 9,9 C 16,1 km/h (3 Bft) 97,56 %
22.05.2017 07:30 11,0 C 19,4 C 90 % 1018,9 hPa 0,0 l/m 6,8 km/h (2 Bft) O-NO 59 1 min 0,000 mm 0,5 UV-I 280 W/m 9,4 C 10,7 C 8,0 km/h (2 Bft) 100,00 %
22.05.2017 07:32 11,1 C 19,4 C 91 % 1018,9 hPa 0,0 l/m 8,2 km/h (2 Bft) O 83 2 min 0,000 mm 0,5 UV-I 285 W/m 9,7 C 9,9 C 12,9 km/h (3 Bft) 98,11 %
22.05.2017 07:34 11,2 C 19,4 C 90 % 1018,8 hPa 0,0 l/m 6,9 km/h (2 Bft) NO 55 2 min 0,000 mm 0,5 UV-I 292 W/m 9,6 C 10,9 C 11,3 km/h (2 Bft) 94,00 %
22.05.2017 07:37 11,3 C 19,4 C 90 % 1018,8 hPa 0,0 l/m 8,0 km/h (2 Bft) O-NO 66 3 min 0,000 mm 0,6 UV-I 298 W/m 9,7 C 10,2 C 12,9 km/h (3 Bft) 98,63 %
22.05.2017 07:38 11,4 C 19,4 C 90 % 1018,8 hPa 0,0 l/m 5,8 km/h (2 Bft) O-NO 58 1 min 0,000 mm 0,6 UV-I 305 W/m 9,8 C 11,4 C 8,0 km/h (2 Bft) 93,33 %
22.05.2017 07:40 11,4 C 19,4 C 90 % 1018,9 hPa 0,0 l/m 5,8 km/h (2 Bft) O-NO 65 2 min 0,000 mm 0,6 UV-I 308 W/m 9,8 C 11,4 C 8,0 km/h (2 Bft) 98,11 %
22.05.2017 07:42 11,6 C 19,4 C 90 % 1018,9 hPa 0,0 l/m 6,3 km/h (2 Bft) NO 55 2 min 0,000 mm 0,6 UV-I 315 W/m 10,0 C 11,6 C 8,0 km/h (2 Bft) 97,44 %
22.05.2017 07:44 11,7 C 19,4 C 90 % 1018,9 hPa 0,0 l/m 7,2 km/h (2 Bft) NO 40 2 min 0,000 mm 0,6 UV-I 322 W/m 10,1 C 11,2 C 9,7 km/h (2 Bft) 97,73 %
22.05.2017 07:46 11,8 C 19,4 C 89 % 1018,9 hPa 0,0 l/m 8,7 km/h (2 Bft) O-NO 61 2 min 0,000 mm 0,7 UV-I 328 W/m 10,0 C 10,3 C 14,5 km/h (3 Bft) 98,21 %
22.05.2017 07:49 11,9 C 19,4 C 88 % 1018,9 hPa 0,0 l/m 8,1 km/h (2 Bft) O-NO 62 3 min 0,000 mm 0,7 UV-I 302 W/m 10,0 C 10,8 C 16,1 km/h (3 Bft) 100,00 %
22.05.2017 07:50 11,9 C 19,4 C 88 % 1018,9 hPa 0,0 l/m 10,3 km/h (2 Bft) NO 42 1 min 0,000 mm 0,7 UV-I 330 W/m 10,0 C 9,5 C 14,5 km/h (3 Bft) 100,00 %
22.05.2017 07:54 12,0 C 19,4 C 88 % 1018,9 hPa 0,0 l/m 10,0 km/h (2 Bft) NO 50 4 min 0,000 mm 0,7 UV-I 349 W/m 10,1 C 9,8 C 16,1 km/h (3 Bft) 98,88 %
22.05.2017 07:56 12,1 C 19,4 C 87 % 1018,9 hPa 0,0 l/m 8,3 km/h (2 Bft) O-NO 59 2 min 0,000 mm 0,8 UV-I 358 W/m 10,0 C 10,9 C 14,5 km/h (3 Bft) 98,11 %
22.05.2017 07:59 12,2 C 19,4 C 87 % 1018,9 hPa 0,0 l/m 10,1 km/h (2 Bft) NO 44 3 min 0,000 mm 0,8 UV-I 366 W/m 10,1 C 10,0 C 16,1 km/h (3 Bft) 98,68 %
22.05.2017 08:00 12,3 C 19,4 C 88 % 1018,9 hPa 0,0 l/m 12,5 km/h (3 Bft) NO 40 1 min 0,153 mm 0,8 UV-I 373 W/m 10,4 C 8,9 C 14,5 km/h (3 Bft) 100,00 %
22.05.2017 08:02 12,4 C 19,4 C 88 % 1018,9 hPa 0,0 l/m 11,5 km/h (2 Bft) NO 38 2 min 0,000 mm 0,8 UV-I 362 W/m 10,5 C 9,5 C 16,1 km/h (3 Bft) 91,49 %
22.05.2017 08:04 12,6 C 19,4 C 87 % 1019,0 hPa 0,0 l/m 9,1 km/h (2 Bft) NO 48 2 min 0,000 mm 0,9 UV-I 378 W/m 10,5 C 10,9 C 16,1 km/h (3 Bft) 97,14 %
22.05.2017 08:06 12,7 C 19,4 C 86 % 1019,0 hPa 0,0 l/m 13,1 km/h (3 Bft) NO 49 2 min 0,000 mm 0,9 UV-I 384 W/m 10,4 C 9,2 C 17,7 km/h (3 Bft) 90,74 %
22.05.2017 08:08 12,7 C 19,4 C 85 % 1019,0 hPa 0,0 l/m 11,3 km/h (2 Bft) O-NO 61 2 min 0,000 mm 0,9 UV-I 388 W/m 10,2 C 9,9 C 17,7 km/h (3 Bft) 95,45 %
22.05.2017 08:11 12,9 C 19,4 C 85 % 1018,9 hPa 0,0 l/m 11,4 km/h (2 Bft) NO 51 3 min 0,000 mm 0,9 UV-I 356 W/m 10,4 C 10,1 C 19,3 km/h (3 Bft) 98,63 %
22.05.2017 08:12 12,9 C 19,4 C 85 % 1018,9 hPa 0,0 l/m 9,6 km/h (2 Bft) O-NO 59 1 min 0,000 mm 1,0 UV-I 408 W/m 10,4 C 11,0 C 12,9 km/h (3 Bft) 100,00 %
22.05.2017 08:14 13,1 C 19,4 C 85 % 1018,9 hPa 0,0 l/m 7,8 km/h (2 Bft) NO 38 2 min 0,000 mm 1,0 UV-I 412 W/m 10,6 C 12,2 C 14,5 km/h (3 Bft) 97,56 %
22.05.2017 08:16 13,3 C 19,4 C 86 % 1018,9 hPa 0,0 l/m 11,2 km/h (2 Bft) NO 50 2 min 0,000 mm 1,0 UV-I 416 W/m 11,0 C 10,7 C 14,5 km/h (3 Bft) 97,87 %
22.05.2017 08:18 13,4 C 19,4 C 84 % 1018,9 hPa 0,0 l/m 9,3 km/h (2 Bft) NO 49 2 min 0,000 mm 1,1 UV-I 422 W/m 10,8 C 11,7 C 16,1 km/h (3 Bft) 100,00 %
22.05.2017 08:20 13,4 C 19,4 C 83 % 1018,9 hPa 0,0 l/m 14,8 km/h (3 Bft) NO 49 2 min 0,000 mm 1,1 UV-I 427 W/m 10,6 C 9,3 C 20,9 km/h (4 Bft) 98,11 %
22.05.2017 08:22 13,5 C 19,4 C 83 % 1018,9 hPa 0,0 l/m 12,1 km/h (2 Bft) O-NO 70 2 min 0,000 mm 1,1 UV-I 434 W/m 10,7 C 10,5 C 19,3 km/h (3 Bft) 100,00 %
22.05.2017 08:24 13,4 C 19,4 C 82 % 1018,9 hPa 0,0 l/m 9,7 km/h (2 Bft) NO 43 2 min 0,000 mm 1,1 UV-I 440 W/m 10,4 C 11,5 C 14,5 km/h (3 Bft) 95,45 %
22.05.2017 08:26 13,5 C 19,4 C 81 % 1018,9 hPa 0,0 l/m 12,7 km/h (3 Bft) O-NO 67 2 min 0,000 mm 1,2 UV-I 446 W/m 10,3 C 10,3 C 17,7 km/h (3 Bft) 96,23 %
22.05.2017 08:29 13,6 C 19,4 C 80 % 1018,9 hPa 0,0 l/m 13,1 km/h (3 Bft) O-NO 60 3 min 0,000 mm 1,2 UV-I 454 W/m 10,2 C 10,2 C 20,9 km/h (4 Bft) 94,12 %
22.05.2017 08:30 13,6 C 19,4 C 81 % 1018,9 hPa 0,0 l/m 10,6 km/h (2 Bft) O-NO 65 1 min 0,000 mm 1,2 UV-I 460 W/m 10,4 C 11,3 C 17,7 km/h (3 Bft) 100,00 %
22.05.2017 08:32 13,7 C 19,4 C 81 % 1018,9 hPa 0,0 l/m 10,9 km/h (2 Bft) W-SW 242 2 min 0,000 mm 1,3 UV-I 466 W/m 10,5 C 11,3 C 19,3 km/h (3 Bft) 94,87 %
22.05.2017 08:34 13,9 C 19,4 C 82 % 1018,9 hPa 0,0 l/m 9,6 km/h (2 Bft) NO 53 2 min 0,000 mm 1,3 UV-I 471 W/m 10,9 C 12,1 C 16,1 km/h (3 Bft) 95,92 %
22.05.2017 08:36 14,0 C 19,4 C 80 % 1018,9 hPa 0,0 l/m 14,1 km/h (3 Bft) O-NO 58 2 min 0,000 mm 1,3 UV-I 476 W/m 10,6 C 10,3 C 20,9 km/h (4 Bft) 97,44 %
22.05.2017 08:38 14,1 C 19,4 C 80 % 1018,9 hPa 0,0 l/m 15,4 km/h (3 Bft) NO 44 2 min 0,000 mm 1,3 UV-I 482 W/m 10,7 C 10,0 C 22,5 km/h (4 Bft) 96,43 %
22.05.2017 08:40 14,1 C 19,4 C 79 % 1018,9 hPa 0,0 l/m 16,6 km/h (3 Bft) NO 38 2 min 0,000 mm 1,4 UV-I 487 W/m 10,5 C 9,6 C 22,5 km/h (4 Bft) 95,74 %
22.05.2017 08:42 14,1 C 19,4 C 80 % 1018,9 hPa 0,0 l/m 14,6 km/h (3 Bft) O-NO 76 2 min 0,000 mm 1,4 UV-I 492 W/m 10,7 C 10,2 C 19,3 km/h (3 Bft) 94,34 %
22.05.2017 08:44 14,1 C 19,4 C 78 % 1018,9 hPa 0,0 l/m 14,4 km/h (3 Bft) O-NO 61 2 min 0,000 mm 1,4 UV-I 498 W/m 10,3 C 10,3 C 20,9 km/h (4 Bft) 93,18 %
22.05.2017 08:46 14,2 C 19,4 C 79 % 1018,9 hPa 0,0 l/m 9,6 km/h (2 Bft) O-NO 59 2 min 0,000 mm 1,5 UV-I 503 W/m 10,6 C 12,4 C 17,7 km/h (3 Bft) 95,74 %
22.05.2017 08:48 14,3 C 20,0 C 79 % 1018,9 hPa 0,0 l/m 13,4 km/h (3 Bft) O-NO 59 2 min 0,000 mm 1,5 UV-I 508 W/m 10,7 C 10,9 C 20,9 km/h (4 Bft) 90,24 %
22.05.2017 08:50 14,3 C 20,0 C 77 % 1018,9 hPa 0,0 l/m 12,2 km/h (2 Bft) O-NO 71 2 min 0,000 mm 1,5 UV-I 515 W/m 10,3 C 11,4 C 17,7 km/h (3 Bft) 94,34 %
22.05.2017 08:52 14,4 C 19,4 C 76 % 1018,9 hPa 0,0 l/m 14,8 km/h (3 Bft) NO 46 2 min 0,000 mm 1,6 UV-I 521 W/m 10,2 C 10,5 C 20,9 km/h (4 Bft) 93,18 %
22.05.2017 08:54 14,4 C 19,4 C 78 % 1018,9 hPa 0,0 l/m 14,6 km/h (3 Bft) O-NO 64 2 min 0,000 mm 1,6 UV-I 527 W/m 10,6 C 10,6 C 20,9 km/h (4 Bft) 95,12 %
22.05.2017 08:56 14,6 C 19,4 C 77 % 1018,9 hPa 0,0 l/m 11,4 km/h (2 Bft) NO 53 2 min 0,000 mm 1,6 UV-I 530 W/m 10,6 C 12,1 C 16,1 km/h (3 Bft) 94,34 %
22.05.2017 08:58 14,7 C 20,0 C 77 % 1018,9 hPa 0,0 l/m 14,6 km/h (3 Bft) NO 37 2 min 0,000 mm 1,7 UV-I 542 W/m 10,7 C 11,0 C 20,9 km/h (4 Bft) 94,74 %
22.05.2017 09:00 14,8 C 20,0 C 76 % 1018,9 hPa 0,0 l/m 19,1 km/h (3 Bft) O-NO 61 2 min 0,254 mm 1,7 UV-I 546 W/m 10,6 C 9,7 C 25,7 km/h (4 Bft) 94,00 %
22.05.2017 09:02 14,8 C 19,4 C 74 % 1018,9 hPa 0,0 l/m 13,7 km/h (3 Bft) O-NO 67 2 min 0,000 mm 1,8 UV-I 556 W/m 10,2 C 11,4 C 20,9 km/h (4 Bft) 93,62 %
22.05.2017 09:04 14,9 C 20,0 C 76 % 1018,9 hPa 0,0 l/m 10,8 km/h (2 Bft) NO 51 2 min 0,000 mm 1,8 UV-I 566 W/m 10,7 C 12,7 C 17,7 km/h (3 Bft) 95,74 %
22.05.2017 09:06 15,1 C 20,0 C 76 % 1018,9 hPa 0,0 l/m 13,1 km/h (3 Bft) N-NO 32 2 min 0,000 mm 1,8 UV-I 574 W/m 10,9 C 12,0 C 20,9 km/h (4 Bft) 96,00 %
22.05.2017 09:08 15,2 C 20,0 C 74 % 1018,9 hPa 0,0 l/m 13,6 km/h (3 Bft) O-NO 59 2 min 0,000 mm 1,7 UV-I 577 W/m 10,6 C 11,9 C 17,7 km/h (3 Bft) 94,00 %
22.05.2017 09:10 15,2 C 20,0 C 74 % 1019,0 hPa 0,0 l/m 13,8 km/h (3 Bft) NO 49 2 min 0,000 mm 1,9 UV-I 573 W/m 10,6 C 11,8 C 20,9 km/h (4 Bft) 96,00 %
22.05.2017 09:12 15,3 C 20,0 C 74 % 1018,9 hPa 0,0 l/m 12,7 km/h (3 Bft) O-NO 74 2 min 0,000 mm 1,9 UV-I 580 W/m 10,7 C 12,4 C 19,3 km/h (3 Bft) 89,74 %
22.05.2017 09:14 15,2 C 20,0 C 72 % 1018,9 hPa 0,0 l/m 14,8 km/h (3 Bft) O 87 2 min 0,000 mm 2,0 UV-I 586 W/m 10,2 C 11,5 C 20,9 km/h (4 Bft) 98,08 %
22.05.2017 09:16 15,2 C 20,0 C 73 % 1018,9 hPa 0,0 l/m 13,6 km/h (3 Bft) O-NO 67 2 min 0,000 mm 2,0 UV-I 601 W/m 10,4 C 11,9 C 20,9 km/h (4 Bft) 88,00 %
22.05.2017 09:18 15,2 C 20,0 C 74 % 1018,9 hPa 0,0 l/m 17,9 km/h (3 Bft) NO 45 2 min 0,000 mm 2,1 UV-I 615 W/m 10,6 C 10,6 C 24,1 km/h (4 Bft) 92,86 %
22.05.2017 09:20 15,4 C 20,0 C 75 % 1018,9 hPa 0,0 l/m 13,6 km/h (3 Bft) NO 51 2 min 0,000 mm 2,1 UV-I 624 W/m 11,0 C 12,1 C 20,9 km/h (4 Bft) 92,68 %
22.05.2017 09:22 15,6 C 20,0 C 73 % 1019,0 hPa 0,0 l/m 13,3 km/h (3 Bft) O-NO 65 2 min 0,000 mm 2,1 UV-I 608 W/m 10,8 C 12,5 C 19,3 km/h (3 Bft) 96,23 %
22.05.2017 09:24 15,6 C 20,0 C 72 % 1018,9 hPa 0,0 l/m 13,2 km/h (3 Bft) O-NO 60 2 min 0,000 mm 2,2 UV-I 607 W/m 10,6 C 12,5 C 19,3 km/h (3 Bft) 98,00 %
22.05.2017 09:26 15,7 C 20,0 C 73 % 1018,9 hPa 0,0 l/m 8,6 km/h (2 Bft) N-NO 30 2 min 0,000 mm 2,3 UV-I 654 W/m 10,9 C 14,5 C 14,5 km/h (3 Bft) 95,12 %
22.05.2017 09:28 15,9 C 20,0 C 74 % 1018,9 hPa 0,0 l/m 10,5 km/h (2 Bft) NO 52 2 min 0,000 mm 2,3 UV-I 674 W/m 11,3 C 13,9 C 16,1 km/h (3 Bft) 96,00 %
22.05.2017 09:30 16,1 C 20,0 C 74 % 1018,9 hPa 0,0 l/m 12,5 km/h (3 Bft) NO 45 2 min 0,000 mm 2,4 UV-I 663 W/m 11,5 C 13,4 C 17,7 km/h (3 Bft) 94,74 %
22.05.2017 09:32 16,2 C 20,0 C 72 % 1018,9 hPa 0,0 l/m 14,4 km/h (3 Bft) NO 36 2 min 0,000 mm 2,4 UV-I 678 W/m 11,1 C 12,8 C 20,9 km/h (4 Bft) 92,45 %
22.05.2017 09:34 16,2 C 20,0 C 70 % 1018,9 hPa 0,0 l/m 14,0 km/h (3 Bft) NO 41 2 min 0,000 mm 2,5 UV-I 696 W/m 10,7 C 13,0 C 24,1 km/h (4 Bft) 96,23 %
22.05.2017 09:36 16,2 C 20,0 C 70 % 1018,9 hPa 0,0 l/m 15,3 km/h (3 Bft) N-NO 17 2 min 0,000 mm 2,5 UV-I 648 W/m 10,7 C 12,6 C 22,5 km/h (4 Bft) 100,00 %
22.05.2017 09:38 16,2 C 20,0 C 70 % 1018,9 hPa 0,0 l/m 15,7 km/h (3 Bft) NO 53 2 min 0,000 mm 2,5 UV-I 691 W/m 10,7 C 12,4 C 24,1 km/h (4 Bft) 98,00 %
22.05.2017 09:40 16,2 C 20,0 C 71 % 1018,9 hPa 0,0 l/m 16,8 km/h (3 Bft) O-NO 72 2 min 0,000 mm 2,5 UV-I 693 W/m 10,9 C 12,1 C 22,5 km/h (4 Bft) 100,00 %
22.05.2017 09:42 16,2 C 20,0 C 70 % 1018,8 hPa 0,0 l/m 13,7 km/h (3 Bft) O-NO 65 2 min 0,000 mm 2,6 UV-I 735 W/m 10,7 C 13,1 C 22,5 km/h (4 Bft) 98,11 %
22.05.2017 09:44 16,3 C 20,0 C 70 % 1018,8 hPa 0,0 l/m 14,1 km/h (3 Bft) O-NO 60 2 min 0,000 mm 2,6 UV-I 676 W/m 10,8 C 13,0 C 19,3 km/h (3 Bft) 95,74 %
22.05.2017 09:46 16,3 C 20,0 C 71 % 1018,8 hPa 0,0 l/m 10,3 km/h (2 Bft) O-NO 69 2 min 0,000 mm 2,5 UV-I 626 W/m 11,0 C 14,4 C 17,7 km/h (3 Bft) 97,56 %
22.05.2017 09:48 16,3 C 20,0 C 68 % 1018,8 hPa 0,0 l/m 11,8 km/h (2 Bft) NO 50 2 min 0,000 mm 2,5 UV-I 628 W/m 10,4 C 13,8 C 17,7 km/h (3 Bft) 97,73 %
22.05.2017 09:50 16,3 C 20,0 C 68 % 1018,8 hPa 0,0 l/m 15,5 km/h (3 Bft) NO 38 2 min 0,000 mm 2,8 UV-I 729 W/m 10,4 C 12,6 C 20,9 km/h (4 Bft) 100,00 %
22.05.2017 09:52 16,3 C 20,0 C 69 % 1018,8 hPa 0,0 l/m 11,9 km/h (2 Bft) O-NO 59 2 min 0,000 mm 2,7 UV-I 686 W/m 10,6 C 13,8 C 17,7 km/h (3 Bft) 98,11 %
22.05.2017 09:54 16,6 C 20,0 C 69 % 1018,8 hPa 0,0 l/m 14,3 km/h (3 Bft) O 81 2 min 0,000 mm 2,7 UV-I 649 W/m 10,9 C 13,3 C 27,4 km/h (4 Bft) 100,00 %
22.05.2017 09:56 16,6 C 20,0 C 67 % 1018,8 hPa 0,0 l/m 13,9 km/h (3 Bft) O-NO 65 2 min 0,000 mm 2,4 UV-I 588 W/m 10,4 C 13,5 C 19,3 km/h (3 Bft) 97,73 %
22.05.2017 09:58 16,5 C 20,0 C 67 % 1018,8 hPa 0,0 l/m 13,8 km/h (3 Bft) NO 56 2 min 0,000 mm 2,7 UV-I 579 W/m 10,4 C 13,4 C 20,9 km/h (4 Bft) 98,00 %
22.05.2017 10:00 16,5 C 20,0 C 68 % 1018,8 hPa 0,0 l/m 14,5 km/h (3 Bft) NO 44 2 min 0,000 mm 2,9 UV-I 745 W/m 10,6 C 13,2 C 20,9 km/h (4 Bft) 100,00 %
22.05.2017 10:02 16,7 C 20,0 C 70 % 1018,7 hPa 0,0 l/m 10,0 km/h (2 Bft) NO 55 2 min 0,381 mm 2,9 UV-I 712 W/m 11,2 C 15,0 C 16,1 km/h (3 Bft) 98,21 %
22.05.2017 10:04 16,9 C 20,0 C 68 % 1018,7 hPa 0,0 l/m 13,8 km/h (3 Bft) O-NO 64 2 min 0,000 mm 2,9 UV-I 689 W/m 11,0 C 13,9 C 20,9 km/h (4 Bft) 100,00 %
22.05.2017 10:06 16,8 C 20,0 C 67 % 1018,7 hPa 0,0 l/m 15,2 km/h (3 Bft) O-NO 58 2 min 0,000 mm 2,9 UV-I 722 W/m 10,6 C 13,3 C 20,9 km/h (4 Bft) 100,00 %
22.05.2017 10:08 16,9 C 20,0 C 68 % 1018,7 hPa 0,0 l/m 16,0 km/h (3 Bft) O-NO 58 2 min 0,000 mm 2,8 UV-I 617 W/m 11,0 C 13,2 C 22,5 km/h (4 Bft) 98,31 %
22.05.2017 10:10 16,8 C 20,0 C 66 % 1018,7 hPa 0,0 l/m 12,4 km/h (3 Bft) O-NO 60 2 min 0,000 mm 2,8 UV-I 611 W/m 10,4 C 14,2 C 19,3 km/h (3 Bft) 97,14 %
22.05.2017 10:12 16,8 C 20,0 C 68 % 1018,7 hPa 0,0 l/m 12,9 km/h (3 Bft) NO 53 2 min 0,000 mm 2,8 UV-I 646 W/m 10,9 C 14,0 C 17,7 km/h (3 Bft) 100,00 %
22.05.2017 10:14 16,9 C 20,0 C 69 % 1018,7 hPa 0,0 l/m 13,7 km/h (3 Bft) O-NO 63 2 min 0,000 mm 2,9 UV-I 658 W/m 11,2 C 13,9 C 19,3 km/h (3 Bft) 98,00 %
22.05.2017 10:16 17,1 C 20,0 C 68 % 1018,7 hPa 0,0 l/m 14,8 km/h (3 Bft) O-NO 59 2 min 0,000 mm 2,9 UV-I 636 W/m 11,1 C 13,8 C 22,5 km/h (4 Bft) 95,12 %
22.05.2017 10:18 17,2 C 20,0 C 68 % 1018,6 hPa 0,0 l/m 14,6 km/h (3 Bft) NO 41 2 min 0,000 mm 3,0 UV-I 720 W/m 11,2 C 14,0 C 24,1 km/h (4 Bft) 95,74 %
22.05.2017 10:20 17,2 C 20,0 C 68 % 1018,6 hPa 0,0 l/m 16,6 km/h (3 Bft) O-NO 65 2 min 0,000 mm 3,0 UV-I 652 W/m 11,2 C 13,4 C 22,5 km/h (4 Bft) 93,62 %
22.05.2017 10:22 17,2 C 20,0 C 65 % 1018,7 hPa 0,0 l/m 15,4 km/h (3 Bft) NO 46 2 min 0,000 mm 3,0 UV-I 645 W/m 10,6 C 13,7 C 19,3 km/h (3 Bft) 98,00 %
22.05.2017 10:24 17,1 C 20,0 C 65 % 1018,6 hPa 0,0 l/m 13,8 km/h (3 Bft) NO 45 2 min 0,000 mm 3,1 UV-I 691 W/m 10,5 C 14,1 C 19,3 km/h (3 Bft) 95,45 %
22.05.2017 10:26 17,2 C 20,0 C 66 % 1018,6 hPa 0,0 l/m 11,8 km/h (2 Bft) NO 46 2 min 0,000 mm 3,3 UV-I 770 W/m 10,8 C 14,9 C 17,7 km/h (3 Bft) 97,73 %
22.05.2017 10:28 17,3 C 20,0 C 68 % 1018,6 hPa 0,0 l/m 15,4 km/h (3 Bft) O-NO 59 2 min 0,000 mm 3,3 UV-I 731 W/m 11,3 C 13,9 C 22,5 km/h (4 Bft) 94,64 %
22.05.2017 10:30 17,3 C 20,0 C 65 % 1018,6 hPa 0,0 l/m 12,5 km/h (3 Bft) N-NO 30 2 min 0,000 mm 3,4 UV-I 730 W/m 10,7 C 14,8 C 19,3 km/h (3 Bft) 97,30 %
22.05.2017 10:32 17,4 C 20,0 C 65 % 1018,6 hPa 0,0 l/m 15,1 km/h (3 Bft) O-NO 61 2 min 0,000 mm 3,5 UV-I 781 W/m 10,8 C 14,1 C 20,9 km/h (4 Bft) 96,00 %
22.05.2017 10:34 17,4 C 20,0 C 65 % 1018,6 hPa 0,0 l/m 13,6 km/h (3 Bft) O-NO 72 2 min 0,000 mm 3,5 UV-I 773 W/m 10,8 C 14,5 C 17,7 km/h (3 Bft) 96,00 %
22.05.2017 10:36 17,3 C 20,0 C 65 % 1018,6 hPa 0,0 l/m 14,0 km/h (3 Bft) NO 36 2 min 0,000 mm 3,5 UV-I 754 W/m 10,7 C 14,3 C 22,5 km/h (4 Bft) 97,37 %
22.05.2017 10:38 17,4 C 20,0 C 69 % 1018,6 hPa 0,0 l/m 12,5 km/h (3 Bft) O-NO 73 2 min 0,000 mm 3,4 UV-I 732 W/m 11,7 C 14,9 C 19,3 km/h (3 Bft) 94,92 %
22.05.2017 10:40 17,5 C 20,0 C 68 % 1018,6 hPa 0,0 l/m 13,3 km/h (3 Bft) NO 42 2 min 0,000 mm 3,4 UV-I 719 W/m 11,5 C 14,7 C 22,5 km/h (4 Bft) 94,74 %
22.05.2017 10:42 17,6 C 20,0 C 69 % 1018,5 hPa 0,0 l/m 12,8 km/h (3 Bft) O-NO 70 2 min 0,000 mm 3,5 UV-I 718 W/m 11,8 C 15,0 C 22,5 km/h (4 Bft) 96,23 %
22.05.2017 10:44 17,7 C 20,0 C 67 % 1018,5 hPa 0,0 l/m 14,8 km/h (3 Bft) NO 47 2 min 0,000 mm 3,6 UV-I 738 W/m 11,5 C 14,5 C 22,5 km/h (4 Bft) 96,00 %
22.05.2017 10:46 17,7 C 20,0 C 65 % 1018,5 hPa 0,0 l/m 12,3 km/h (3 Bft) O-NO 60 2 min 0,000 mm 3,5 UV-I 714 W/m 11,0 C 15,3 C 16,1 km/h (3 Bft) 100,00 %
22.05.2017 10:48 17,7 C 20,0 C 67 % 1018,5 hPa 0,0 l/m 13,7 km/h (3 Bft) O-NO 65 2 min 0,000 mm 3,4 UV-I 656 W/m 11,5 C 14,8 C 19,3 km/h (3 Bft) 97,44 %
22.05.2017 10:50 17,8 C 20,0 C 69 % 1018,4 hPa 0,0 l/m 13,6 km/h (3 Bft) NO 54 2 min 0,000 mm 3,5 UV-I 653 W/m 12,0 C 15,0 C 22,5 km/h (4 Bft) 100,00 %
22.05.2017 10:52 17,8 C 20,0 C 68 % 1018,4 hPa 0,0 l/m 11,8 km/h (2 Bft) NO 55 2 min 0,000 mm 3,6 UV-I 704 W/m 11,8 C 15,6 C 20,9 km/h (4 Bft) 100,00 %
22.05.2017 10:54 17,8 C 20,0 C 68 % 1018,4 hPa 0,0 l/m 8,9 km/h (2 Bft) NO 38 2 min 0,000 mm 3,4 UV-I 735 W/m 11,8 C 16,7 C 14,5 km/h (3 Bft) 100,00 %
22.05.2017 10:56 18,1 C 20,0 C 67 % 1018,4 hPa 0,0 l/m 14,7 km/h (3 Bft) O-NO 65 2 min 0,000 mm 3,7 UV-I 729 W/m 11,9 C 15,0 C 22,5 km/h (4 Bft) 100,00 %
22.05.2017 10:58 18,2 C 20,0 C 65 % 1018,4 hPa 0,0 l/m 14,5 km/h (3 Bft) NO 54 2 min 0,000 mm 3,6 UV-I 728 W/m 11,5 C 15,2 C 22,5 km/h (4 Bft) 98,00 %
22.05.2017 11:00 18,1 C 20,0 C 62 % 1018,4 hPa 0,0 l/m 15,8 km/h (3 Bft) O-NO 65 2 min 0,431 mm 3,5 UV-I 658 W/m 10,7 C 14,7 C 24,1 km/h (4 Bft) 97,37 %
22.05.2017 11:02 17,9 C 20,0 C 65 % 1018,4 hPa 0,0 l/m 5,7 km/h (1 Bft) NO 42 2 min 0,000 mm 3,6 UV-I 666 W/m 11,2 C 17,9 C 11,3 km/h (2 Bft) 95,74 %
22.05.2017 11:04 18,0 C 20,0 C 63 % 1018,4 hPa 0,0 l/m 15,4 km/h (3 Bft) O-NO 59 2 min 0,000 mm 3,6 UV-I 708 W/m 10,8 C 14,7 C 22,5 km/h (4 Bft) 95,24 %
22.05.2017 11:06 17,9 C 20,0 C 64 % 1018,4 hPa 0,0 l/m 12,9 km/h (3 Bft) O-NO 74 2 min 0,000 mm 3,9 UV-I 771 W/m 11,0 C 15,3 C 19,3 km/h (3 Bft) 100,00 %
22.05.2017 11:08 17,9 C 20,0 C 65 % 1018,4 hPa 0,0 l/m 14,2 km/h (3 Bft) NO 45 2 min 0,000 mm 3,9 UV-I 758 W/m 11,2 C 14,9 C 19,3 km/h (3 Bft) 100,00 %
22.05.2017 11:10 18,0 C 20,0 C 63 % 1018,4 hPa 0,0 l/m 12,8 km/h (3 Bft) O 80 2 min 0,000 mm 3,8 UV-I 720 W/m 10,8 C 15,5 C 19,3 km/h (3 Bft) 98,00 %
22.05.2017 11:12 18,0 C 20,0 C 64 % 1018,3 hPa 0,0 l/m 10,6 km/h (2 Bft) NO 44 2 min 0,000 mm 3,6 UV-I 654 W/m 11,1 C 16,2 C 16,1 km/h (3 Bft) 95,83 %
22.05.2017 11:14 18,2 C 20,0 C 64 % 1018,3 hPa 0,0 l/m 17,6 km/h (3 Bft) O-NO 68 2 min 0,000 mm 3,7 UV-I 665 W/m 11,3 C 14,4 C 27,4 km/h (4 Bft) 96,61 %
22.05.2017 11:16 18,2 C 20,0 C 61 % 1018,3 hPa 0,0 l/m 14,6 km/h (3 Bft) O-NO 76 2 min 0,000 mm 4,0 UV-I 762 W/m 10,6 C 15,2 C 19,3 km/h (3 Bft) 100,00 %
22.05.2017 11:18 18,3 C 20,0 C 63 % 1018,3 hPa 0,0 l/m 10,3 km/h (2 Bft) O 99 2 min 0,000 mm 4,1 UV-I 804 W/m 11,1 C 16,7 C 14,5 km/h (3 Bft) 98,11 %
22.05.2017 11:20 18,5 C 20,0 C 63 % 1018,3 hPa 0,0 l/m 16,1 km/h (3 Bft) O-NO 76 2 min 0,000 mm 4,2 UV-I 818 W/m 11,3 C 15,1 C 20,9 km/h (4 Bft) 98,11 %
22.05.2017 11:22 18,5 C 20,0 C 60 % 1018,2 hPa 0,0 l/m 18,3 km/h (3 Bft) O-NO 71 2 min 0,000 mm 3,9 UV-I 774 W/m 10,6 C 14,6 C 29,0 km/h (5 Bft) 100,00 %
22.05.2017 11:24 18,4 C 20,0 C 59 % 1018,2 hPa 0,0 l/m 23,7 km/h (4 Bft) O-NO 69 2 min 0,000 mm 3,9 UV-I 700 W/m 10,2 C 13,4 C 29,0 km/h (5 Bft) 95,45 %
22.05.2017 11:26 18,4 C 20,0 C 59 % 1018,1 hPa 0,0 l/m 17,9 km/h (3 Bft) NO 43 2 min 0,000 mm 4,2 UV-I 822 W/m 10,2 C 14,6 C 25,7 km/h (4 Bft) 100,00 %
22.05.2017 11:28 18,4 C 20,0 C 58 % 1018,1 hPa 0,0 l/m 17,2 km/h (3 Bft) O-NO 78 2 min 0,000 mm 4,2 UV-I 801 W/m 10,0 C 14,8 C 25,7 km/h (4 Bft) 100,00 %
22.05.2017 11:30 18,6 C 20,0 C 59 % 1018,1 hPa 0,0 l/m 19,0 km/h (3 Bft) NO 43 2 min 0,000 mm 4,2 UV-I 829 W/m 10,4 C 14,6 C 27,4 km/h (4 Bft) 100,00 %
22.05.2017 11:32 18,7 C 20,0 C 61 % 1018,2 hPa 0,0 l/m 14,9 km/h (3 Bft) NO 51 2 min 0,000 mm 4,0 UV-I 761 W/m 11,0 C 15,7 C 22,5 km/h (4 Bft) 95,16 %
22.05.2017 11:34 18,7 C 20,0 C 57 % 1018,2 hPa 0,0 l/m 19,3 km/h (3 Bft) O-NO 78 2 min 0,000 mm 3,7 UV-I 676 W/m 10,0 C 14,7 C 27,4 km/h (4 Bft) 98,11 %
22.05.2017 11:36 18,6 C 20,0 C 55 % 1018,1 hPa 0,0 l/m 19,3 km/h (3 Bft) O-NO 77 2 min 0,000 mm 3,7 UV-I 648 W/m 9,4 C 14,5 C 29,0 km/h (5 Bft) 100,00 %
22.05.2017 11:38 18,6 C 20,0 C 58 % 1018,0 hPa 0,0 l/m 18,4 km/h (3 Bft) NO 40 2 min 0,000 mm 3,7 UV-I 649 W/m 10,2 C 14,7 C 24,1 km/h (4 Bft) 95,12 %
22.05.2017 11:40 18,6 C 20,0 C 56 % 1018,0 hPa 0,0 l/m 20,9 km/h (4 Bft) O-NO 63 2 min 0,000 mm 3,9 UV-I 703 W/m 9,6 C 14,2 C 25,7 km/h (4 Bft) 100,00 %
22.05.2017 11:42 18,6 C 20,0 C 60 % 1018,0 hPa 0,0 l/m 18,5 km/h (3 Bft) O-NO 57 2 min 0,000 mm 4,3 UV-I 808 W/m 10,7 C 14,7 C 24,1 km/h (4 Bft) 98,00 %
22.05.2017 11:44 18,8 C 20,0 C 58 % 1018,0 hPa 0,0 l/m 18,5 km/h (3 Bft) O-NO 61 2 min 0,000 mm 4,3 UV-I 849 W/m 10,4 C 15,0 C 27,4 km/h (4 Bft) 100,00 %
22.05.2017 11:46 18,8 C 20,0 C 56 % 1018,0 hPa 0,0 l/m 17,7 km/h (3 Bft) N-NO 26 2 min 0,000 mm 4,2 UV-I 787 W/m 9,8 C 15,1 C 24,1 km/h (4 Bft) 90,00 %
22.05.2017 11:48 18,8 C 20,0 C 56 % 1017,9 hPa 0,0 l/m 17,5 km/h (3 Bft) NO 55 2 min 0,000 mm 3,9 UV-I 710 W/m 9,8 C 15,2 C 24,1 km/h (4 Bft) 100,00 %
22.05.2017 11:50 18,8 C 20,0 C 58 % 1017,9 hPa 0,0 l/m 15,3 km/h (3 Bft) O-NO 67 2 min 0,000 mm 4,0 UV-I 737 W/m 10,4 C 15,7 C 22,5 km/h (4 Bft) 88,00 %
22.05.2017 11:52 18,8 C 20,0 C 56 % 1017,9 hPa 0,0 l/m 12,3 km/h (3 Bft) O-NO 61 2 min 0,000 mm 3,9 UV-I 721 W/m 9,8 C 16,6 C 17,7 km/h (3 Bft) 97,62 %
22.05.2017 11:54 18,8 C 20,0 C 56 % 1018,0 hPa 0,0 l/m 15,5 km/h (3 Bft) O-NO 70 2 min 0,000 mm 3,6 UV-I 633 W/m 9,8 C 15,7 C 19,3 km/h (3 Bft) 98,00 %
22.05.2017 11:56 18,8 C 20,0 C 58 % 1017,9 hPa 0,0 l/m 14,1 km/h (3 Bft) O 84 2 min 0,000 mm 3,3 UV-I 578 W/m 10,4 C 16,0 C 20,9 km/h (4 Bft) 97,87 %
22.05.2017 11:58 18,8 C 20,0 C 56 % 1017,9 hPa 0,0 l/m 14,8 km/h (3 Bft) O-NO 66 2 min 0,000 mm 3,1 UV-I 540 W/m 9,8 C 15,8 C 19,3 km/h (3 Bft) 96,00 %
22.05.2017 12:00 18,8 C 20,0 C 56 % 1017,9 hPa 0,0 l/m 14,4 km/h (3 Bft) O-NO 69 2 min 0,000 mm 3,0 UV-I 489 W/m 9,8 C 16,0 C 20,9 km/h (4 Bft) 95,12 %
22.05.2017 12:02 18,7 C 20,0 C 56 % 1017,9 hPa 0,0 l/m 11,6 km/h (2 Bft) O-NO 70 0 min 0,483 mm 2,9 UV-I 467 W/m 9,7 C 16,7 C 17,7 km/h (3 Bft) 96,43 %
22.05.2017 12:04 18,7 C 20,0 C 60 % 1017,9 hPa 0,0 l/m 9,8 km/h (2 Bft) O-NO 66 0 min 0,000 mm 2,8 UV-I 443 W/m 10,8 C 17,3 C 17,7 km/h (3 Bft) 89,47 %
22.05.2017 12:06 18,7 C 20,0 C 55 % 1017,9 hPa 0,0 l/m 17,2 km/h (3 Bft) NO 49 0 min 0,000 mm 2,9 UV-I 458 W/m 9,5 C 15,1 C 22,5 km/h (4 Bft) 92,68 %
22.05.2017 12:08 18,7 C 20,0 C 56 % 1017,9 hPa 0,0 l/m 11,9 km/h (2 Bft) NO 55 0 min 0,000 mm 2,9 UV-I 468 W/m 9,7 C 16,6 C 17,7 km/h (3 Bft) 95,74 %
22.05.2017 12:10 18,7 C 20,0 C 56 % 1017,9 hPa 0,0 l/m 14,7 km/h (3 Bft) O-NO 57 2 min 0,000 mm 3,3 UV-I 504 W/m 9,7 C 15,8 C 20,9 km/h (4 Bft) 98,31 %
22.05.2017 12:12 18,8 C 20,0 C 54 % 1017,9 hPa 0,0 l/m 17,0 km/h (3 Bft) O-NO 76 2 min 0,000 mm 3,9 UV-I 589 W/m 9,3 C 15,3 C 22,5 km/h (4 Bft) 93,10 %
22.05.2017 12:14 18,8 C 20,0 C 55 % 1017,9 hPa 0,0 l/m 21,5 km/h (4 Bft) O 79 2 min 0,000 mm 3,9 UV-I 755 W/m 9,6 C 14,4 C 27,4 km/h (4 Bft) 94,92 %
22.05.2017 12:16 18,9 C 20,0 C 55 % 1017,9 hPa 0,0 l/m 17,3 km/h (3 Bft) O-NO 63 2 min 0,000 mm 4,1 UV-I 790 W/m 9,7 C 15,4 C 22,5 km/h (4 Bft) 91,67 %
22.05.2017 12:18 19,0 C 20,0 C 55 % 1017,9 hPa 0,0 l/m 11,6 km/h (2 Bft) NO 53 2 min 0,000 mm 4,3 UV-I 801 W/m 9,8 C 17,0 C 17,7 km/h (3 Bft) 97,37 %
22.05.2017 12:20 19,2 C 20,0 C 55 % 1017,9 hPa 0,0 l/m 10,4 km/h (2 Bft) NO 54 2 min 0,000 mm 4,0 UV-I 744 W/m 9,9 C 17,6 C 17,7 km/h (3 Bft) 97,73 %
22.05.2017 12:22 19,3 C 20,0 C 55 % 1017,9 hPa 0,0 l/m 11,9 km/h (2 Bft) O-NO 75 2 min 0,000 mm 3,7 UV-I 634 W/m 10,0 C 17,3 C 17,7 km/h (3 Bft) 96,00 %
22.05.2017 12:24 19,2 C 20,0 C 54 % 1017,8 hPa 0,0 l/m 10,4 km/h (2 Bft) O 81 2 min 0,000 mm 3,6 UV-I 624 W/m 9,7 C 17,6 C 19,3 km/h (3 Bft) 88,64 %
22.05.2017 12:26 19,2 C 20,6 C 55 % 1017,8 hPa 0,0 l/m 10,7 km/h (2 Bft) O-NO 74 2 min 0,000 mm 3,8 UV-I 668 W/m 9,9 C 17,5 C 19,3 km/h (3 Bft) 96,00 %
22.05.2017 12:28 19,3 C 20,6 C 56 % 1017,8 hPa 0,0 l/m 17,4 km/h (3 Bft) O-NO 75 2 min 0,000 mm 3,9 UV-I 705 W/m 10,3 C 15,8 C 22,5 km/h (4 Bft) 97,44 %
22.05.2017 12:30 19,4 C 20,6 C 55 % 1017,8 hPa 0,0 l/m 16,6 km/h (3 Bft) O-NO 65 2 min 0,000 mm 4,0 UV-I 710 W/m 10,1 C 16,1 C 25,7 km/h (4 Bft) 94,00 %
22.05.2017 12:32 19,4 C 20,6 C 54 % 1017,8 hPa 0,0 l/m 13,1 km/h (3 Bft) NO 52 2 min 0,000 mm 4,1 UV-I 769 W/m 9,8 C 17,0 C 16,1 km/h (3 Bft) 96,15 %
22.05.2017 12:34 19,6 C 20,6 C 57 % 1017,8 hPa 0,0 l/m 10,4 km/h (2 Bft) NO 53 2 min 0,000 mm 3,9 UV-I 758 W/m 10,8 C 18,1 C 17,7 km/h (3 Bft) 87,18 %
22.05.2017 12:36 19,6 C 20,6 C 58 % 1017,8 hPa 0,0 l/m 8,9 km/h (2 Bft) NO 46 2 min 0,000 mm 3,7 UV-I 643 W/m 11,1 C 18,6 C 11,3 km/h (2 Bft) 96,00 %
22.05.2017 12:38 19,7 C 20,6 C 58 % 1017,8 hPa 0,0 l/m 7,7 km/h (2 Bft) NO 47 2 min 0,000 mm 3,6 UV-I 607 W/m 11,2 C 19,2 C 16,1 km/h (3 Bft) 95,12 %
22.05.2017 12:40 19,6 C 20,6 C 59 % 1017,8 hPa 0,0 l/m 10,6 km/h (2 Bft) NO 56 2 min 0,000 mm 3,6 UV-I 616 W/m 11,4 C 18,0 C 16,1 km/h (3 Bft) 97,87 %
22.05.2017 12:42 19,7 C 20,6 C 56 % 1017,9 hPa 0,0 l/m 10,2 km/h (2 Bft) O 87 2 min 0,000 mm 3,5 UV-I 595 W/m 10,7 C 18,2 C 16,1 km/h (3 Bft) 96,00 %
22.05.2017 12:44 19,6 C 20,6 C 55 % 1017,8 hPa 0,0 l/m 8,6 km/h (2 Bft) O 98 2 min 0,000 mm 3,5 UV-I 593 W/m 10,3 C 18,7 C 12,9 km/h (3 Bft) 97,73 %
22.05.2017 12:46 19,5 C 20,6 C 54 % 1017,7 hPa 0,0 l/m 13,9 km/h (3 Bft) NO 55 2 min 0,000 mm 3,5 UV-I 564 W/m 9,9 C 16,9 C 19,3 km/h (3 Bft) 92,86 %
22.05.2017 12:48 19,5 C 20,6 C 56 % 1017,7 hPa 0,0 l/m 13,9 km/h (3 Bft) O-NO 59 2 min 0,000 mm 3,5 UV-I 587 W/m 10,5 C 16,9 C 19,3 km/h (3 Bft) 97,56 %
22.05.2017 12:50 19,4 C 20,6 C 53 % 1017,8 hPa 0,0 l/m 12,1 km/h (2 Bft) NO 56 2 min 0,000 mm 3,4 UV-I 557 W/m 9,6 C 17,3 C 17,7 km/h (3 Bft) 96,23 %
22.05.2017 12:52 19,4 C 20,6 C 56 % 1017,7 hPa 0,0 l/m 9,3 km/h (2 Bft) O 84 2 min 0,000 mm 3,6 UV-I 577 W/m 10,4 C 18,2 C 14,5 km/h (3 Bft) 92,11 %
22.05.2017 12:54 19,5 C 20,6 C 56 % 1017,7 hPa 0,0 l/m 10,8 km/h (2 Bft) O-NO 70 2 min 0,000 mm 3,9 UV-I 658 W/m 10,5 C 17,8 C 16,1 km/h (3 Bft) 96,23 %
22.05.2017 12:56 19,7 C 20,6 C 59 % 1017,7 hPa 0,0 l/m 8,0 km/h (2 Bft) NO 43 2 min 0,000 mm 4,4 UV-I 781 W/m 11,5 C 19,0 C 12,9 km/h (3 Bft) 97,37 %
22.05.2017 12:58 19,8 C 20,6 C 57 % 1017,6 hPa 0,0 l/m 11,5 km/h (2 Bft) NO 45 2 min 0,000 mm 4,5 UV-I 811 W/m 11,0 C 17,9 C 16,1 km/h (3 Bft) 96,23 %
22.05.2017 13:00 20,1 C 20,6 C 57 % 1017,6 hPa 0,0 l/m 7,6 km/h (2 Bft) N-NO 20 2 min 0,432 mm 4,7 UV-I 871 W/m 11,3 C 19,6 C 14,5 km/h (3 Bft) 96,23 %
22.05.2017 13:02 20,3 C 20,6 C 53 % 1017,7 hPa 0,0 l/m 7,3 km/h (2 Bft) NO 48 2 min 0,000 mm 4,1 UV-I 824 W/m 10,4 C 19,9 C 12,9 km/h (3 Bft) 100,00 %
22.05.2017 13:04 20,3 C 20,6 C 54 % 1017,6 hPa 0,0 l/m 11,3 km/h (2 Bft) O-NO 66 2 min 0,000 mm 3,9 UV-I 638 W/m 10,7 C 18,6 C 17,7 km/h (3 Bft) 97,62 %
22.05.2017 13:06 20,2 C 20,6 C 54 % 1017,6 hPa 0,0 l/m 10,6 km/h (2 Bft) O-NO 65 2 min 0,000 mm 4,3 UV-I 740 W/m 10,6 C 18,7 C 16,1 km/h (3 Bft) 89,09 %
22.05.2017 13:08 20,2 C 20,6 C 52 % 1017,6 hPa 0,0 l/m 13,0 km/h (3 Bft) O 94 2 min 0,000 mm 4,4 UV-I 757 W/m 10,0 C 18,0 C 17,7 km/h (3 Bft) 95,74 %
22.05.2017 13:10 19,9 C 20,6 C 53 % 1017,7 hPa 0,0 l/m 7,9 km/h (2 Bft) O-NO 67 2 min 0,000 mm 4,1 UV-I 732 W/m 10,0 C 19,3 C 12,9 km/h (3 Bft) 92,31 %
22.05.2017 13:12 19,9 C 20,6 C 53 % 1017,6 hPa 0,0 l/m 9,1 km/h (2 Bft) O-NO 78 2 min 0,000 mm 4,4 UV-I 761 W/m 10,0 C 18,8 C 14,5 km/h (3 Bft) 92,00 %
22.05.2017 13:14 20,0 C 20,6 C 56 % 1017,5 hPa 0,0 l/m 5,9 km/h (2 Bft) NO 53 2 min 0,000 mm 4,7 UV-I 841 W/m 11,0 C 20,0 C 12,9 km/h (3 Bft) 95,45 %
22.05.2017 13:16 20,3 C 20,6 C 56 % 1017,6 hPa 0,0 l/m 12,6 km/h (3 Bft) NO 38 2 min 0,000 mm 4,9 UV-I 892 W/m 11,2 C 18,2 C 17,7 km/h (3 Bft) 95,45 %
22.05.2017 13:18 20,4 C 20,6 C 55 % 1017,5 hPa 0,0 l/m 15,2 km/h (3 Bft) NO 52 2 min 0,000 mm 5,3 UV-I 970 W/m 11,1 C 17,7 C 22,5 km/h (4 Bft) 92,86 %
22.05.2017 13:20 20,6 C 20,6 C 56 % 1017,5 hPa 0,0 l/m 13,3 km/h (3 Bft) O-NO 62 2 min 0,000 mm 5,0 UV-I 919 W/m 11,5 C 18,4 C 19,3 km/h (3 Bft) 93,62 %
22.05.2017 13:22 20,5 C 20,6 C 51 % 1017,6 hPa 0,0 l/m 13,2 km/h (3 Bft) NO 34 2 min 0,000 mm 4,7 UV-I 871 W/m 10,0 C 18,3 C 17,7 km/h (3 Bft) 96,00 %
22.05.2017 13:24 20,6 C 20,6 C 57 % 1017,5 hPa 0,0 l/m 11,1 km/h (2 Bft) NO 39 2 min 0,000 mm 4,3 UV-I 753 W/m 11,8 C 19,0 C 22,5 km/h (4 Bft) 97,56 %
22.05.2017 13:26 20,4 C 20,6 C 53 % 1017,5 hPa 0,0 l/m 14,3 km/h (3 Bft) NO 43 2 min 0,000 mm 3,8 UV-I 683 W/m 10,5 C 17,9 C 19,3 km/h (3 Bft) 90,57 %
22.05.2017 13:28 20,2 C 20,6 C 54 % 1017,5 hPa 0,0 l/m 13,3 km/h (3 Bft) O 84 2 min 0,000 mm 4,1 UV-I 651 W/m 10,6 C 17,9 C 19,3 km/h (3 Bft) 97,14 %
22.05.2017 13:30 20,2 C 20,6 C 53 % 1017,5 hPa 0,0 l/m 12,4 km/h (3 Bft) O-NO 69 2 min 0,000 mm 4,3 UV-I 736 W/m 10,3 C 18,1 C 17,7 km/h (3 Bft) 94,34 %
22.05.2017 13:32 20,2 C 20,6 C 56 % 1017,5 hPa 0,0 l/m 11,5 km/h (2 Bft) NO 46 2 min 0,000 mm 4,3 UV-I 747 W/m 11,1 C 18,4 C 19,3 km/h (3 Bft) 94,00 %
22.05.2017 13:34 20,3 C 20,6 C 54 % 1017,5 hPa 0,0 l/m 12,9 km/h (3 Bft) N-NO 26 2 min 0,000 mm 4,2 UV-I 738 W/m 10,7 C 18,1 C 20,9 km/h (4 Bft) 94,74 %
22.05.2017 13:36 20,4 C 20,6 C 57 % 1017,5 hPa 0,0 l/m 13,6 km/h (3 Bft) NO 56 2 min 0,000 mm 3,9 UV-I 668 W/m 11,6 C 18,1 C 19,3 km/h (3 Bft) 96,43 %
22.05.2017 13:38 20,4 C 20,6 C 53 % 1017,4 hPa 0,0 l/m 11,3 km/h (2 Bft) O-NO 78 2 min 0,000 mm 4,3 UV-I 691 W/m 10,5 C 18,7 C 17,7 km/h (3 Bft) 94,74 %
22.05.2017 13:40 20,6 C 20,6 C 54 % 1017,4 hPa 0,0 l/m 10,7 km/h (2 Bft) NO 55 2 min 0,000 mm 4,5 UV-I 789 W/m 11,0 C 19,1 C 16,1 km/h (3 Bft) 96,00 %
22.05.2017 13:42 20,8 C 20,6 C 56 % 1017,4 hPa 0,0 l/m 7,2 km/h (2 Bft) O-NO 69 2 min 0,000 mm 5,1 UV-I 935 W/m 11,7 C 20,5 C 12,9 km/h (3 Bft) 97,44 %
22.05.2017 13:44 21,1 C 20,6 C 55 % 1017,3 hPa 0,0 l/m 8,1 km/h (2 Bft) O 96 2 min 0,000 mm 5,1 UV-I 933 W/m 11,7 C 20,5 C 14,5 km/h (3 Bft) 98,18 %
22.05.2017 13:46 21,0 C 20,6 C 50 % 1017,3 hPa 0,0 l/m 14,1 km/h (3 Bft) O-NO 65 2 min 0,000 mm 5,2 UV-I 928 W/m 10,2 C 18,7 C 19,3 km/h (3 Bft) 97,62 %
22.05.2017 13:48 20,9 C 20,6 C 48 % 1017,4 hPa 0,0 l/m 13,9 km/h (3 Bft) O-NO 71 2 min 0,000 mm 5,1 UV-I 903 W/m 9,5 C 18,6 C 20,9 km/h (4 Bft) 96,43 %
22.05.2017 13:50 20,9 C 20,6 C 49 % 1017,4 hPa 0,0 l/m 13,7 km/h (3 Bft) NO 53 2 min 0,000 mm 4,9 UV-I 902 W/m 9,8 C 18,6 C 19,3 km/h (3 Bft) 100,00 %
22.05.2017 13:52 20,9 C 20,6 C 49 % 1017,3 hPa 0,0 l/m 11,6 km/h (2 Bft) O-NO 65 2 min 0,000 mm 5,0 UV-I 904 W/m 9,8 C 19,2 C 19,3 km/h (3 Bft) 94,34 %
22.05.2017 13:54 20,9 C 20,6 C 49 % 1017,3 hPa 0,0 l/m 10,4 km/h (2 Bft) NO 42 2 min 0,000 mm 5,0 UV-I 916 W/m 9,8 C 19,5 C 19,3 km/h (3 Bft) 95,12 %
22.05.2017 13:56 21,1 C 20,6 C 53 % 1017,2 hPa 0,0 l/m 12,9 km/h (3 Bft) N-NO 33 2 min 0,000 mm 5,1 UV-I 937 W/m 11,1 C 19,1 C 19,3 km/h (3 Bft) 100,00 %
22.05.2017 13:58 21,2 C 20,6 C 51 % 1017,2 hPa 0,0 l/m 13,9 km/h (3 Bft) O-NO 59 2 min 0,000 mm 4,6 UV-I 956 W/m 10,7 C 18,9 C 24,1 km/h (4 Bft) 96,00 %
22.05.2017 14:00 21,1 C 20,6 C 49 % 1017,2 hPa 0,0 l/m 15,9 km/h (3 Bft) NO 56 2 min 0,000 mm 4,1 UV-I 714 W/m 10,0 C 18,4 C 24,1 km/h (4 Bft) 97,56 %
22.05.2017 14:02 20,9 C 20,6 C 46 % 1017,3 hPa 0,0 l/m 15,3 km/h (3 Bft) NO 54 2 min 0,533 mm 4,3 UV-I 662 W/m 8,8 C 18,3 C 22,5 km/h (4 Bft) 98,11 %
22.05.2017 14:04 20,8 C 20,6 C 48 % 1017,2 hPa 0,0 l/m 14,1 km/h (3 Bft) NO 47 2 min 0,000 mm 4,0 UV-I 796 W/m 9,4 C 18,4 C 20,9 km/h (4 Bft) 89,36 %
22.05.2017 14:06 20,7 C 20,6 C 44 % 1017,2 hPa 0,0 l/m 15,4 km/h (3 Bft) O 79 2 min 0,000 mm 3,1 UV-I 796 W/m 8,0 C 18,0 C 20,9 km/h (4 Bft) 93,18 %
22.05.2017 14:08 20,8 C 20,6 C 46 % 1017,1 hPa 0,0 l/m 13,2 km/h (3 Bft) O-NO 70 2 min 0,000 mm 4,3 UV-I 826 W/m 8,8 C 18,6 C 19,3 km/h (3 Bft) 100,00 %
22.05.2017 14:10 20,9 C 20,6 C 47 % 1017,1 hPa 0,0 l/m 15,0 km/h (3 Bft) NO 34 2 min 0,000 mm 4,6 UV-I 928 W/m 9,2 C 18,3 C 19,3 km/h (3 Bft) 95,12 %
22.05.2017 14:12 21,1 C 20,6 C 48 % 1017,1 hPa 0,0 l/m 13,1 km/h (3 Bft) NO 45 2 min 0,000 mm 3,3 UV-I 784 W/m 9,7 C 19,0 C 17,7 km/h (3 Bft) 96,67 %
22.05.2017 14:14 21,0 C 20,6 C 45 % 1017,1 hPa 0,0 l/m 12,6 km/h (3 Bft) N-NO 22 2 min 0,000 mm 3,4 UV-I 489 W/m 8,6 C 19,0 C 17,7 km/h (3 Bft) 94,83 %
22.05.2017 14:16 21,1 C 20,6 C 49 % 1017,1 hPa 0,0 l/m 12,4 km/h (3 Bft) O-NO 66 2 min 0,000 mm 4,0 UV-I 694 W/m 10,0 C 19,2 C 17,7 km/h (3 Bft) 100,00 %
22.05.2017 14:18 21,0 C 20,6 C 49 % 1017,1 hPa 0,0 l/m 13,4 km/h (3 Bft) O-NO 61 2 min 0,000 mm 4,0 UV-I 694 W/m 9,9 C 18,8 C 17,7 km/h (3 Bft) 93,42 %
22.05.2017 14:20 21,0 C 20,6 C 46 % 1017,1 hPa 0,0 l/m 15,4 km/h (3 Bft) N-NW 330 2 min 0,000 mm 4,1 UV-I 770 W/m 8,9 C 18,4 C 22,5 km/h (4 Bft) 94,92 %
22.05.2017 14:22 21,1 C 20,6 C 45 % 1017,1 hPa 0,0 l/m 14,7 km/h (3 Bft) NO 56 2 min 0,000 mm 4,5 UV-I 872 W/m 8,7 C 18,6 C 20,9 km/h (4 Bft) 95,12 %
22.05.2017 14:24 21,1 C 20,6 C 47 % 1017,0 hPa 0,0 l/m 7,9 km/h (2 Bft) NO 47 2 min 0,000 mm 4,4 UV-I 777 W/m 9,3 C 20,5 C 11,3 km/h (2 Bft) 92,45 %
22.05.2017 14:26 21,3 C 20,6 C 48 % 1017,0 hPa 0,0 l/m 11,8 km/h (2 Bft) NO 45 2 min 0,000 mm 4,8 UV-I 779 W/m 9,8 C 19,6 C 16,1 km/h (3 Bft) 97,22 %
22.05.2017 14:28 21,5 C 20,6 C 46 % 1017,0 hPa 0,0 l/m 12,8 km/h (3 Bft) NO 44 2 min 0,000 mm 5,1 UV-I 848 W/m 9,4 C 19,6 C 19,3 km/h (3 Bft) 95,74 %
22.05.2017 14:30 21,7 C 21,1 C 48 % 1017,0 hPa 0,0 l/m 10,5 km/h (2 Bft) NO 45 2 min 0,000 mm 4,7 UV-I 1011 W/m 10,2 C 20,4 C 16,1 km/h (3 Bft) 98,11 %
22.05.2017 14:32 21,8 C 21,1 C 45 % 1016,9 hPa 0,0 l/m 10,3 km/h (2 Bft) O-NO 61 2 min 0,000 mm 3,9 UV-I 777 W/m 9,3 C 20,5 C 17,7 km/h (3 Bft) 97,73 %
22.05.2017 14:34 21,7 C 21,1 C 43 % 1017,0 hPa 0,0 l/m 13,8 km/h (3 Bft) O-NO 75 2 min 0,000 mm 3,8 UV-I 595 W/m 8,6 C 19,6 C 20,9 km/h (4 Bft) 96,00 %
22.05.2017 14:36 21,4 C 21,1 C 44 % 1016,9 hPa 0,0 l/m 15,2 km/h (3 Bft) O-NO 65 2 min 0,000 mm 4,1 UV-I 685 W/m 8,6 C 18,9 C 19,3 km/h (3 Bft) 95,74 %
22.05.2017 14:38 21,5 C 21,1 C 45 % 1016,9 hPa 0,0 l/m 14,8 km/h (3 Bft) O-NO 58 2 min 0,000 mm 4,2 UV-I 792 W/m 9,1 C 19,1 C 19,3 km/h (3 Bft) 93,62 %
22.05.2017 14:40 21,5 C 21,1 C 44 % 1016,9 hPa 0,0 l/m 13,8 km/h (3 Bft) N-NO 14 2 min 0,000 mm 4,4 UV-I 891 W/m 8,7 C 19,3 C 19,3 km/h (3 Bft) 97,37 %
22.05.2017 14:42 21,7 C 21,1 C 47 % 1016,9 hPa 0,0 l/m 13,0 km/h (3 Bft) O-NO 58 2 min 0,000 mm 4,4 UV-I 847 W/m 9,9 C 19,7 C 20,9 km/h (4 Bft) 100,00 %
22.05.2017 14:44 21,6 C 21,1 C 44 % 1016,9 hPa 0,0 l/m 13,3 km/h (3 Bft) NO 42 2 min 0,000 mm 3,6 UV-I 676 W/m 8,8 C 19,6 C 17,7 km/h (3 Bft) 94,55 %
22.05.2017 14:46 21,3 C 21,1 C 49 % 1016,8 hPa 0,0 l/m 10,5 km/h (2 Bft) NO 36 2 min 0,000 mm 3,6 UV-I 537 W/m 10,1 C 19,9 C 16,1 km/h (3 Bft) 100,00 %
22.05.2017 14:48 21,2 C 21,1 C 47 % 1016,8 hPa 0,0 l/m 8,7 km/h (2 Bft) NO 55 2 min 0,000 mm 3,4 UV-I 536 W/m 9,4 C 20,4 C 14,5 km/h (3 Bft) 98,21 %
22.05.2017 14:50 21,2 C 21,1 C 47 % 1016,7 hPa 0,0 l/m 6,9 km/h (2 Bft) NO 40 2 min 0,000 mm 3,0 UV-I 532 W/m 9,4 C 21,0 C 12,9 km/h (3 Bft) 97,37 %
22.05.2017 14:52 21,2 C 21,1 C 47 % 1016,7 hPa 0,0 l/m 7,5 km/h (2 Bft) O-NO 69 0 min 0,000 mm 2,8 UV-I 315 W/m 9,4 C 20,8 C 14,5 km/h (3 Bft) 100,00 %
22.05.2017 14:54 21,2 C 21,1 C 47 % 1016,7 hPa 0,0 l/m 10,5 km/h (2 Bft) NO 47 0 min 0,000 mm 3,8 UV-I 335 W/m 9,4 C 19,8 C 14,5 km/h (3 Bft) 97,37 %
22.05.2017 14:56 21,3 C 21,1 C 48 % 1016,7 hPa 0,0 l/m 14,1 km/h (3 Bft) NO 41 2 min 0,000 mm 4,2 UV-I 865 W/m 9,8 C 19,0 C 19,3 km/h (3 Bft) 100,00 %
22.05.2017 14:58 21,6 C 21,1 C 48 % 1016,6 hPa 0,0 l/m 10,0 km/h (2 Bft) NO 47 2 min 0,000 mm 4,4 UV-I 902 W/m 10,1 C 20,4 C 19,3 km/h (3 Bft) 96,00 %
22.05.2017 15:00 21,8 C 21,1 C 50 % 1016,6 hPa 0,0 l/m 11,1 km/h (2 Bft) NO 39 2 min 0,000 mm 4,3 UV-I 885 W/m 10,9 C 20,3 C 22,5 km/h (4 Bft) 100,00 %
22.05.2017 15:02 21,9 C 21,1 C 46 % 1016,5 hPa 0,0 l/m 14,1 km/h (3 Bft) N-NO 25 2 min 0,534 mm 4,3 UV-I 876 W/m 9,7 C 19,7 C 20,9 km/h (4 Bft) 100,00 %
22.05.2017 15:04 21,8 C 21,1 C 44 % 1016,6 hPa 0,0 l/m 15,3 km/h (3 Bft) O-NO 59 2 min 0,000 mm 4,2 UV-I 858 W/m 9,0 C 19,4 C 24,1 km/h (4 Bft) 100,00 %
22.05.2017 15:06 21,9 C 21,1 C 44 % 1016,5 hPa 0,0 l/m 14,2 km/h (3 Bft) O-NO 59 2 min 0,000 mm 4,2 UV-I 846 W/m 9,1 C 19,7 C 19,3 km/h (3 Bft) 100,00 %
22.05.2017 15:08 22,0 C 21,1 C 51 % 1016,4 hPa 0,0 l/m 10,3 km/h (2 Bft) NO 53 2 min 0,000 mm 4,1 UV-I 832 W/m 11,4 C 20,8 C 16,1 km/h (3 Bft) 97,73 %
22.05.2017 15:10 22,2 C 21,1 C 47 % 1016,4 hPa 0,0 l/m 9,5 km/h (2 Bft) NO 53 2 min 0,000 mm 4,0 UV-I 819 W/m 10,3 C 21,2 C 16,1 km/h (3 Bft) 98,21 %
22.05.2017 15:12 22,3 C 21,1 C 44 % 1016,5 hPa 0,0 l/m 15,1 km/h (3 Bft) O-NO 63 2 min 0,000 mm 4,0 UV-I 810 W/m 9,5 C 20,0 C 24,1 km/h (4 Bft) 100,00 %
22.05.2017 15:14 22,3 C 21,1 C 44 % 1016,4 hPa 0,0 l/m 17,6 km/h (3 Bft) O 80 2 min 0,000 mm 3,9 UV-I 790 W/m 9,5 C 19,6 C 24,1 km/h (4 Bft) 100,00 %
22.05.2017 15:16 22,1 C 21,1 C 43 % 1016,4 hPa 0,0 l/m 14,8 km/h (3 Bft) O-NO 57 2 min 0,000 mm 3,8 UV-I 776 W/m 8,9 C 19,8 C 19,3 km/h (3 Bft) 100,00 %
22.05.2017 15:18 22,1 C 21,1 C 45 % 1016,4 hPa 0,0 l/m 16,3 km/h (3 Bft) O-NO 59 2 min 0,000 mm 3,8 UV-I 779 W/m 9,6 C 19,5 C 22,5 km/h (4 Bft) 100,00 %
22.05.2017 15:20 22,1 C 21,1 C 44 % 1016,3 hPa 0,0 l/m 14,9 km/h (3 Bft) O-NO 66 2 min 0,000 mm 3,8 UV-I 780 W/m 9,3 C 19,8 C 19,3 km/h (3 Bft) 98,21 %
22.05.2017 15:23 22,1 C 21,1 C 46 % 1016,4 hPa 0,0 l/m 11,5 km/h (2 Bft) O-NO 62 3 min 0,000 mm 3,7 UV-I 744 W/m 9,9 C 20,6 C 25,7 km/h (4 Bft) 98,68 %
22.05.2017 15:24 22,1 C 21,1 C 44 % 1016,4 hPa 0,0 l/m 17,3 km/h (3 Bft) O-NO 67 1 min 0,000 mm 3,5 UV-I 684 W/m 9,3 C 19,4 C 20,9 km/h (4 Bft) 93,33 %
22.05.2017 15:26 21,9 C 21,1 C 45 % 1016,3 hPa 0,0 l/m 14,4 km/h (3 Bft) O 89 2 min 0,000 mm 3,5 UV-I 692 W/m 9,4 C 19,7 C 20,9 km/h (4 Bft) 100,00 %
22.05.2017 15:28 21,9 C 21,1 C 45 % 1016,3 hPa 0,0 l/m 10,9 km/h (2 Bft) NO 34 2 min 0,000 mm 3,6 UV-I 739 W/m 9,4 C 20,5 C 14,5 km/h (3 Bft) 98,39 %
22.05.2017 15:30 21,9 C 21,1 C 48 % 1016,2 hPa 0,0 l/m 9,7 km/h (2 Bft) O-NO 65 2 min 0,000 mm 3,5 UV-I 736 W/m 10,4 C 20,8 C 16,1 km/h (3 Bft) 97,73 %
22.05.2017 15:32 22,1 C 21,1 C 47 % 1016,2 hPa 0,0 l/m 8,4 km/h (2 Bft) O 80 2 min 0,000 mm 3,5 UV-I 744 W/m 10,3 C 21,4 C 14,5 km/h (3 Bft) 100,00 %
22.05.2017 15:34 22,2 C 21,1 C 49 % 1016,2 hPa 0,0 l/m 13,6 km/h (3 Bft) NO 43 2 min 0,000 mm 3,5 UV-I 717 W/m 11,0 C 20,2 C 20,9 km/h (4 Bft) 98,11 %
22.05.2017 15:36 22,2 C 21,1 C 45 % 1016,3 hPa 0,0 l/m 14,5 km/h (3 Bft) O-NO 66 2 min 0,000 mm 3,4 UV-I 729 W/m 9,7 C 20,0 C 22,5 km/h (4 Bft) 100,00 %
22.05.2017 15:38 22,3 C 21,1 C 46 % 1016,3 hPa 0,0 l/m 10,0 km/h (2 Bft) O 87 2 min 0,000 mm 3,4 UV-I 734 W/m 10,1 C 21,2 C 17,7 km/h (3 Bft) 97,87 %
22.05.2017 15:40 22,3 C 21,1 C 47 % 1016,3 hPa 0,0 l/m 12,7 km/h (3 Bft) O-NO 71 2 min 0,000 mm 3,4 UV-I 731 W/m 10,4 C 20,5 C 16,1 km/h (3 Bft) 95,74 %
22.05.2017 15:42 22,2 C 21,1 C 46 % 1016,2 hPa 0,0 l/m 10,2 km/h (2 Bft) NO 55 2 min 0,000 mm 3,3 UV-I 739 W/m 10,0 C 21,0 C 17,7 km/h (3 Bft) 100,00 %
22.05.2017 15:44 22,2 C 21,1 C 47 % 1016,2 hPa 0,0 l/m 8,1 km/h (2 Bft) O-NO 76 2 min 0,000 mm 3,3 UV-I 755 W/m 10,3 C 21,6 C 16,1 km/h (3 Bft) 97,44 %
22.05.2017 15:46 22,3 C 21,1 C 47 % 1016,2 hPa 0,0 l/m 7,8 km/h (2 Bft) NO 44 2 min 0,000 mm 3,3 UV-I 755 W/m 10,4 C 21,8 C 14,5 km/h (3 Bft) 100,00 %
22.05.2017 15:48 22,3 C 21,1 C 48 % 1016,2 hPa 0,0 l/m 7,8 km/h (2 Bft) O-NO 58 2 min 0,000 mm 3,3 UV-I 737 W/m 10,8 C 21,8 C 14,5 km/h (3 Bft) 98,00 %
22.05.2017 15:50 22,3 C 21,1 C 48 % 1016,2 hPa 0,0 l/m 8,7 km/h (2 Bft) O-NO 69 2 min 0,000 mm 3,2 UV-I 724 W/m 10,8 C 21,6 C 16,1 km/h (3 Bft) 98,00 %
22.05.2017 15:52 22,4 C 21,1 C 46 % 1016,2 hPa 0,0 l/m 6,1 km/h (2 Bft) O-NO 66 2 min 0,000 mm 3,2 UV-I 718 W/m 10,2 C 22,4 C 12,9 km/h (3 Bft) 97,87 %
22.05.2017 15:54 22,4 C 21,1 C 47 % 1016,2 hPa 0,0 l/m 9,8 km/h (2 Bft) NO 45 2 min 0,000 mm 3,1 UV-I 705 W/m 10,5 C 21,3 C 14,5 km/h (3 Bft) 95,74 %
22.05.2017 15:56 22,5 C 21,1 C 48 % 1016,2 hPa 0,0 l/m 13,8 km/h (3 Bft) O-NO 71 2 min 0,000 mm 3,1 UV-I 698 W/m 10,9 C 20,5 C 19,3 km/h (3 Bft) 96,55 %
22.05.2017 15:58 22,4 C 21,1 C 47 % 1016,2 hPa 0,0 l/m 15,7 km/h (3 Bft) O-NO 70 2 min 0,000 mm 3,0 UV-I 689 W/m 10,5 C 20,0 C 24,1 km/h (4 Bft) 95,59 %
22.05.2017 16:00 22,5 C 21,1 C 49 % 1016,2 hPa 0,0 l/m 13,6 km/h (3 Bft) O-NO 72 2 min 0,533 mm 3,0 UV-I 678 W/m 11,2 C 20,6 C 19,3 km/h (3 Bft) 97,56 %
22.05.2017 16:02 22,4 C 21,1 C 47 % 1016,1 hPa 0,0 l/m 8,4 km/h (2 Bft) O-NO 59 2 min 0,000 mm 2,9 UV-I 671 W/m 10,5 C 21,7 C 12,9 km/h (3 Bft) 98,00 %
22.05.2017 16:04 22,3 C 21,1 C 49 % 1016,2 hPa 0,0 l/m 7,6 km/h (2 Bft) O-NO 76 2 min 0,000 mm 2,9 UV-I 662 W/m 11,1 C 21,9 C 12,9 km/h (3 Bft) 96,00 %
22.05.2017 16:06 22,4 C 21,1 C 50 % 1016,1 hPa 0,0 l/m 10,0 km/h (2 Bft) N-NO 15 2 min 0,000 mm 2,7 UV-I 659 W/m 11,5 C 21,3 C 12,9 km/h (3 Bft) 95,45 %
22.05.2017 16:08 22,5 C 21,1 C 50 % 1016,1 hPa 0,0 l/m 9,9 km/h (2 Bft) N-NO 12 2 min 0,000 mm 2,8 UV-I 660 W/m 11,5 C 21,4 C 19,3 km/h (3 Bft) 97,56 %
22.05.2017 16:10 22,6 C 21,1 C 48 % 1016,1 hPa 0,0 l/m 10,3 km/h (2 Bft) O-NO 67 2 min 0,000 mm 2,8 UV-I 666 W/m 11,0 C 21,4 C 22,5 km/h (4 Bft) 94,00 %
22.05.2017 16:12 22,6 C 21,1 C 47 % 1016,1 hPa 0,0 l/m 16,7 km/h (3 Bft) O 84 2 min 0,000 mm 2,7 UV-I 665 W/m 10,7 C 20,1 C 22,5 km/h (4 Bft) 92,68 %
22.05.2017 16:14 22,5 C 21,1 C 47 % 1016,1 hPa 0,0 l/m 12,3 km/h (3 Bft) O-SO 113 2 min 0,000 mm 2,7 UV-I 662 W/m 10,6 C 20,8 C 16,1 km/h (3 Bft) 96,00 %
22.05.2017 16:16 22,4 C 21,1 C 47 % 1016,0 hPa 0,0 l/m 10,6 km/h (2 Bft) NO 47 2 min 0,000 mm 2,6 UV-I 653 W/m 10,5 C 21,1 C 16,1 km/h (3 Bft) 96,00 %
22.05.2017 16:18 22,5 C 21,1 C 48 % 1015,9 hPa 0,0 l/m 10,8 km/h (2 Bft) NO 55 2 min 0,000 mm 2,6 UV-I 645 W/m 10,9 C 21,2 C 17,7 km/h (3 Bft) 98,00 %
22.05.2017 16:20 22,6 C 21,1 C 48 % 1016,0 hPa 0,0 l/m 11,6 km/h (2 Bft) O-NO 57 2 min 0,000 mm 2,5 UV-I 636 W/m 11,0 C 21,1 C 17,7 km/h (3 Bft) 94,87 %
22.05.2017 16:23 22,6 C 21,1 C 46 % 1015,9 hPa 0,0 l/m 9,8 km/h (2 Bft) O 82 3 min 0,000 mm 2,5 UV-I 631 W/m 10,4 C 21,6 C 17,7 km/h (3 Bft) 94,94 %
22.05.2017 16:24 22,6 C 21,1 C 46 % 1015,9 hPa 0,0 l/m 10,2 km/h (2 Bft) NO 39 1 min 0,000 mm 2,4 UV-I 630 W/m 10,4 C 21,5 C 14,5 km/h (3 Bft) 91,67 %
22.05.2017 16:26 22,5 C 21,1 C 48 % 1016,0 hPa 0,0 l/m 8,5 km/h (2 Bft) O-NO 68 2 min 0,000 mm 2,4 UV-I 636 W/m 10,9 C 21,8 C 14,5 km/h (3 Bft) 100,00 %
22.05.2017 16:28 22,5 C 21,1 C 46 % 1015,9 hPa 0,0 l/m 14,2 km/h (3 Bft) NO 55 2 min 0,000 mm 2,4 UV-I 639 W/m 10,3 C 20,4 C 20,9 km/h (4 Bft) 94,34 %
22.05.2017 16:30 22,4 C 21,1 C 47 % 1015,9 hPa 0,0 l/m 13,3 km/h (3 Bft) NO 36 2 min 0,000 mm 2,2 UV-I 638 W/m 10,5 C 20,5 C 20,9 km/h (4 Bft) 100,00 %
22.05.2017 16:32 22,3 C 21,1 C 46 % 1015,9 hPa 0,0 l/m 13,8 km/h (3 Bft) NO 44 2 min 0,000 mm 2,0 UV-I 514 W/m 10,1 C 20,3 C 17,7 km/h (3 Bft) 96,00 %
22.05.2017 16:34 22,2 C 21,1 C 49 % 1015,8 hPa 0,0 l/m 7,1 km/h (2 Bft) O 83 2 min 0,000 mm 2,2 UV-I 466 W/m 11,0 C 22,0 C 17,7 km/h (3 Bft) 100,00 %
22.05.2017 16:36 22,2 C 21,1 C 51 % 1015,8 hPa 0,0 l/m 8,0 km/h (2 Bft) NO 53 2 min 0,000 mm 2,2 UV-I 628 W/m 11,6 C 21,7 C 14,5 km/h (3 Bft) 100,00 %
22.05.2017 16:38 22,3 C 21,1 C 47 % 1015,8 hPa 0,0 l/m 10,7 km/h (2 Bft) O 82 2 min 0,000 mm 2,2 UV-I 619 W/m 10,4 C 21,0 C 14,5 km/h (3 Bft) 98,11 %
22.05.2017 16:40 22,4 C 21,1 C 47 % 1015,8 hPa 0,0 l/m 9,1 km/h (2 Bft) O 88 2 min 0,000 mm 2,2 UV-I 600 W/m 10,5 C 21,5 C 14,5 km/h (3 Bft) 100,00 %
22.05.2017 16:42 22,4 C 21,1 C 47 % 1015,8 hPa 0,0 l/m 11,5 km/h (2 Bft) O-NO 62 2 min 0,000 mm 2,1 UV-I 587 W/m 10,5 C 20,9 C 19,3 km/h (3 Bft) 96,23 %
22.05.2017 16:44 22,6 C 21,1 C 48 % 1015,7 hPa 0,0 l/m 11,2 km/h (2 Bft) NO 44 2 min 0,000 mm 2,1 UV-I 576 W/m 11,0 C 21,2 C 16,1 km/h (3 Bft) 94,74 %
22.05.2017 16:46 22,6 C 21,1 C 47 % 1015,7 hPa 0,0 l/m 9,9 km/h (2 Bft) O-NO 64 2 min 0,000 mm 2,1 UV-I 568 W/m 10,7 C 21,5 C 14,5 km/h (3 Bft) 100,00 %
22.05.2017 16:48 22,6 C 21,1 C 46 % 1015,7 hPa 0,0 l/m 8,5 km/h (2 Bft) O-NO 67 2 min 0,000 mm 2,0 UV-I 563 W/m 10,4 C 21,9 C 14,5 km/h (3 Bft) 98,11 %
22.05.2017 16:50 22,6 C 21,1 C 50 % 1015,7 hPa 0,0 l/m 5,0 km/h (1 Bft) NO 44 2 min 0,000 mm 2,0 UV-I 560 W/m 11,6 C 22,6 C 8,0 km/h (2 Bft) 98,00 %
22.05.2017 16:52 22,6 C 21,1 C 47 % 1015,7 hPa 0,0 l/m 11,5 km/h (2 Bft) O-NO 71 2 min 0,000 mm 2,0 UV-I 557 W/m 10,7 C 21,1 C 22,5 km/h (4 Bft) 100,00 %
22.05.2017 16:54 22,5 C 21,1 C 46 % 1015,7 hPa 0,0 l/m 13,3 km/h (3 Bft) O-NO 66 2 min 0,000 mm 1,9 UV-I 554 W/m 10,3 C 20,6 C 20,9 km/h (4 Bft) 96,23 %
22.05.2017 16:56 22,4 C 21,1 C 46 % 1015,7 hPa 0,0 l/m 9,1 km/h (2 Bft) NO 51 2 min 0,000 mm 1,9 UV-I 549 W/m 10,2 C 21,5 C 16,1 km/h (3 Bft) 97,37 %
22.05.2017 16:58 22,4 C 21,1 C 46 % 1015,7 hPa 0,0 l/m 6,6 km/h (2 Bft) NO 53 2 min 0,000 mm 1,8 UV-I 543 W/m 10,2 C 22,3 C 9,7 km/h (2 Bft) 97,78 %
22.05.2017 17:00 22,4 C 21,1 C 45 % 1015,6 hPa 0,0 l/m 5,2 km/h (1 Bft) O-NO 61 2 min 0,000 mm 1,8 UV-I 536 W/m 9,9 C 22,4 C 8,0 km/h (2 Bft) 100,00 %
22.05.2017 17:02 22,6 C 21,1 C 51 % 1015,7 hPa 0,0 l/m 11,9 km/h (2 Bft) NO 42 2 min 0,432 mm 1,8 UV-I 529 W/m 11,9 C 21,0 C 17,7 km/h (3 Bft) 100,00 %
22.05.2017 17:04 22,6 C 21,1 C 48 % 1015,7 hPa 0,0 l/m 12,2 km/h (2 Bft) O 85 2 min 0,000 mm 1,7 UV-I 523 W/m 11,0 C 21,0 C 17,7 km/h (3 Bft) 94,00 %
22.05.2017 17:06 22,6 C 21,1 C 47 % 1015,6 hPa 0,0 l/m 10,3 km/h (2 Bft) O-SO 104 2 min 0,000 mm 1,7 UV-I 520 W/m 10,7 C 21,4 C 16,1 km/h (3 Bft) 93,18 %
22.05.2017 17:08 22,6 C 21,1 C 45 % 1015,7 hPa 0,0 l/m 12,3 km/h (3 Bft) O 80 2 min 0,000 mm 1,6 UV-I 517 W/m 10,1 C 21,0 C 17,7 km/h (3 Bft) 92,45 %
22.05.2017 17:10 22,6 C 21,1 C 48 % 1015,6 hPa 0,0 l/m 7,8 km/h (2 Bft) O-NO 57 2 min 0,000 mm 1,6 UV-I 518 W/m 11,0 C 22,1 C 14,5 km/h (3 Bft) 95,12 %
22.05.2017 17:12 22,6 C 21,1 C 46 % 1015,6 hPa 0,0 l/m 10,5 km/h (2 Bft) NO 53 2 min 0,000 mm 1,6 UV-I 523 W/m 10,4 C 21,4 C 16,1 km/h (3 Bft) 97,56 %
22.05.2017 17:14 22,6 C 21,1 C 46 % 1015,6 hPa 0,0 l/m 8,8 km/h (2 Bft) NO 38 2 min 0,000 mm 1,5 UV-I 512 W/m 10,4 C 21,8 C 14,5 km/h (3 Bft) 96,23 %
22.05.2017 17:16 22,6 C 21,1 C 50 % 1015,5 hPa 0,0 l/m 9,5 km/h (2 Bft) NO 38 2 min 0,000 mm 1,5 UV-I 524 W/m 11,6 C 21,6 C 14,5 km/h (3 Bft) 94,00 %
22.05.2017 17:18 22,5 C 21,1 C 50 % 1015,5 hPa 0,0 l/m 8,9 km/h (2 Bft) NO 46 2 min 0,000 mm 1,4 UV-I 488 W/m 11,5 C 21,7 C 14,5 km/h (3 Bft) 91,43 %
22.05.2017 17:20 22,4 C 21,1 C 46 % 1015,4 hPa 0,0 l/m 8,5 km/h (2 Bft) NO 34 2 min 0,000 mm 1,2 UV-I 292 W/m 10,2 C 21,7 C 14,5 km/h (3 Bft) 96,08 %
22.05.2017 17:22 22,2 C 21,1 C 47 % 1015,5 hPa 0,0 l/m 6,3 km/h (2 Bft) O-NO 64 0 min 0,000 mm 1,0 UV-I 171 W/m 10,3 C 22,2 C 11,3 km/h (2 Bft) 95,45 %
22.05.2017 17:24 22,0 C 21,1 C 49 % 1015,5 hPa 0,0 l/m 8,4 km/h (2 Bft) O 92 0 min 0,000 mm 1,0 UV-I 183 W/m 10,8 C 21,3 C 12,9 km/h (3 Bft) 91,07 %
22.05.2017 17:26 21,9 C 21,1 C 47 % 1015,5 hPa 0,0 l/m 8,2 km/h (2 Bft) O-NO 61 0 min 0,000 mm 1,0 UV-I 203 W/m 10,1 C 21,3 C 14,5 km/h (3 Bft) 97,37 %
22.05.2017 17:28 21,8 C 21,1 C 48 % 1015,5 hPa 0,0 l/m 9,6 km/h (2 Bft) O-NO 69 0 min 0,000 mm 1,0 UV-I 210 W/m 10,3 C 20,7 C 14,5 km/h (3 Bft) 96,61 %
22.05.2017 17:30 21,7 C 21,1 C 48 % 1015,5 hPa 0,0 l/m 6,2 km/h (2 Bft) O 95 0 min 0,000 mm 0,9 UV-I 206 W/m 10,2 C 21,7 C 11,3 km/h (2 Bft) 92,68 %
22.05.2017 17:32 21,6 C 21,1 C 49 % 1015,5 hPa 0,0 l/m 7,8 km/h (2 Bft) O-NO 77 0 min 0,000 mm 0,9 UV-I 201 W/m 10,4 C 21,1 C 14,5 km/h (3 Bft) 97,73 %
22.05.2017 17:34 21,6 C 21,1 C 47 % 1015,5 hPa 0,0 l/m 8,8 km/h (2 Bft) NO 51 0 min 0,000 mm 0,8 UV-I 193 W/m 9,8 C 20,8 C 16,1 km/h (3 Bft) 98,00 %
22.05.2017 17:36 21,4 C 21,1 C 49 % 1015,4 hPa 0,0 l/m 5,3 km/h (1 Bft) O-NO 65 0 min 0,000 mm 0,8 UV-I 189 W/m 10,2 C 21,4 C 8,0 km/h (2 Bft) 86,00 %
22.05.2017 17:38 21,4 C 21,1 C 48 % 1015,4 hPa 0,0 l/m 5,7 km/h (1 Bft) NO 50 0 min 0,000 mm 0,8 UV-I 183 W/m 9,9 C 21,4 C 8,0 km/h (2 Bft) 94,87 %
22.05.2017 17:40 21,4 C 21,1 C 49 % 1015,5 hPa 0,0 l/m 8,1 km/h (2 Bft) O-NO 70 0 min 0,000 mm 0,8 UV-I 183 W/m 10,2 C 20,8 C 12,9 km/h (3 Bft) 96,36 %
22.05.2017 17:42 21,4 C 21,1 C 49 % 1015,5 hPa 0,0 l/m 9,2 km/h (2 Bft) O-NO 74 0 min 0,000 mm 0,8 UV-I 186 W/m 10,2 C 20,4 C 14,5 km/h (3 Bft) 97,62 %
22.05.2017 17:44 21,3 C 21,1 C 50 % 1015,5 hPa 0,0 l/m 10,8 km/h (2 Bft) O-NO 75 0 min 0,000 mm 0,8 UV-I 188 W/m 10,4 C 19,8 C 14,5 km/h (3 Bft) 92,45 %
22.05.2017 17:46 21,3 C 21,1 C 49 % 1015,5 hPa 0,0 l/m 10,3 km/h (2 Bft) O 80 0 min 0,000 mm 0,7 UV-I 188 W/m 10,1 C 20,0 C 14,5 km/h (3 Bft) 97,87 %
22.05.2017 17:48 21,2 C 21,1 C 51 % 1015,5 hPa 0,0 l/m 7,6 km/h (2 Bft) O-NO 65 0 min 0,000 mm 0,7 UV-I 186 W/m 10,7 C 20,8 C 11,3 km/h (2 Bft) 95,74 %
22.05.2017 17:50 21,2 C 21,1 C 50 % 1015,6 hPa 0,0 l/m 9,6 km/h (2 Bft) O-NO 74 0 min 0,000 mm 0,7 UV-I 186 W/m 10,4 C 20,1 C 12,9 km/h (3 Bft) 89,47 %
22.05.2017 17:52 21,2 C 21,1 C 51 % 1015,5 hPa 0,0 l/m 10,3 km/h (2 Bft) O-NO 65 0 min 0,000 mm 0,7 UV-I 187 W/m 10,7 C 19,9 C 14,5 km/h (3 Bft) 92,00 %
22.05.2017 17:54 21,2 C 21,1 C 51 % 1015,6 hPa 0,0 l/m 11,3 km/h (2 Bft) O-NO 78 0 min 0,000 mm 0,7 UV-I 190 W/m 10,7 C 19,6 C 17,7 km/h (3 Bft) 95,12 %
22.05.2017 17:56 21,2 C 21,1 C 51 % 1015,5 hPa 0,0 l/m 9,0 km/h (2 Bft) O-NO 78 0 min 0,000 mm 0,6 UV-I 186 W/m 10,7 C 20,3 C 14,5 km/h (3 Bft) 96,23 %
22.05.2017 17:58 21,2 C 21,1 C 51 % 1015,5 hPa 0,0 l/m 9,3 km/h (2 Bft) O 90 0 min 0,000 mm 0,6 UV-I 182 W/m 10,7 C 20,2 C 16,1 km/h (3 Bft) 96,23 %
22.05.2017 18:00 21,2 C 21,1 C 50 % 1015,5 hPa 0,0 l/m 8,7 km/h (2 Bft) O-NO 61 0 min 0,000 mm 0,6 UV-I 181 W/m 10,4 C 20,4 C 12,9 km/h (3 Bft) 89,47 %
22.05.2017 18:02 21,1 C 21,1 C 52 % 1015,5 hPa 0,0 l/m 4,6 km/h (1 Bft) O-NO 71 0 min 0,254 mm 0,6 UV-I 183 W/m 10,9 C 21,1 C 6,4 km/h (2 Bft) 95,74 %
22.05.2017 18:04 21,1 C 21,1 C 54 % 1015,5 hPa 0,0 l/m 3,5 km/h (1 Bft) O 86 0 min 0,000 mm 0,6 UV-I 180 W/m 11,4 C 21,1 C 4,8 km/h (1 Bft) 92,00 %
22.05.2017 18:06 21,0 C 21,1 C 50 % 1015,5 hPa 0,0 l/m 5,6 km/h (1 Bft) O 80 0 min 0,000 mm 0,6 UV-I 171 W/m 10,2 C 21,0 C 8,0 km/h (2 Bft) 88,00 %
22.05.2017 18:08 21,0 C 21,1 C 52 % 1015,5 hPa 0,0 l/m 5,8 km/h (2 Bft) O 82 0 min 0,000 mm 0,6 UV-I 161 W/m 10,8 C 21,0 C 9,7 km/h (2 Bft) 100,00 %
22.05.2017 18:10 21,0 C 21,1 C 52 % 1015,5 hPa 0,0 l/m 2,9 km/h (1 Bft) O-NO 71 0 min 0,000 mm 0,5 UV-I 155 W/m 10,8 C 21,0 C 4,8 km/h (1 Bft) 92,45 %
22.05.2017 18:12 21,0 C 21,1 C 49 % 1015,6 hPa 0,0 l/m 6,2 km/h (2 Bft) O-NO 75 0 min 0,000 mm 0,5 UV-I 151 W/m 9,9 C 21,0 C 9,7 km/h (2 Bft) 94,34 %
22.05.2017 18:14 21,0 C 21,1 C 51 % 1015,5 hPa 0,0 l/m 6,0 km/h (2 Bft) O 82 0 min 0,000 mm 0,5 UV-I 149 W/m 10,5 C 21,0 C 9,7 km/h (2 Bft) 94,74 %
22.05.2017 18:16 20,9 C 21,1 C 51 % 1015,5 hPa 0,0 l/m 6,4 km/h (2 Bft) O 90 0 min 0,000 mm 0,5 UV-I 148 W/m 10,4 C 20,9 C 11,3 km/h (2 Bft) 96,23 %
22.05.2017 18:18 20,9 C 21,1 C 51 % 1015,5 hPa 0,0 l/m 6,2 km/h (2 Bft) O 98 0 min 0,000 mm 0,5 UV-I 147 W/m 10,4 C 20,9 C 9,7 km/h (2 Bft) 92,31 %
22.05.2017 18:20 20,8 C 21,1 C 52 % 1015,5 hPa 0,0 l/m 8,4 km/h (2 Bft) O 86 0 min 0,000 mm 0,3 UV-I 145 W/m 10,6 C 20,0 C 12,9 km/h (3 Bft) 96,00 %
22.05.2017 18:22 20,8 C 21,1 C 51 % 1015,5 hPa 0,0 l/m 6,0 km/h (2 Bft) O 82 0 min 0,000 mm 0,0 UV-I 143 W/m 10,3 C 20,8 C 9,7 km/h (2 Bft) 96,00 %
22.05.2017 18:24 20,8 C 21,1 C 51 % 1015,5 hPa 0,0 l/m 5,0 km/h (1 Bft) O 90 0 min 0,000 mm 0,0 UV-I 144 W/m 10,3 C 20,8 C 9,7 km/h (2 Bft) 98,00 %
22.05.2017 18:26 20,8 C 21,1 C 52 % 1015,5 hPa 0,0 l/m 4,6 km/h (1 Bft) O-SO 104 0 min 0,000 mm 0,0 UV-I 146 W/m 10,6 C 20,8 C 9,7 km/h (2 Bft) 100,00 %
22.05.2017 18:28 20,7 C 21,1 C 51 % 1015,4 hPa 0,0 l/m 5,1 km/h (1 Bft) O 96 0 min 0,000 mm 0,0 UV-I 147 W/m 10,2 C 20,7 C 8,0 km/h (2 Bft) 94,29 %
22.05.2017 18:30 20,7 C 21,1 C 51 % 1015,4 hPa 0,0 l/m 4,7 km/h (1 Bft) O-SO 117 0 min 0,000 mm 0,0 UV-I 145 W/m 10,2 C 20,7 C 11,3 km/h (2 Bft) 96,23 %
22.05.2017 18:32 20,8 C 21,1 C 51 % 1015,5 hPa 0,0 l/m 5,3 km/h (1 Bft) O 87 0 min 0,000 mm 0,0 UV-I 142 W/m 10,3 C 20,8 C 9,7 km/h (2 Bft) 100,00 %
22.05.2017 18:34 20,7 C 21,1 C 54 % 1015,4 hPa 0,0 l/m 3,7 km/h (1 Bft) O-NO 65 0 min 0,000 mm 0,0 UV-I 141 W/m 11,1 C 20,7 C 6,4 km/h (2 Bft) 96,00 %
22.05.2017 18:36 20,7 C 21,1 C 53 % 1015,4 hPa 0,0 l/m 4,5 km/h (1 Bft) O 79 0 min 0,000 mm 0,0 UV-I 137 W/m 10,8 C 20,7 C 6,4 km/h (2 Bft) 95,12 %
22.05.2017 18:38 20,7 C 21,1 C 52 % 1015,4 hPa 0,0 l/m 4,4 km/h (1 Bft) O 85 0 min 0,000 mm 0,0 UV-I 144 W/m 10,5 C 20,7 C 8,0 km/h (2 Bft) 98,21 %
22.05.2017 18:40 20,8 C 21,1 C 53 % 1015,3 hPa 0,0 l/m 4,2 km/h (1 Bft) O-NO 70 0 min 0,000 mm 0,0 UV-I 157 W/m 10,9 C 20,8 C 6,4 km/h (2 Bft) 100,00 %
22.05.2017 18:42 20,8 C 21,1 C 53 % 1015,3 hPa 0,0 l/m 4,7 km/h (1 Bft) O-NO 71 0 min 0,000 mm 0,0 UV-I 156 W/m 10,9 C 20,8 C 6,4 km/h (2 Bft) 97,73 %
22.05.2017 18:44 20,9 C 21,1 C 51 % 1015,4 hPa 0,0 l/m 3,8 km/h (1 Bft) O-NO 70 2 min 0,000 mm 0,0 UV-I 260 W/m 10,4 C 20,9 C 6,4 km/h (2 Bft) 97,87 %
22.05.2017 18:46 21,1 C 21,1 C 56 % 1015,3 hPa 0,0 l/m 3,3 km/h (1 Bft) O-NO 69 2 min 0,000 mm 0,0 UV-I 296 W/m 12,0 C 21,1 C 6,4 km/h (2 Bft) 100,00 %
22.05.2017 18:48 21,2 C 21,1 C 54 % 1015,3 hPa 0,0 l/m 3,7 km/h (1 Bft) O-NO 67 2 min 0,000 mm 0,0 UV-I 281 W/m 11,5 C 21,2 C 4,8 km/h (1 Bft) 93,62 %
22.05.2017 18:50 21,3 C 21,1 C 54 % 1015,3 hPa 0,0 l/m 3,1 km/h (1 Bft) O-NO 67 2 min 0,000 mm 0,0 UV-I 264 W/m 11,6 C 21,3 C 4,8 km/h (1 Bft) 100,00 %
22.05.2017 18:52 21,4 C 21,1 C 52 % 1015,3 hPa 0,0 l/m 3,0 km/h (1 Bft) O-NO 72 2 min 0,000 mm 0,0 UV-I 250 W/m 11,1 C 21,4 C 4,8 km/h (1 Bft) 98,21 %
22.05.2017 18:54 21,6 C 21,1 C 52 % 1015,3 hPa 0,0 l/m 4,2 km/h (1 Bft) O-NO 69 2 min 0,000 mm 0,0 UV-I 235 W/m 11,3 C 21,6 C 8,0 km/h (2 Bft) 100,00 %
22.05.2017 18:56 21,6 C 21,1 C 52 % 1015,3 hPa 0,0 l/m 5,1 km/h (1 Bft) O 81 2 min 0,000 mm 0,0 UV-I 204 W/m 11,3 C 21,6 C 6,4 km/h (2 Bft) 97,73 %
22.05.2017 18:58 21,6 C 21,1 C 50 % 1015,3 hPa 0,0 l/m 4,7 km/h (1 Bft) O-NO 57 2 min 0,000 mm 0,0 UV-I 204 W/m 10,7 C 21,6 C 6,4 km/h (2 Bft) 98,11 %
22.05.2017 19:00 21,6 C 21,1 C 51 % 1015,3 hPa 0,0 l/m 4,0 km/h (1 Bft) O-SO 118 2 min 0,152 mm 0,0 UV-I 199 W/m 11,0 C 21,6 C 6,4 km/h (2 Bft) 100,00 %
22.05.2017 19:02 21,6 C 21,1 C 47 % 1015,2 hPa 0,0 l/m 4,3 km/h (1 Bft) O 101 2 min 0,000 mm 0,0 UV-I 194 W/m 9,8 C 21,6 C 6,4 km/h (2 Bft) 98,00 %
22.05.2017 19:04 21,6 C 21,1 C 52 % 1015,2 hPa 0,0 l/m 2,7 km/h (1 Bft) O 100 2 min 0,000 mm 0,0 UV-I 189 W/m 11,3 C 21,6 C 4,8 km/h (1 Bft) 97,37 %
22.05.2017 19:06 21,6 C 21,1 C 50 % 1015,2 hPa 0,0 l/m 4,6 km/h (1 Bft) O 84 2 min 0,000 mm 0,0 UV-I 175 W/m 10,7 C 21,6 C 6,4 km/h (2 Bft) 100,00 %
22.05.2017 19:08 21,6 C 21,1 C 53 % 1015,2 hPa 0,0 l/m 2,7 km/h (1 Bft) O 81 2 min 0,000 mm 0,0 UV-I 172 W/m 11,6 C 21,6 C 6,4 km/h (2 Bft) 100,00 %
22.05.2017 19:10 21,6 C 21,1 C 51 % 1015,2 hPa 0,0 l/m 4,2 km/h (1 Bft) O 97 2 min 0,000 mm 0,0 UV-I 171 W/m 11,0 C 21,6 C 6,4 km/h (2 Bft) 96,00 %
22.05.2017 19:12 21,5 C 21,1 C 49 % 1015,2 hPa 0,0 l/m 5,4 km/h (1 Bft) O-SO 111 2 min 0,000 mm 0,0 UV-I 178 W/m 10,3 C 21,5 C 9,7 km/h (2 Bft) 97,56 %
22.05.2017 19:14 21,5 C 21,1 C 49 % 1015,2 hPa 0,0 l/m 5,5 km/h (1 Bft) O-SO 119 2 min 0,000 mm 0,0 UV-I 177 W/m 10,3 C 21,5 C 9,7 km/h (2 Bft) 100,00 %
22.05.2017 19:16 21,4 C 21,1 C 50 % 1015,2 hPa 0,0 l/m 4,1 km/h (1 Bft) O 101 2 min 0,000 mm 0,0 UV-I 176 W/m 10,5 C 21,4 C 6,4 km/h (2 Bft) 96,23 %
22.05.2017 19:18 21,5 C 21,1 C 50 % 1015,2 hPa 0,0 l/m 5,5 km/h (1 Bft) O-NO 69 2 min 0,000 mm 0,0 UV-I 180 W/m 10,6 C 21,5 C 11,3 km/h (2 Bft) 100,00 %
22.05.2017 19:20 21,5 C 21,1 C 52 % 1015,2 hPa 0,0 l/m 4,8 km/h (1 Bft) O-SO 103 2 min 0,000 mm 0,0 UV-I 183 W/m 11,2 C 21,5 C 9,7 km/h (2 Bft) 95,92 %
22.05.2017 19:22 21,5 C 21,1 C 52 % 1015,1 hPa 0,0 l/m 3,7 km/h (1 Bft) O 80 2 min 0,000 mm 0,0 UV-I 184 W/m 11,2 C 21,5 C 6,4 km/h (2 Bft) 95,74 %
22.05.2017 19:24 21,5 C 21,1 C 55 % 1015,1 hPa 0,0 l/m 5,3 km/h (1 Bft) O 80 2 min 0,000 mm 0,0 UV-I 185 W/m 12,1 C 21,5 C 8,0 km/h (2 Bft) 100,00 %
22.05.2017 19:26 21,6 C 21,1 C 49 % 1015,1 hPa 0,0 l/m 6,8 km/h (2 Bft) O-NO 71 2 min 0,000 mm 0,0 UV-I 185 W/m 10,4 C 21,5 C 11,3 km/h (2 Bft) 96,00 %
22.05.2017 19:28 21,6 C 21,1 C 49 % 1015,1 hPa 0,0 l/m 9,9 km/h (2 Bft) NO 55 2 min 0,000 mm 0,0 UV-I 184 W/m 10,4 C 20,4 C 14,5 km/h (3 Bft) 100,00 %
22.05.2017 19:30 21,6 C 21,1 C 48 % 1015,1 hPa 0,0 l/m 10,1 km/h (2 Bft) O-NO 74 2 min 0,000 mm 0,0 UV-I 180 W/m 10,1 C 20,4 C 14,5 km/h (3 Bft) 100,00 %
22.05.2017 19:32 21,6 C 21,1 C 49 % 1015,0 hPa 0,0 l/m 10,5 km/h (2 Bft) O-NO 78 2 min 0,000 mm 0,0 UV-I 176 W/m 10,4 C 20,3 C 16,1 km/h (3 Bft) 98,18 %
22.05.2017 19:34 21,6 C 21,1 C 48 % 1015,0 hPa 0,0 l/m 9,9 km/h (2 Bft) O-NO 76 2 min 0,000 mm 0,0 UV-I 171 W/m 10,1 C 20,4 C 14,5 km/h (3 Bft) 97,87 %
22.05.2017 19:36 21,5 C 21,1 C 48 % 1015,0 hPa 0,0 l/m 10,0 km/h (2 Bft) O 91 2 min 0,000 mm 0,0 UV-I 165 W/m 10,0 C 20,3 C 16,1 km/h (3 Bft) 97,44 %
22.05.2017 19:38 21,5 C 21,1 C 48 % 1015,0 hPa 0,0 l/m 9,9 km/h (2 Bft) O-NO 74 2 min 0,000 mm 0,0 UV-I 160 W/m 10,0 C 20,3 C 14,5 km/h (3 Bft) 100,00 %
22.05.2017 19:40 21,4 C 21,1 C 49 % 1014,9 hPa 0,0 l/m 8,9 km/h (2 Bft) O 86 2 min 0,000 mm 0,0 UV-I 154 W/m 10,2 C 20,5 C 12,9 km/h (3 Bft) 95,12 %
22.05.2017 19:42 21,3 C 21,1 C 49 % 1015,0 hPa 0,0 l/m 8,1 km/h (2 Bft) O 80 2 min 0,000 mm 0,0 UV-I 149 W/m 10,1 C 20,7 C 12,9 km/h (3 Bft) 96,00 %
22.05.2017 19:44 21,3 C 21,1 C 50 % 1015,0 hPa 0,0 l/m 7,8 km/h (2 Bft) O 79 2 min 0,000 mm 0,0 UV-I 144 W/m 10,4 C 20,8 C 12,9 km/h (3 Bft) 95,45 %
22.05.2017 19:46 21,2 C 21,1 C 50 % 1014,9 hPa 0,0 l/m 8,3 km/h (2 Bft) O 86 2 min 0,000 mm 0,0 UV-I 139 W/m 10,4 C 20,5 C 11,3 km/h (2 Bft) 94,34 %
22.05.2017 19:48 21,2 C 21,1 C 50 % 1014,9 hPa 0,0 l/m 7,8 km/h (2 Bft) NO 52 2 min 0,000 mm 0,0 UV-I 135 W/m 10,4 C 20,7 C 12,9 km/h (3 Bft) 95,74 %
22.05.2017 19:50 21,1 C 21,1 C 50 % 1015,0 hPa 0,0 l/m 5,8 km/h (2 Bft) O-NO 77 2 min 0,000 mm 0,0 UV-I 127 W/m 10,3 C 21,1 C 11,3 km/h (2 Bft) 90,91 %
22.05.2017 19:52 21,1 C 21,1 C 50 % 1015,0 hPa 0,0 l/m 5,1 km/h (1 Bft) O-NO 67 2 min 0,000 mm 0,0 UV-I 122 W/m 10,3 C 21,1 C 6,4 km/h (2 Bft) 96,00 %
22.05.2017 19:54 21,1 C 21,1 C 50 % 1015,0 hPa 0,0 l/m 4,0 km/h (1 Bft) O-NO 74 2 min 0,000 mm 0,0 UV-I 117 W/m 10,3 C 21,1 C 8,0 km/h (2 Bft) 97,14 %
22.05.2017 19:56 21,1 C 21,1 C 49 % 1015,0 hPa 0,0 l/m 7,3 km/h (2 Bft) O-NO 73 2 min 0,000 mm 0,0 UV-I 111 W/m 10,0 C 20,8 C 11,3 km/h (2 Bft) 94,92 %
22.05.2017 19:58 21,1 C 21,1 C 50 % 1015,0 hPa 0,0 l/m 5,8 km/h (2 Bft) O-NO 78 2 min 0,000 mm 0,0 UV-I 105 W/m 10,3 C 21,1 C 8,0 km/h (2 Bft) 95,74 %
22.05.2017 20:00 21,0 C 21,1 C 50 % 1015,0 hPa 0,0 l/m 5,2 km/h (1 Bft) O 79 2 min 0,000 mm 0,0 UV-I 99 W/m 10,2 C 21,0 C 8,0 km/h (2 Bft) 97,37 %
22.05.2017 20:03 20,9 C 21,1 C 52 % 1015,0 hPa 0,0 l/m 3,6 km/h (1 Bft) O-NO 65 3 min 0,153 mm 0,0 UV-I 92 W/m 10,7 C 20,9 C 6,4 km/h (2 Bft) 95,77 %
22.05.2017 20:04 20,8 C 21,1 C 52 % 1015,0 hPa 0,0 l/m 3,7 km/h (1 Bft) O-NO 78 1 min 0,000 mm 0,0 UV-I 88 W/m 10,6 C 20,8 C 4,8 km/h (1 Bft) 96,55 %
22.05.2017 20:06 20,7 C 21,1 C 53 % 1015,0 hPa 0,0 l/m 2,9 km/h (1 Bft) O-NO 77 2 min 0,000 mm 0,0 UV-I 85 W/m 10,8 C 20,7 C 4,8 km/h (1 Bft) 95,74 %
22.05.2017 20:08 20,4 C 21,1 C 56 % 1015,0 hPa 0,0 l/m 2,7 km/h (1 Bft) O-NO 76 2 min 0,000 mm 0,0 UV-I 79 W/m 11,3 C 20,4 C 4,8 km/h (1 Bft) 93,62 %
22.05.2017 20:10 20,2 C 21,1 C 55 % 1015,0 hPa 0,0 l/m 3,0 km/h (1 Bft) O-NO 75 2 min 0,000 mm 0,0 UV-I 72 W/m 10,9 C 20,2 C 4,8 km/h (1 Bft) 92,68 %
22.05.2017 20:12 20,1 C 21,1 C 55 % 1014,9 hPa 0,0 l/m 3,6 km/h (1 Bft) O-NO 69 2 min 0,000 mm 0,0 UV-I 66 W/m 10,8 C 20,1 C 4,8 km/h (1 Bft) 92,00 %
22.05.2017 20:14 20,0 C 21,1 C 56 % 1015,0 hPa 0,0 l/m 2,9 km/h (1 Bft) O-NO 69 2 min 0,000 mm 0,0 UV-I 61 W/m 11,0 C 20,0 C 4,8 km/h (1 Bft) 98,11 %
22.05.2017 20:16 19,9 C 21,1 C 56 % 1014,9 hPa 0,0 l/m 3,7 km/h (1 Bft) O-NO 57 2 min 0,000 mm 0,0 UV-I 55 W/m 10,9 C 19,9 C 6,4 km/h (2 Bft) 94,87 %
22.05.2017 20:18 19,9 C 21,1 C 57 % 1014,9 hPa 0,0 l/m 3,6 km/h (1 Bft) NO 56 2 min 0,000 mm 0,0 UV-I 51 W/m 11,1 C 19,9 C 4,8 km/h (1 Bft) 94,34 %
22.05.2017 20:20 19,8 C 21,1 C 57 % 1014,9 hPa 0,0 l/m 3,3 km/h (1 Bft) NO 53 2 min 0,000 mm 0,0 UV-I 44 W/m 11,0 C 19,8 C 4,8 km/h (1 Bft) 97,37 %
22.05.2017 20:22 19,7 C 21,1 C 56 % 1015,0 hPa 0,0 l/m 5,4 km/h (1 Bft) O-NO 59 2 min 0,000 mm 0,0 UV-I 38 W/m 10,7 C 19,7 C 6,4 km/h (2 Bft) 96,23 %
22.05.2017 20:24 19,7 C 21,1 C 55 % 1014,9 hPa 0,0 l/m 5,2 km/h (1 Bft) O-NO 67 2 min 0,000 mm 0,0 UV-I 35 W/m 10,4 C 19,7 C 8,0 km/h (2 Bft) 96,00 %
22.05.2017 20:26 19,6 C 21,1 C 56 % 1014,9 hPa 0,0 l/m 4,3 km/h (1 Bft) NO 47 2 min 0,000 mm 0,0 UV-I 33 W/m 10,6 C 19,6 C 6,4 km/h (2 Bft) 100,00 %
22.05.2017 20:28 19,4 C 21,1 C 57 % 1014,9 hPa 0,0 l/m 4,6 km/h (1 Bft) O-NO 65 2 min 0,000 mm 0,0 UV-I 31 W/m 10,7 C 19,4 C 6,4 km/h (2 Bft) 95,74 %
22.05.2017 20:30 19,3 C 21,1 C 57 % 1014,9 hPa 0,0 l/m 4,2 km/h (1 Bft) O-NO 59 2 min 0,000 mm 0,0 UV-I 29 W/m 10,6 C 19,3 C 6,4 km/h (2 Bft) 98,00 %
22.05.2017 20:32 19,2 C 21,1 C 57 % 1014,9 hPa 0,0 l/m 4,4 km/h (1 Bft) O-NO 62 2 min 0,000 mm 0,0 UV-I 18 W/m 10,5 C 19,2 C 6,4 km/h (2 Bft) 95,74 %
22.05.2017 20:34 19,2 C 21,1 C 57 % 1014,9 hPa 0,0 l/m 3,8 km/h (1 Bft) O-NO 66 0 min 0,000 mm 0,0 UV-I 13 W/m 10,5 C 19,2 C 6,4 km/h (2 Bft) 98,00 %
22.05.2017 20:36 19,1 C 21,1 C 57 % 1014,9 hPa 0,0 l/m 4,2 km/h (1 Bft) O-NO 64 0 min 0,000 mm 0,0 UV-I 8 W/m 10,4 C 19,1 C 4,8 km/h (1 Bft) 98,00 %
22.05.2017 20:38 19,0 C 21,1 C 58 % 1014,9 hPa 0,0 l/m 4,2 km/h (1 Bft) O-NO 65 0 min 0,000 mm 0,0 UV-I 3 W/m 10,5 C 19,0 C 6,4 km/h (2 Bft) 97,87 %
22.05.2017 20:40 18,8 C 21,1 C 59 % 1014,9 hPa 0,0 l/m 4,1 km/h (1 Bft) O-NO 65 0 min 0,000 mm 0,0 UV-I 22 W/m 10,6 C 18,8 C 6,4 km/h (2 Bft) 97,87 %
22.05.2017 20:42 18,8 C 21,1 C 58 % 1014,9 hPa 0,0 l/m 4,2 km/h (1 Bft) O-NO 65 0 min 0,000 mm 0,0 UV-I 21 W/m 10,4 C 18,8 C 6,4 km/h (2 Bft) 100,00 %
22.05.2017 20:44 18,7 C 21,1 C 59 % 1014,8 hPa 0,0 l/m 3,7 km/h (1 Bft) O-NO 65 0 min 0,000 mm 0,0 UV-I 19 W/m 10,5 C 18,7 C 4,8 km/h (1 Bft) 100,00 %
22.05.2017 20:46 18,6 C 21,1 C 60 % 1014,9 hPa 0,0 l/m 3,7 km/h (1 Bft) O-NO 65 0 min 0,000 mm 0,0 UV-I 17 W/m 10,7 C 18,6 C 4,8 km/h (1 Bft) 100,00 %
22.05.2017 20:48 18,6 C 21,1 C 59 % 1014,9 hPa 0,0 l/m 3,2 km/h (1 Bft) O-NO 65 0 min 0,000 mm 0,0 UV-I 16 W/m 10,4 C 18,6 C 4,8 km/h (1 Bft) 98,00 %
22.05.2017 20:50 18,6 C 21,1 C 59 % 1015,0 hPa 0,0 l/m 3,3 km/h (1 Bft) O-NO 65 0 min 0,000 mm 0,0 UV-I 13 W/m 10,4 C 18,6 C 4,8 km/h (1 Bft) 95,12 %
22.05.2017 20:52 18,5 C 21,1 C 59 % 1014,9 hPa 0,0 l/m 2,9 km/h (1 Bft) O-NO 65 0 min 0,000 mm 0,0 UV-I 12 W/m 10,3 C 18,5 C 4,8 km/h (1 Bft) 100,00 %
22.05.2017 20:54 18,5 C 21,1 C 59 % 1015,0 hPa 0,0 l/m 2,3 km/h (1 Bft) O-NO 65 0 min 0,000 mm 0,0 UV-I 9 W/m 10,3 C 18,5 C 3,2 km/h (1 Bft) 100,00 %
22.05.2017 20:56 18,6 C 21,1 C 59 % 1014,9 hPa 0,0 l/m 3,3 km/h (1 Bft) O-NO 65 0 min 0,000 mm 0,0 UV-I 6 W/m 10,4 C 18,6 C 4,8 km/h (1 Bft) 98,11 %
22.05.2017 20:58 18,6 C 21,1 C 59 % 1015,0 hPa 0,0 l/m 2,8 km/h (1 Bft) O-NO 65 0 min 0,000 mm 0,0 UV-I 5 W/m 10,4 C 18,6 C 4,8 km/h (1 Bft) 97,87 %
22.05.2017 21:00 18,6 C 21,1 C 59 % 1015,0 hPa 0,0 l/m 3,1 km/h (1 Bft) O-NO 65 0 min 0,000 mm 0,0 UV-I 5 W/m 10,4 C 18,6 C 4,8 km/h (1 Bft) 97,73 %
22.05.2017 21:02 18,4 C 21,1 C 60 % 1015,0 hPa 0,0 l/m 2,1 km/h (1 Bft) O-NO 65 0 min 0,050 mm 0,0 UV-I 1 W/m 10,5 C 18,4 C 3,2 km/h (1 Bft) 98,21 %
22.05.2017 21:04 18,3 C 21,1 C 60 % 1015,0 hPa 0,0 l/m 1,3 km/h (1 Bft) O-NO 65 0 min 0,000 mm 0,0 UV-I 0 W/m 10,4 C 18,3 C 3,2 km/h (1 Bft) 97,87 %
22.05.2017 21:06 18,2 C 21,1 C 61 % 1015,0 hPa 0,0 l/m 1,9 km/h (1 Bft) O-NO 65 0 min 0,000 mm 0,0 UV-I 0 W/m 10,6 C 18,2 C 3,2 km/h (1 Bft) 97,87 %
22.05.2017 21:08 18,2 C 21,1 C 61 % 1015,0 hPa 0,0 l/m 1,5 km/h (1 Bft) O-NO 65 0 min 0,000 mm 0,0 UV-I 0 W/m 10,6 C 18,2 C 3,2 km/h (1 Bft) 100,00 %
22.05.2017 21:10 18,2 C 21,1 C 61 % 1015,0 hPa 0,0 l/m 1,1 km/h (1 Bft) O-NO 65 0 min 0,000 mm 0,0 UV-I 0 W/m 10,6 C 18,2 C 3,2 km/h (1 Bft) 94,00 %
22.05.2017 21:12 18,1 C 21,1 C 61 % 1015,1 hPa 0,0 l/m 1,2 km/h (1 Bft) O-NO 65 0 min 0,000 mm 0,0 UV-I 0 W/m 10,5 C 18,1 C 3,2 km/h (1 Bft) 98,00 %
22.05.2017 21:14 17,9 C 21,1 C 62 % 1015,0 hPa 0,0 l/m 1,3 km/h (1 Bft) O-NO 65 0 min 0,000 mm 0,0 UV-I 0 W/m 10,5 C 17,9 C 3,2 km/h (1 Bft) 97,37 %
22.05.2017 21:16 17,9 C 21,1 C 62 % 1015,0 hPa 0,0 l/m 1,2 km/h (1 Bft) O-NO 65 0 min 0,000 mm 0,0 UV-I 0 W/m 10,5 C 17,9 C 3,2 km/h (1 Bft) 98,11 %
22.05.2017 21:18 17,8 C 21,1 C 62 % 1015,1 hPa 0,0 l/m 1,6 km/h (1 Bft) O-NO 65 0 min 0,000 mm 0,0 UV-I 0 W/m 10,4 C 17,8 C 3,2 km/h (1 Bft) 100,00 %
22.05.2017 21:20 17,7 C 21,1 C 62 % 1015,1 hPa 0,0 l/m 2,3 km/h (1 Bft) O-NO 65 0 min 0,000 mm 0,0 UV-I 0 W/m 10,3 C 17,7 C 4,8 km/h (1 Bft) 97,87 %
22.05.2017 21:22 17,6 C 21,1 C 62 % 1015,1 hPa 0,0 l/m 1,4 km/h (1 Bft) O-NO 65 0 min 0,000 mm 0,0 UV-I 0 W/m 10,2 C 17,6 C 3,2 km/h (1 Bft) 100,00 %
22.05.2017 21:24 17,4 C 21,1 C 62 % 1015,1 hPa 0,0 l/m 1,0 km/h (0 Bft) O-NO 65 0 min 0,000 mm 0,0 UV-I 0 W/m 10,0 C 17,4 C 1,6 km/h (1 Bft) 98,00 %
22.05.2017 21:26 17,3 C 21,1 C 65 % 1015,1 hPa 0,0 l/m 0,0 km/h (0 Bft) O-NO 65 0 min 0,000 mm 0,0 UV-I 0 W/m 10,7 C 17,3 C 1,6 km/h (1 Bft) 98,00 %
22.05.2017 21:28 17,1 C 21,1 C 67 % 1015,2 hPa 0,0 l/m 0,0 km/h (0 Bft) O-NO 65 0 min 0,000 mm 0,0 UV-I 0 W/m 10,9 C 17,1 C 0,0 km/h (0 Bft) 94,74 %
22.05.2017 21:30 16,9 C 21,1 C 69 % 1015,2 hPa 0,0 l/m 0,0 km/h (0 Bft) O-NO 65 0 min 0,000 mm 0,0 UV-I 0 W/m 11,2 C 16,9 C 0,0 km/h (0 Bft) 95,74 %
22.05.2017 21:32 16,7 C 21,1 C 70 % 1015,2 hPa 0,0 l/m 0,2 km/h (0 Bft) O-NO 65 0 min 0,000 mm 0,0 UV-I 0 W/m 11,2 C 16,7 C 1,6 km/h (1 Bft) 98,00 %
22.05.2017 21:34 16,6 C 21,1 C 70 % 1015,2 hPa 0,0 l/m 0,0 km/h (0 Bft) O-NO 65 0 min 0,000 mm 0,0 UV-I 0 W/m 11,1 C 16,6 C 0,0 km/h (0 Bft) 97,92 %
22.05.2017 21:36 16,6 C 21,1 C 71 % 1015,2 hPa 0,0 l/m 0,0 km/h (0 Bft) O-NO 65 0 min 0,000 mm 0,0 UV-I 0 W/m 11,3 C 16,6 C 0,0 km/h (0 Bft) 97,87 %
22.05.2017 21:38 16,6 C 21,1 C 71 % 1015,2 hPa 0,0 l/m 0,0 km/h (0 Bft) O-NO 65 0 min 0,000 mm 0,0 UV-I 0 W/m 11,3 C 16,6 C 0,0 km/h (0 Bft) 94,00 %
22.05.2017 21:40 16,6 C 21,1 C 69 % 1015,2 hPa 0,0 l/m 1,4 km/h (1 Bft) O-NO 65 0 min 0,000 mm 0,0 UV-I 0 W/m 10,9 C 16,6 C 3,2 km/h (1 Bft) 94,00 %
22.05.2017 21:42 16,6 C 21,1 C 69 % 1015,2 hPa 0,0 l/m 1,9 km/h (1 Bft) O-NO 65 0 min 0,000 mm 0,0 UV-I 0 W/m 10,9 C 16,6 C 3,2 km/h (1 Bft) 95,74 %
22.05.2017 21:44 16,6 C 21,1 C 68 % 1015,2 hPa 0,0 l/m 2,2 km/h (1 Bft) O-NO 65 0 min 0,000 mm 0,0 UV-I 0 W/m 10,7 C 16,6 C 3,2 km/h (1 Bft) 97,37 %
22.05.2017 21:46 16,6 C 21,1 C 67 % 1015,2 hPa 0,0 l/m 3,7 km/h (1 Bft) O-NO 65 0 min 0,000 mm 0,0 UV-I 0 W/m 10,4 C 16,6 C 4,8 km/h (1 Bft) 96,00 %
22.05.2017 21:48 16,6 C 21,1 C 67 % 1015,1 hPa 0,0 l/m 4,9 km/h (1 Bft) O-NO 65 0 min 0,000 mm 0,0 UV-I 0 W/m 10,4 C 16,6 C 6,4 km/h (2 Bft) 97,73 %
22.05.2017 21:50 16,6 C 21,1 C 66 % 1015,1 hPa 0,0 l/m 5,2 km/h (1 Bft) O-NO 65 0 min 0,000 mm 0,0 UV-I 0 W/m 10,2 C 16,6 C 6,4 km/h (2 Bft) 92,45 %
22.05.2017 21:52 16,7 C 21,1 C 65 % 1015,1 hPa 0,0 l/m 5,3 km/h (1 Bft) O-NO 65 0 min 0,000 mm 0,0 UV-I 0 W/m 10,1 C 16,7 C 6,4 km/h (2 Bft) 92,68 %
22.05.2017 21:54 16,8 C 21,1 C 65 % 1015,1 hPa 0,0 l/m 5,5 km/h (1 Bft) O-NO 63 0 min 0,000 mm 0,0 UV-I 0 W/m 10,2 C 16,8 C 6,4 km/h (2 Bft) 96,00 %
22.05.2017 21:56 16,8 C 21,1 C 65 % 1015,1 hPa 0,0 l/m 4,8 km/h (1 Bft) O-NO 65 0 min 0,000 mm 0,0 UV-I 0 W/m 10,2 C 16,8 C 6,4 km/h (2 Bft) 94,00 %
22.05.2017 21:58 16,8 C 21,1 C 65 % 1015,1 hPa 0,0 l/m 4,3 km/h (1 Bft) O-NO 65 0 min 0,000 mm 0,0 UV-I 0 W/m 10,2 C 16,8 C 6,4 km/h (2 Bft) 95,74 %
22.05.2017 22:00 16,8 C 21,1 C 65 % 1015,1 hPa 0,0 l/m 5,3 km/h (1 Bft) O-NO 76 0 min 0,000 mm 0,0 UV-I 0 W/m 10,2 C 16,8 C 6,4 km/h (2 Bft) 91,43 %
22.05.2017 22:02 16,9 C 21,1 C 65 % 1015,0 hPa 0,0 l/m 5,0 km/h (1 Bft) O-NO 75 0 min 0,026 mm 0,0 UV-I 0 W/m 10,3 C 16,9 C 8,0 km/h (2 Bft) 94,34 %
22.05.2017 22:04 16,8 C 21,1 C 65 % 1015,0 hPa 0,0 l/m 4,4 km/h (1 Bft) O-NO 62 0 min 0,000 mm 0,0 UV-I 0 W/m 10,2 C 16,8 C 6,4 km/h (2 Bft) 91,49 %
22.05.2017 22:06 16,8 C 21,1 C 64 % 1015,0 hPa 0,0 l/m 6,2 km/h (2 Bft) O-NO 68 0 min 0,000 mm 0,0 UV-I 0 W/m 10,0 C 16,8 C 8,0 km/h (2 Bft) 92,45 %
22.05.2017 22:08 16,8 C 21,1 C 64 % 1015,0 hPa 0,0 l/m 2,8 km/h (1 Bft) O-NO 68 0 min 0,000 mm 0,0 UV-I 0 W/m 10,0 C 16,8 C 4,8 km/h (1 Bft) 97,37 %
22.05.2017 22:10 16,9 C 21,1 C 64 % 1015,0 hPa 0,0 l/m 3,7 km/h (1 Bft) O-NO 67 0 min 0,000 mm 0,0 UV-I 0 W/m 10,0 C 16,9 C 4,8 km/h (1 Bft) 91,49 %
22.05.2017 22:12 16,9 C 21,1 C 64 % 1015,1 hPa 0,0 l/m 2,5 km/h (1 Bft) O-NO 68 0 min 0,000 mm 0,0 UV-I 0 W/m 10,0 C 16,9 C 4,8 km/h (1 Bft) 93,75 %
22.05.2017 22:14 16,6 C 21,1 C 68 % 1015,0 hPa 0,0 l/m 1,2 km/h (1 Bft) O-NO 68 0 min 0,000 mm 0,0 UV-I 0 W/m 10,7 C 16,6 C 3,2 km/h (1 Bft) 92,68 %
22.05.2017 22:16 16,1 C 21,1 C 70 % 1015,0 hPa 0,0 l/m 2,3 km/h (1 Bft) O-NO 67 0 min 0,000 mm 0,0 UV-I 0 W/m 10,6 C 16,1 C 3,2 km/h (1 Bft) 94,00 %
22.05.2017 22:18 15,6 C 21,1 C 72 % 1015,0 hPa 0,0 l/m 1,6 km/h (1 Bft) O-NO 67 0 min 0,000 mm 0,0 UV-I 0 W/m 10,6 C 15,6 C 4,8 km/h (1 Bft) 94,64 %
22.05.2017 22:20 15,4 C 21,1 C 71 % 1015,1 hPa 0,0 l/m 2,0 km/h (1 Bft) O-NO 67 0 min 0,000 mm 0,0 UV-I 0 W/m 10,2 C 15,4 C 4,8 km/h (1 Bft) 94,74 %
22.05.2017 22:22 15,3 C 21,1 C 74 % 1015,0 hPa 0,0 l/m 0,7 km/h (0 Bft) O-NO 67 0 min 0,000 mm 0,0 UV-I 0 W/m 10,7 C 15,3 C 3,2 km/h (1 Bft) 93,62 %
22.05.2017 22:24 15,3 C 21,1 C 75 % 1014,9 hPa 0,0 l/m 0,5 km/h (0 Bft) O-NO 67 0 min 0,000 mm 0,0 UV-I 0 W/m 10,9 C 15,3 C 1,6 km/h (1 Bft) 96,00 %
22.05.2017 22:26 15,1 C 21,1 C 76 % 1014,9 hPa 0,0 l/m 0,1 km/h (0 Bft) O-NO 67 0 min 0,000 mm 0,0 UV-I 0 W/m 10,9 C 15,1 C 1,6 km/h (1 Bft) 94,00 %
22.05.2017 22:28 15,0 C 21,1 C 76 % 1014,9 hPa 0,0 l/m 2,6 km/h (1 Bft) O 86 0 min 0,000 mm 0,0 UV-I 0 W/m 10,8 C 15,0 C 4,8 km/h (1 Bft) 93,88 %
22.05.2017 22:30 14,9 C 21,1 C 76 % 1014,9 hPa 0,0 l/m 2,8 km/h (1 Bft) O 90 0 min 0,000 mm 0,0 UV-I 0 W/m 10,7 C 14,9 C 4,8 km/h (1 Bft) 100,00 %
22.05.2017 22:32 14,9 C 21,1 C 76 % 1014,9 hPa 0,0 l/m 1,8 km/h (1 Bft) O-SO 104 0 min 0,000 mm 0,0 UV-I 0 W/m 10,7 C 14,9 C 3,2 km/h (1 Bft) 94,74 %
22.05.2017 22:34 15,0 C 21,1 C 75 % 1015,0 hPa 0,0 l/m 1,8 km/h (1 Bft) O-SO 104 0 min 0,000 mm 0,0 UV-I 0 W/m 10,6 C 15,0 C 3,2 km/h (1 Bft) 98,11 %
22.05.2017 22:36 15,1 C 21,1 C 74 % 1014,9 hPa 0,0 l/m 0,5 km/h (0 Bft) O-SO 104 0 min 0,000 mm 0,0 UV-I 0 W/m 10,5 C 15,1 C 1,6 km/h (1 Bft) 98,11 %
22.05.2017 22:38 15,1 C 21,1 C 73 % 1015,0 hPa 0,0 l/m 0,0 km/h (0 Bft) O-SO 104 0 min 0,000 mm 0,0 UV-I 0 W/m 10,3 C 15,1 C 0,0 km/h (0 Bft) 97,87 %
22.05.2017 22:40 15,2 C 21,1 C 73 % 1015,0 hPa 0,0 l/m 0,0 km/h (0 Bft) O-SO 104 0 min 0,000 mm 0,0 UV-I 0 W/m 10,4 C 15,2 C 0,0 km/h (0 Bft) 98,08 %
22.05.2017 22:42 15,2 C 21,1 C 73 % 1014,9 hPa 0,0 l/m 0,0 km/h (0 Bft) O-SO 104 0 min 0,000 mm 0,0 UV-I 0 W/m 10,4 C 15,2 C 0,0 km/h (0 Bft) 97,87 %
22.05.2017 22:44 15,1 C 21,1 C 73 % 1014,9 hPa 0,0 l/m 0,0 km/h (0 Bft) O-SO 104 0 min 0,000 mm 0,0 UV-I 0 W/m 10,3 C 15,1 C 0,0 km/h (0 Bft) 97,37 %
22.05.2017 22:46 15,1 C 21,1 C 73 % 1014,9 hPa 0,0 l/m 0,0 km/h (0 Bft) O-SO 104 0 min 0,000 mm 0,0 UV-I 0 W/m 10,3 C 15,1 C 0,0 km/h (0 Bft) 98,00 %
22.05.2017 22:48 15,1 C 21,1 C 74 % 1015,0 hPa 0,0 l/m 0,0 km/h (0 Bft) O-SO 104 0 min 0,000 mm 0,0 UV-I 0 W/m 10,5 C 15,1 C 0,0 km/h (0 Bft) 100,00 %
22.05.2017 22:50 14,9 C 21,1 C 75 % 1015,0 hPa 0,0 l/m 2,0 km/h (1 Bft) O-SO 104 0 min 0,000 mm 0,0 UV-I 0 W/m 10,5 C 14,9 C 3,2 km/h (1 Bft) 95,24 %
22.05.2017 22:52 14,8 C 21,1 C 75 % 1015,1 hPa 0,0 l/m 1,0 km/h (0 Bft) O-SO 104 0 min 0,000 mm 0,0 UV-I 0 W/m 10,4 C 14,8 C 1,6 km/h (1 Bft) 97,87 %
22.05.2017 22:54 14,7 C 21,1 C 76 % 1015,1 hPa 0,0 l/m 1,5 km/h (1 Bft) O-SO 104 0 min 0,000 mm 0,0 UV-I 0 W/m 10,5 C 14,7 C 3,2 km/h (1 Bft) 97,87 %
22.05.2017 22:56 14,6 C 21,1 C 76 % 1015,1 hPa 0,0 l/m 1,2 km/h (1 Bft) O-SO 104 0 min 0,000 mm 0,0 UV-I 0 W/m 10,4 C 14,6 C 3,2 km/h (1 Bft) 98,11 %
22.05.2017 22:58 14,4 C 21,1 C 78 % 1015,0 hPa 0,0 l/m 0,0 km/h (0 Bft) O-SO 104 0 min 0,000 mm 0,0 UV-I 0 W/m 10,6 C 14,4 C 0,0 km/h (0 Bft) 100,00 %
22.05.2017 23:00 14,3 C 21,1 C 78 % 1015,1 hPa 0,0 l/m 0,4 km/h (0 Bft) O-SO 104 0 min 0,000 mm 0,0 UV-I 0 W/m 10,5 C 14,3 C 3,2 km/h (1 Bft) 100,00 %
22.05.2017 23:02 14,2 C 21,1 C 79 % 1015,1 hPa 0,0 l/m 2,9 km/h (1 Bft) O-SO 104 0 min 0,025 mm 0,0 UV-I 0 W/m 10,6 C 14,2 C 3,2 km/h (1 Bft) 100,00 %
22.05.2017 23:04 14,3 C 21,1 C 78 % 1015,1 hPa 0,0 l/m 2,3 km/h (1 Bft) O-SO 108 0 min 0,000 mm 0,0 UV-I 0 W/m 10,5 C 14,3 C 3,2 km/h (1 Bft) 100,00 %
22.05.2017 23:06 14,4 C 21,1 C 78 % 1015,1 hPa 0,0 l/m 1,4 km/h (1 Bft) O-SO 108 0 min 0,000 mm 0,0 UV-I 0 W/m 10,6 C 14,4 C 3,2 km/h (1 Bft) 100,00 %
22.05.2017 23:08 14,5 C 21,1 C 77 % 1015,0 hPa 0,0 l/m 0,2 km/h (0 Bft) O-SO 108 0 min 0,000 mm 0,0 UV-I 0 W/m 10,5 C 14,5 C 1,6 km/h (1 Bft) 96,23 %
22.05.2017 23:10 14,6 C 21,1 C 78 % 1015,0 hPa 0,0 l/m 0,0 km/h (0 Bft) O-SO 108 0 min 0,000 mm 0,0 UV-I 0 W/m 10,8 C 14,6 C 0,0 km/h (0 Bft) 100,00 %
22.05.2017 23:12 14,6 C 21,1 C 77 % 1015,1 hPa 0,0 l/m 0,0 km/h (0 Bft) O-SO 108 0 min 0,000 mm 0,0 UV-I 0 W/m 10,6 C 14,6 C 0,0 km/h (0 Bft) 98,00 %
22.05.2017 23:14 14,4 C 21,1 C 77 % 1015,1 hPa 0,0 l/m 0,0 km/h (0 Bft) O-SO 108 0 min 0,000 mm 0,0 UV-I 0 W/m 10,4 C 14,4 C 0,0 km/h (0 Bft) 100,00 %
22.05.2017 23:16 14,3 C 21,1 C 78 % 1015,1 hPa 0,0 l/m 0,0 km/h (0 Bft) O-SO 108 0 min 0,000 mm 0,0 UV-I 0 W/m 10,5 C 14,3 C 0,0 km/h (0 Bft) 98,11 %
22.05.2017 23:18 14,3 C 21,1 C 78 % 1015,1 hPa 0,0 l/m 0,1 km/h (0 Bft) O-SO 108 0 min 0,000 mm 0,0 UV-I 0 W/m 10,5 C 14,3 C 1,6 km/h (1 Bft) 97,87 %
22.05.2017 23:20 14,3 C 21,1 C 79 % 1015,2 hPa 0,0 l/m 1,4 km/h (1 Bft) O-SO 108 0 min 0,000 mm 0,0 UV-I 0 W/m 10,7 C 14,3 C 3,2 km/h (1 Bft) 100,00 %
22.05.2017 23:22 14,3 C 21,1 C 79 % 1015,1 hPa 0,0 l/m 2,1 km/h (1 Bft) O-SO 108 0 min 0,000 mm 0,0 UV-I 0 W/m 10,7 C 14,3 C 3,2 km/h (1 Bft) 98,00 %
22.05.2017 23:24 14,2 C 21,1 C 80 % 1015,2 hPa 0,0 l/m 2,9 km/h (1 Bft) O-SO 108 0 min 0,000 mm 0,0 UV-I 0 W/m 10,8 C 14,2 C 3,2 km/h (1 Bft) 100,00 %
22.05.2017 23:26 14,0 C 21,1 C 81 % 1015,2 hPa 0,0 l/m 3,0 km/h (1 Bft) O-SO 108 0 min 0,000 mm 0,0 UV-I 0 W/m 10,8 C 14,0 C 4,8 km/h (1 Bft) 96,00 %
22.05.2017 23:28 13,8 C 21,1 C 82 % 1015,2 hPa 0,0 l/m 1,8 km/h (1 Bft) O-SO 108 0 min 0,000 mm 0,0 UV-I 0 W/m 10,8 C 13,8 C 3,2 km/h (1 Bft) 97,37 %
22.05.2017 23:30 13,8 C 21,1 C 82 % 1015,2 hPa 0,0 l/m 0,6 km/h (0 Bft) O-SO 108 0 min 0,000 mm 0,0 UV-I 0 W/m 10,8 C 13,8 C 1,6 km/h (1 Bft) 100,00 %
22.05.2017 23:32 13,8 C 21,1 C 82 % 1015,2 hPa 0,0 l/m 0,0 km/h (0 Bft) O-SO 108 0 min 0,000 mm 0,0 UV-I 0 W/m 10,8 C 13,8 C 0,0 km/h (0 Bft) 97,87 %
22.05.2017 23:34 13,9 C 21,1 C 81 % 1015,2 hPa 0,0 l/m 0,0 km/h (0 Bft) O-SO 108 0 min 0,000 mm 0,0 UV-I 0 W/m 10,7 C 13,9 C 0,0 km/h (0 Bft) 93,62 %
22.05.2017 23:36 13,9 C 21,1 C 81 % 1015,2 hPa 0,0 l/m 0,0 km/h (0 Bft) O-SO 108 0 min 0,000 mm 0,0 UV-I 0 W/m 10,7 C 13,9 C 0,0 km/h (0 Bft) 100,00 %
22.05.2017 23:38 13,8 C 21,1 C 81 % 1015,2 hPa 0,0 l/m 0,6 km/h (0 Bft) O-SO 108 0 min 0,000 mm 0,0 UV-I 0 W/m 10,6 C 13,8 C 1,6 km/h (1 Bft) 98,00 %
22.05.2017 23:40 13,7 C 21,1 C 81 % 1015,3 hPa 0,0 l/m 0,7 km/h (0 Bft) O-SO 108 0 min 0,000 mm 0,0 UV-I 0 W/m 10,5 C 13,7 C 1,6 km/h (1 Bft) 98,00 %
22.05.2017 23:42 13,5 C 21,1 C 82 % 1015,3 hPa 0,0 l/m 1,1 km/h (1 Bft) O-SO 108 0 min 0,000 mm 0,0 UV-I 0 W/m 10,5 C 13,5 C 3,2 km/h (1 Bft) 100,00 %
22.05.2017 23:44 13,5 C 21,1 C 82 % 1015,3 hPa 0,0 l/m 2,1 km/h (1 Bft) O-SO 108 0 min 0,000 mm 0,0 UV-I 0 W/m 10,5 C 13,5 C 3,2 km/h (1 Bft) 96,00 %
22.05.2017 23:46 13,5 C 21,1 C 82 % 1015,3 hPa 0,0 l/m 2,3 km/h (1 Bft) O-SO 109 0 min 0,000 mm 0,0 UV-I 0 W/m 10,5 C 13,5 C 4,8 km/h (1 Bft) 94,34 %
22.05.2017 23:48 13,4 C 21,1 C 82 % 1015,3 hPa 0,0 l/m 2,7 km/h (1 Bft) O-SO 122 0 min 0,000 mm 0,0 UV-I 0 W/m 10,4 C 13,4 C 4,8 km/h (1 Bft) 96,00 %
22.05.2017 23:50 13,4 C 21,1 C 82 % 1015,3 hPa 0,0 l/m 2,8 km/h (1 Bft) O-SO 122 0 min 0,000 mm 0,0 UV-I 0 W/m 10,4 C 13,4 C 4,8 km/h (1 Bft) 97,37 %
22.05.2017 23:52 13,3 C 21,1 C 82 % 1015,3 hPa 0,0 l/m 2,2 km/h (1 Bft) O-SO 122 0 min 0,000 mm 0,0 UV-I 0 W/m 10,3 C 13,3 C 3,2 km/h (1 Bft) 98,00 %
22.05.2017 23:54 13,2 C 21,1 C 83 % 1015,3 hPa 0,0 l/m 1,0 km/h (0 Bft) O-SO 122 0 min 0,000 mm 0,0 UV-I 0 W/m 10,4 C 13,2 C 3,2 km/h (1 Bft) 98,00 %
22.05.2017 23:56 13,2 C 21,1 C 83 % 1015,4 hPa 0,0 l/m 0,2 km/h (0 Bft) O-SO 122 0 min 0,000 mm 0,0 UV-I 0 W/m 10,4 C 13,2 C 1,6 km/h (1 Bft) 95,74 %
22.05.2017 23:58 13,2 C 21,1 C 83 % 1015,3 hPa 0,0 l/m 1,6 km/h (1 Bft) O-SO 122 0 min 0,000 mm 0,0 UV-I 0 W/m 10,4 C 13,2 C 3,2 km/h (1 Bft) 94,74 %
_ Min-Zeit 05:20 05:44 14:34 20:44 - 00:00 - - - - - - 05:20 06:36 00:06 17:36
Minimum _ 8,2 C 19,4 C 43 % 1014,8 hPa - 0,0 km/h (0 Bft) - - - - - - 7,1 C 7,0 C 0,0 km/h (0 Bft) 86,00 %
_ Max-Zeit 16:12 14:30 05:26 00:00 00:00 11:24 - - 07:54 15:02 13:18 14:30 19:24 16:50 11:22 00:30
Maximum _ 22,7 C 21,1 C 94 % 1021,8 hPa 0,0 l/m 23,7 km/h
O-NO (4 Bft)
- - 4 min 0,534 mm 5,3 UV-I 1011 W/m 12,1 C 22,6 C 29,0 km/h
O-NO (5 Bft)
100,00 %
Durchschnitt _ 15,7 C 20,4 C 70 % 1017,7 hPa #0,0 l/m 7,2 km/h (2 Bft) O-NO - #13:11 h #4,902 mm 2,8 UV-I 445 W/m 9,7 C 14,7 C 11,1 km/h (2 Bft) 96,52 %